AA305 / N139AN 7700 Squawk Report (10th of January, 2019)

Aircraft A321 Reg No. N139AN Age 3 years old
Model A321 Jet engines 2 First flight 14-07-15
Registered 21-07-15 Rollout 07-15 Delivered 22-07-15
Construction No. 6687 Line No. N/A Series 231(SL)
ADSHEX A09CAD Airline name American Airlines Owner N/A
Airfield based Dallas-Fort Worth~TX~N First tracked 2017-07-13 01:45:00

Flight history for N139AN

Route Flight No Date Playback
Dallas Fort Worth Intl (DFW) - Tampa Intl (TPA) - Dallas Fort Worth Intl (DFW) AA2270 2019-01-19 21:39:00
Cancun Intl (CUN) - Dallas Fort Worth Intl (DFW) AA1392 2019-01-19 14:08:00
Dallas Fort Worth Intl (DFW) - Cancun Intl (CUN) AA1547 2019-01-19 05:34:00
???? N/A 2019-01-19 03:26:00
Phoenix Sky Harbor Intl (PHX) - Dallas Fort Worth Intl (DFW) AA1153 2019-01-18 15:29:00
Dallas Fort Worth Intl (DFW) - Phoenix Sky Harbor Intl (PHX) AA57 2019-01-18 13:33:00
Dallas Fort Worth Intl (DFW) - La Guardia (LGA) - Dallas Fort Worth Intl (DFW) AA1263 2019-01-18 00:01:00
Dallas Fort Worth Intl (DFW) - Denver Intl (DEN) - Dallas Fort Worth Intl (DFW) AA2655 2019-01-17 13:54:00
Dallas Fort Worth Intl (DFW) - Newark Liberty Intl (EWR) - Dallas Fort Worth Intl (DFW) AA1382 2019-01-16 20:59:00
Dallas Fort Worth Intl (DFW) - San Antonio Intl (SAT) - Dallas Fort Worth Intl (DFW) AA249 2019-01-16 00:34:00
Portland Intl (PDX) - Dallas Fort Worth Intl (DFW) AA2577 2019-01-15 22:01:00
Dallas Fort Worth Intl (DFW) - Portland Intl (PDX) AA209 2019-01-15 16:22:00
Dallas Fort Worth Intl (DFW) - Orlando Intl (MCO) - Dallas Fort Worth Intl (DFW) AA1551 2019-01-14 23:34:00
La Guardia (LGA) - Dallas Fort Worth Intl (DFW) AA2632 2019-01-14 15:49:00
Dallas Fort Worth Intl (DFW) - La Guardia (LGA) AA2708 2019-01-14 11:25:00
Dallas Fort Worth Intl (DFW) - McCarran Intl (LAS) - Dallas Fort Worth Intl (DFW) AA1401 2019-01-14 00:52:00
Newark Liberty Intl (EWR) - Dallas Fort Worth Intl (DFW) AA2728 2019-01-13 15:40:00
Dallas Fort Worth Intl (DFW) - Newark Liberty Intl (EWR) AA2736 2019-01-13 10:41:00
Seattle Tacoma Intl (SEA) - Dallas Fort Worth Intl (DFW) AA1241 2019-01-12 17:09:00
Miami Intl (MIA) - Seattle Tacoma Intl (SEA) AA305 2019-01-12 07:32:00
Time Lat Lon Altitude Heading Speed Vertical Rate
2019-01-10 10:37:09 GMT 47.448845 -122.300224 0 143 10 0
2019-01-10 10:37:00 GMT 47.449169 -122.300652 0 132 12 0
2019-01-10 10:36:47 GMT 47.449543 -122.301300 0 129 10 0
2019-01-10 10:36:35 GMT 47.449917 -122.301971 0 129 11 0
2019-01-10 10:36:27 GMT 47.450104 -122.302284 0 129 10 0
2019-01-10 10:36:13 GMT 47.450409 -122.302979 0 95 8 0
2019-01-10 10:36:07 GMT 47.450417 -122.303375 0 92 9 0
2019-01-10 10:35:53 GMT 47.450439 -122.304115 0 98 8 0
2019-01-10 10:35:43 GMT 47.450478 -122.304649 0 126 7 0
2019-01-10 10:35:34 GMT 47.450615 -122.304955 0 163 6 0
2019-01-10 10:35:23 GMT 47.450859 -122.305031 0 160 7 0
2019-01-10 10:35:14 GMT 47.451141 -122.305145 0 104 5 0
2019-01-10 10:34:59 GMT 47.451221 -122.305351 0 73 2 0
2019-01-10 10:34:47 GMT 47.451187 -122.305504 0 70 4 0
2019-01-10 10:34:42 GMT 47.451164 -122.305679 0 61 7 0
2019-01-10 10:34:28 GMT 47.450939 -122.306175 0 16 8 0
2019-01-10 10:34:19 GMT 47.450638 -122.306267 0 2 8 0
2019-01-10 10:34:09 GMT 47.450169 -122.306274 0 0 13 0
2019-01-10 10:33:58 GMT 47.449608 -122.306274 0 0 12 0
2019-01-10 10:33:49 GMT 47.449059 -122.306290 0 0 11 0
2019-01-10 10:33:37 GMT 47.448532 -122.306297 0 0 12 0
2019-01-10 10:33:27 GMT 47.447926 -122.306313 0 0 13 0
2019-01-10 10:33:17 GMT 47.447239 -122.306313 0 0 13 0
2019-01-10 10:33:02 GMT 47.446438 -122.306343 0 16 11 0
2019-01-10 10:32:53 GMT 47.446041 -122.306564 0 61 8 0
2019-01-10 10:32:44 GMT 47.445923 -122.306953 0 90 10 0
2019-01-10 10:32:33 GMT 47.445923 -122.307701 0 98 13 0
2019-01-10 10:32:22 GMT 47.446186 -122.308830 0 135 15 0
2019-01-10 10:32:13 GMT 47.446621 -122.309349 0 149 18 0
2019-01-10 10:32:02 GMT 47.447491 -122.310089 0 151 21 0
2019-01-10 10:31:50 GMT 47.448486 -122.310844 0 157 19 0
2019-01-10 10:31:41 GMT 47.449219 -122.311127 0 177 30 0
2019-01-10 10:31:31 GMT 47.451462 -122.311119 0 180 78 0
2019-01-10 10:31:24 GMT 47.454300 -122.311134 350 179 111 -128
2019-01-10 10:31:19 GMT 47.457138 -122.311134 350 180 131 -192
2019-01-10 10:31:16 GMT 47.458889 -122.311073 350 181 136 -192
2019-01-10 10:31:09 GMT 47.463638 -122.311066 425 181 136 -640
2019-01-10 10:31:04 GMT 47.465919 -122.311005 450 181 136 -640
2019-01-10 10:30:59 GMT 47.469727 -122.310997 550 181 137 -896
2019-01-10 10:30:54 GMT 47.472839 -122.310928 600 181 137 -704
2019-01-10 10:30:48 GMT 47.479202 -122.310860 700 181 138 -896
2019-01-10 10:30:43 GMT 47.479202 -122.310860 700 180 137 -832
2019-01-10 10:30:38 GMT 47.483688 -122.310860 825 181 136 -768
2019-01-10 10:30:31 GMT 47.486729 -122.310860 875 181 135 -704
2019-01-10 10:30:26 GMT 47.489685 -122.310791 925 182 134 -704
2019-01-10 10:30:23 GMT 47.492500 -122.310654 975 180 133 -832
2019-01-10 10:30:16 GMT 47.496410 -122.310654 1,075 179 133 -896
2019-01-10 10:30:11 GMT 47.499668 -122.310722 1,100 179 133 -704
2019-01-10 10:30:06 GMT 47.503159 -122.310722 1,200 181 133 -704
2019-01-10 10:30:02 GMT 47.505661 -122.310654 1,250 181 133 -640
2019-01-10 10:29:55 GMT 47.509354 -122.310577 1,325 180 134 -704
2019-01-10 10:29:50 GMT 47.511887 -122.310585 1,375 181 133 -704
2019-01-10 10:29:44 GMT 47.516148 -122.310509 1,450 181 133 -640
2019-01-10 10:29:41 GMT 47.518570 -122.310440 1,500 181 133 -704
2019-01-10 10:29:37 GMT 47.520676 -122.310448 1,525 180 134 -704
2019-01-10 10:29:32 GMT 47.524017 -122.310448 1,600 180 136 -1024
2019-01-10 10:29:28 GMT 47.526997 -122.310440 1,675 181 135 -640
2019-01-10 10:29:20 GMT 47.531372 -122.310371 1,750 180 135 -640
2019-01-10 10:29:17 GMT 47.533001 -122.310371 1,775 180 134 -640
2019-01-10 10:29:12 GMT 47.536148 -122.310310 1,850 180 134 -704
2019-01-10 10:29:09 GMT 47.538300 -122.310310 1,875 180 135 -704
2019-01-10 10:29:01 GMT 47.544800 -122.310310 2,000 181 135 -768
2019-01-10 10:28:58 GMT 47.544800 -122.310310 2,000 181 135 -768
2019-01-10 10:28:55 GMT 47.546677 -122.310310 2,050 181 136 -768
2019-01-10 10:28:49 GMT 47.551716 -122.310226 2,175 181 136 -768
2019-01-10 10:28:46 GMT 47.553062 -122.310158 2,175 181 136 -704
2019-01-10 10:28:41 GMT 47.555950 -122.310158 2,225 180 136 -768
2019-01-10 10:28:37 GMT 47.558464 -122.310158 2,275 180 137 -832
2019-01-10 10:28:28 GMT 47.564144 -122.310158 2,375 180 136 -768
2019-01-10 10:28:25 GMT 47.566006 -122.310158 2,450 181 135 -640
2019-01-10 10:28:17 GMT 47.570206 -122.310104 2,525 181 135 -704
2019-01-10 10:28:13 GMT 47.572723 -122.310104 2,575 181 135 -704
2019-01-10 10:28:09 GMT 47.576340 -122.310036 2,675 180 134 -704
2019-01-10 10:28:03 GMT 47.584167 -122.309898 2,775 181 134 -704
2019-01-10 10:27:55 GMT 47.584808 -122.309898 2,775 181 134 -704
2019-01-10 10:27:48 GMT 47.588722 -122.309875 2,850 181 135 -832
2019-01-10 10:27:45 GMT 47.590714 -122.309898 2,925 181 137 -960
2019-01-10 10:27:42 GMT 47.592819 -122.309830 2,950 180 145 -1216
2019-01-10 10:27:37 GMT 47.596115 -122.309761 3,050 181 143 -1024
2019-01-10 10:27:33 GMT 47.598125 -122.309738 3,075 181 144 -1024
2019-01-10 10:27:24 GMT 47.604969 -122.309738 3,250 179 148 -1024
2019-01-10 10:27:14 GMT 47.611675 -122.309662 3,375 181 156 -768
2019-01-10 10:27:11 GMT 47.613583 -122.309662 3,475 181 159 -896
2019-01-10 10:27:06 GMT 47.617767 -122.309624 3,525 179 161 -896
2019-01-10 10:27:02 GMT 47.621796 -122.309624 3,600 181 163 -768
2019-01-10 10:26:52 GMT 47.627884 -122.309555 3,700 181 166 -768
2019-01-10 10:26:44 GMT 47.634624 -122.309525 3,800 181 168 -768
2019-01-10 10:26:39 GMT 47.638721 -122.309456 3,875 181 169 -640
2019-01-10 10:26:31 GMT 47.644318 -122.309418 3,950 180 169 -320
2019-01-10 10:26:28 GMT 47.645874 -122.309418 3,950 180 168 -128
2019-01-10 10:26:23 GMT 47.650360 -122.309456 3,950 181 168 64
2019-01-10 10:26:20 GMT 47.653198 -122.309418 3,950 181 168 0
2019-01-10 10:26:11 GMT 47.659531 -122.309311 3,950 181 166 0
2019-01-10 10:26:06 GMT 47.662354 -122.309280 3,950 181 167 -64
2019-01-10 10:26:02 GMT 47.666279 -122.309242 3,950 181 166 0
2019-01-10 10:25:58 GMT 47.669495 -122.309212 3,950 181 167 0
2019-01-10 10:25:51 GMT 47.678059 -122.309029 3,950 182 169 0
2019-01-10 10:25:47 GMT 47.678059 -122.309029 3,950 182 169 0
2019-01-10 10:25:41 GMT 47.681946 -122.308868 3,950 185 168 0
2019-01-10 10:25:38 GMT 47.685505 -122.308609 3,950 184 169 0
2019-01-10 10:25:35 GMT 47.686996 -122.308540 3,950 184 168 0
2019-01-10 10:25:31 GMT 47.690861 -122.308113 3,950 187 167 -64
2019-01-10 10:25:26 GMT 47.694443 -122.307549 3,950 190 168 0
2019-01-10 10:25:20 GMT 47.698883 -122.306190 4,100 204 164 -64
2019-01-10 10:25:14 GMT 47.703243 -122.303963 3,975 205 164 -64
2019-01-10 10:25:10 GMT 47.706177 -122.302055 3,975 205 164 -64
2019-01-10 10:25:05 GMT 47.709805 -122.299591 3,975 206 161 -128
2019-01-10 10:24:58 GMT 47.714367 -122.296356 4,100 211 157 -192
2019-01-10 10:24:54 GMT 47.719711 -122.291702 4,025 238 162 -1088
2019-01-10 10:24:50 GMT 47.719711 -122.291702 4,025 223 159 -576
2019-01-10 10:24:45 GMT 47.722839 -122.286987 4,100 241 162 -1152
2019-01-10 10:24:42 GMT 47.723282 -122.286003 4,175 250 165 -1280
2019-01-10 10:24:39 GMT 47.724335 -122.282982 4,200 256 166 -1536
2019-01-10 10:24:34 GMT 47.725449 -122.276779 4,350 270 169 -1792
2019-01-10 10:24:28 GMT 47.725353 -122.271141 4,700 285 170 -1280
2019-01-10 10:24:22 GMT 47.724190 -122.262970 4,700 285 170 -1344
2019-01-10 10:24:18 GMT 47.723557 -122.259293 4,775 285 170 -1152
2019-01-10 10:24:13 GMT 47.722141 -122.251213 4,875 285 171 -768
2019-01-10 10:24:07 GMT 47.720901 -122.244049 4,950 285 175 0
2019-01-10 10:24:04 GMT 47.720901 -122.244049 4,950 285 173 -320
2019-01-10 10:24:00 GMT 47.720032 -122.238968 4,950 285 175 0
2019-01-10 10:23:57 GMT 47.719299 -122.234917 4,950 285 176 0
2019-01-10 10:23:54 GMT 47.718788 -122.231773 4,950 285 177 64
2019-01-10 10:23:50 GMT 47.717628 -122.224945 4,950 284 180 0
2019-01-10 10:23:47 GMT 47.717300 -122.223038 4,950 284 181 -64
2019-01-10 10:23:44 GMT 47.716694 -122.219376 4,950 284 182 -64
2019-01-10 10:23:41 GMT 47.715958 -122.214867 4,950 285 188 -64
2019-01-10 10:23:38 GMT 47.715683 -122.213356 4,950 285 185 0
2019-01-10 10:23:34 GMT 47.714787 -122.208038 4,950 285 189 0
2019-01-10 10:23:30 GMT 47.713623 -122.201775 4,950 290 193 64
2019-01-10 10:23:27 GMT 47.713211 -122.199829 4,950 290 193 64
2019-01-10 10:23:23 GMT 47.711620 -122.193672 4,950 300 197 64
2019-01-10 10:23:20 GMT 47.710270 -122.190155 4,950 305 199 64
2019-01-10 10:23:17 GMT 47.708908 -122.187332 4,950 314 203 0
2019-01-10 10:23:14 GMT 47.707012 -122.184380 4,950 321 205 0
2019-01-10 10:23:11 GMT 47.703278 -122.180122 4,950 332 209 64
2019-01-10 10:23:07 GMT 47.697601 -122.176071 4,950 342 214 -64
2019-01-10 10:23:02 GMT 47.696091 -122.175316 4,950 343 215 -64
2019-01-10 10:22:57 GMT 47.690643 -122.172844 4,950 344 216 0
2019-01-10 10:22:52 GMT 47.687988 -122.171677 4,950 344 216 -64
2019-01-10 10:22:49 GMT 47.681129 -122.168602 4,950 344 217 -64
2019-01-10 10:22:46 GMT 47.681129 -122.168602 4,950 344 217 -64
2019-01-10 10:22:43 GMT 47.678707 -122.167549 4,950 344 219 -64
2019-01-10 10:22:40 GMT 47.674118 -122.165497 4,950 344 221 -64
2019-01-10 10:22:36 GMT 47.672104 -122.164604 4,950 344 221 -64
2019-01-10 10:22:32 GMT 47.667488 -122.162613 4,975 345 221 -128
2019-01-10 10:22:28 GMT 47.664001 -122.161240 4,975 346 221 320
2019-01-10 10:22:25 GMT 47.659298 -122.159592 4,950 350 226 -64
2019-01-10 10:22:19 GMT 47.653839 -122.158287 4,950 357 232 -128
2019-01-10 10:22:16 GMT 47.651047 -122.158012 4,950 0 236 -256
2019-01-10 10:22:12 GMT 47.646496 -122.158112 4,975 3 239 -384
2019-01-10 10:22:06 GMT 47.634392 -122.159233 5,050 4 242 -704
2019-01-10 10:22:01 GMT 47.634392 -122.159233 5,075 4 242 -896
2019-01-10 10:21:55 GMT 47.627472 -122.159935 5,200 3 245 -1344
2019-01-10 10:21:51 GMT 47.623451 -122.160362 5,275 3 245 -1600
2019-01-10 10:21:47 GMT 47.618179 -122.160896 5,425 4 245 -1984
2019-01-10 10:21:44 GMT 47.610973 -122.161697 5,575 4 244 -2176
2019-01-10 10:21:39 GMT 47.610973 -122.161697 5,650 4 244 -2048
2019-01-10 10:21:36 GMT 47.606873 -122.162132 5,750 4 244 -1856
2019-01-10 10:21:33 GMT 47.603348 -122.162544 5,850 4 245 -1728
2019-01-10 10:21:30 GMT 47.599243 -122.162971 5,950 4 246 -1600
2019-01-10 10:21:26 GMT 47.594604 -122.163506 6,050 4 246 -1536
2019-01-10 10:21:23 GMT 47.591934 -122.163811 6,125 4 247 -1600
2019-01-10 10:21:19 GMT 47.586731 -122.164398 6,225 4 249 -1408
2019-01-10 10:21:15 GMT 47.581600 -122.165009 6,325 4 251 -1472
2019-01-10 10:21:12 GMT 47.579784 -122.165154 6,375 4 251 -1600
2019-01-10 10:21:09 GMT 47.575687 -122.165642 6,475 4 252 -1728
2019-01-10 10:21:02 GMT 47.567596 -122.166527 6,675 4 253 -1920
2019-01-10 10:20:57 GMT 47.561829 -122.167282 6,825 4 252 -2112
2019-01-10 10:20:53 GMT 47.556381 -122.167969 6,975 4 252 -2048
2019-01-10 10:20:50 GMT 47.554504 -122.168175 7,025 4 252 -1984
2019-01-10 10:20:47 GMT 47.549759 -122.168739 7,175 4 253 -1536
2019-01-10 10:20:43 GMT 47.545258 -122.169273 7,275 4 255 -1408
2019-01-10 10:20:40 GMT 47.542191 -122.169548 7,325 4 256 -1344
2019-01-10 10:20:36 GMT 47.537979 -122.170013 7,400 4 257 -1408
2019-01-10 10:20:33 GMT 47.529968 -122.170853 7,575 4 259 -1472
2019-01-10 10:20:26 GMT 47.524933 -122.171471 7,675 4 261 -1536
2019-01-10 10:20:20 GMT 47.517517 -122.172226 7,850 3 263 -1792
2019-01-10 10:20:16 GMT 47.512516 -122.172760 7,975 3 263 -1664
2019-01-10 10:20:11 GMT 47.507217 -122.173256 8,150 3 264 -1792
2019-01-10 10:20:08 GMT 47.504883 -122.173462 8,150 3 264 -1792
2019-01-10 10:20:04 GMT 47.499065 -122.174095 8,275 3 265 -1728
2019-01-10 10:20:01 GMT 47.493942 -122.174591 8,400 3 265 -1856
2019-01-10 10:19:58 GMT 47.486309 -122.175362 8,550 4 265 -1728
2019-01-10 10:19:55 GMT 47.486309 -122.175362 8,600 4 266 -1600
2019-01-10 10:19:48 GMT 47.478653 -122.176208 8,775 4 267 -1728
2019-01-10 10:19:44 GMT 47.473785 -122.176704 8,900 4 267 -1728
2019-01-10 10:19:38 GMT 47.466244 -122.177544 9,050 4 268 -1728
2019-01-10 10:19:33 GMT 47.459702 -122.178268 9,225 4 269 -1856
2019-01-10 10:19:27 GMT 47.447159 -122.179733 9,425 4 271 -1216
2019-01-10 10:19:22 GMT 47.447159 -122.179733 9,475 4 273 -1152
2019-01-10 10:19:18 GMT 47.441479 -122.180367 9,550 4 276 -512
2019-01-10 10:19:15 GMT 47.437225 -122.180809 9,575 4 278 -320
2019-01-10 10:19:12 GMT 47.433846 -122.181206 9,575 4 279 -320
2019-01-10 10:19:05 GMT 47.425556 -122.182121 9,625 3 282 -64
2019-01-10 10:19:02 GMT 47.420250 -122.182686 9,625 3 281 0
2019-01-10 10:18:57 GMT 47.414433 -122.183319 9,625 3 284 -192
2019-01-10 10:18:54 GMT 47.405445 -122.183884 9,650 0 288 -192
2019-01-10 10:18:50 GMT 47.405445 -122.183884 9,650 359 288 -320
2019-01-10 10:18:46 GMT 47.399231 -122.183556 9,675 353 287 -576
2019-01-10 10:18:43 GMT 47.395115 -122.182686 9,725 348 286 -832
2019-01-10 10:18:36 GMT 47.387650 -122.179642 9,825 335 282 -704
2019-01-10 10:18:33 GMT 47.378723 -122.172981 9,875 328 280 -576
2019-01-10 10:18:26 GMT 47.374649 -122.168587 9,900 318 277 -576
2019-01-10 10:18:22 GMT 47.371994 -122.165016 9,925 316 277 -640
2019-01-10 10:18:18 GMT 47.368835 -122.159798 9,950 309 274 -256
2019-01-10 10:18:13 GMT 47.364670 -122.151558 9,975 304 273 -256
2019-01-10 10:18:10 GMT 47.362015 -122.145714 10,000 304 273 -320
2019-01-10 10:18:06 GMT 47.358990 -122.139091 10,025 304 274 -640
2019-01-10 10:18:03 GMT 47.357208 -122.135147 10,125 304 275 -1024
2019-01-10 10:17:58 GMT 47.354660 -122.129585 10,125 304 275 -1152
2019-01-10 10:17:52 GMT 47.349770 -122.118813 10,275 304 277 -1216
2019-01-10 10:17:49 GMT 47.348003 -122.114937 10,300 304 278 -1152
2019-01-10 10:17:45 GMT 47.344322 -122.106842 10,400 304 279 -1216
2019-01-10 10:17:41 GMT 47.340866 -122.099236 10,450 304 279 -1280
2019-01-10 10:17:38 GMT 47.339218 -122.095596 10,575 304 279 -1344
2019-01-10 10:17:31 GMT 47.333290 -122.082474 10,775 304 280 -1664
2019-01-10 10:17:25 GMT 47.330639 -122.076553 10,850 304 280 -1792
2019-01-10 10:17:21 GMT 47.326904 -122.068199 11,000 304 280 -1728
2019-01-10 10:17:17 GMT 47.323975 -122.061676 11,125 304 281 -1664
2019-01-10 10:17:11 GMT 47.320633 -122.054123 11,325 304 281 -1728
2019-01-10 10:17:08 GMT 47.318161 -122.048668 11,450 304 282 -1472
2019-01-10 10:17:05 GMT 47.314857 -122.041275 11,500 304 282 -1600
2019-01-10 10:16:59 GMT 47.311340 -122.033455 11,650 304 285 -1216
2019-01-10 10:16:56 GMT 47.309502 -122.029373 11,650 304 285 -1088
2019-01-10 10:16:53 GMT 47.306580 -122.022812 11,725 304 287 -768
2019-01-10 10:16:47 GMT 47.303604 -122.016289 11,750 304 290 -704
2019-01-10 10:16:44 GMT 47.300720 -122.009834 11,800 304 294 -640
2019-01-10 10:16:41 GMT 47.298889 -122.005852 11,850 304 297 -512
2019-01-10 10:16:38 GMT 47.295769 -121.998878 11,850 304 297 -512
2019-01-10 10:16:32 GMT 47.291206 -121.988876 11,950 304 307 -192
2019-01-10 10:16:26 GMT 47.287159 -121.979935 11,950 304 307 -320
2019-01-10 10:16:23 GMT 47.284332 -121.973717 11,950 304 311 0
2019-01-10 10:16:20 GMT 47.282688 -121.970146 11,950 304 315 0
2019-01-10 10:16:17 GMT 47.279068 -121.962250 11,950 304 325 0
2019-01-10 10:16:14 GMT 47.276779 -121.957237 11,950 304 321 64
2019-01-10 10:16:11 GMT 47.273300 -121.949615 11,950 304 321 64
2019-01-10 10:16:06 GMT 47.270679 -121.943802 11,950 304 330 -64
2019-01-10 10:16:02 GMT 47.267235 -121.936340 11,950 304 334 0
2019-01-10 10:15:59 GMT 47.264160 -121.929512 11,950 304 337 0
2019-01-10 10:15:56 GMT 47.261696 -121.924156 11,950 304 341 0
2019-01-10 10:15:52 GMT 47.253571 -121.906357 11,950 304 350 -64
2019-01-10 10:15:47 GMT 47.251373 -121.901550 11,975 304 356 -192
2019-01-10 10:15:40 GMT 47.248333 -121.894791 11,975 304 360 -448
2019-01-10 10:15:37 GMT 47.244965 -121.887405 12,000 304 361 -576
2019-01-10 10:15:34 GMT 47.242630 -121.882256 12,075 304 361 -896
2019-01-10 10:15:31 GMT 47.238235 -121.872643 12,125 304 361 -1152
2019-01-10 10:15:25 GMT 47.230637 -121.856026 12,275 304 359 -1536
2019-01-10 10:15:22 GMT 47.230637 -121.856026 12,325 305 360 -1792
2019-01-10 10:15:19 GMT 47.226734 -121.847603 12,425 305 362 -2112
2019-01-10 10:15:13 GMT 47.222763 -121.838928 12,600 304 363 -2560
2019-01-10 10:15:10 GMT 47.217468 -121.827393 12,850 304 363 -2560
2019-01-10 10:15:04 GMT 47.214024 -121.819786 13,050 304 366 -2176
2019-01-10 10:15:01 GMT 47.211227 -121.813728 13,050 304 366 -2176
2019-01-10 10:14:58 GMT 47.208023 -121.806725 13,225 304 368 -2432
2019-01-10 10:14:52 GMT 47.201828 -121.793098 13,500 304 369 -2496
2019-01-10 10:14:49 GMT 47.200897 -121.790985 13,750 304 371 -2496
2019-01-10 10:14:46 GMT 47.197918 -121.784576 13,750 304 371 -2496
2019-01-10 10:14:43 GMT 47.194061 -121.776100 13,825 304 373 -2368
2019-01-10 10:14:39 GMT 47.189438 -121.766006 14,025 304 374 -2304
2019-01-10 10:14:36 GMT 47.186050 -121.758591 14,150 304 377 -2624
2019-01-10 10:14:32 GMT 47.182663 -121.751106 14,200 304 376 -2560
2019-01-10 10:14:29 GMT 47.180649 -121.746643 14,400 304 377 -2752
2019-01-10 10:14:26 GMT 47.178131 -121.741150 14,525 304 377 -3072
2019-01-10 10:14:20 GMT 47.171383 -121.726334 14,850 304 377 -3136
2019-01-10 10:14:17 GMT 47.164948 -121.712173 15,125 304 377 -2752
2019-01-10 10:14:14 GMT 47.164948 -121.712173 15,200 304 377 -2816
2019-01-10 10:14:11 GMT 47.162445 -121.706757 15,500 304 378 -2816
2019-01-10 10:14:08 GMT 47.159683 -121.700706 15,500 304 378 -2816
2019-01-10 10:14:03 GMT 47.154251 -121.688866 15,725 304 379 -2688
2019-01-10 10:14:00 GMT 47.153275 -121.686752 15,775 304 379 -2624
2019-01-10 10:13:57 GMT 47.149796 -121.679214 15,925 305 380 -2688
2019-01-10 10:13:53 GMT 47.146271 -121.671524 16,025 305 380 -2688
2019-01-10 10:13:49 GMT 47.140381 -121.658798 16,350 305 381 -2560
2019-01-10 10:13:46 GMT 47.138935 -121.655556 16,400 305 382 -2368
2019-01-10 10:13:43 GMT 47.135513 -121.648178 17,325 304 384 -2880
2019-01-10 10:13:39 GMT 47.128136 -121.632103 16,775 304 384 -2560
2019-01-10 10:13:36 GMT 47.128136 -121.632103 16,825 304 384 -2560
2019-01-10 10:13:32 GMT 47.125168 -121.625725 16,975 304 384 -2944
2019-01-10 10:13:28 GMT 47.121048 -121.616661 17,150 304 383 -3200
2019-01-10 10:13:21 GMT 47.110912 -121.594566 18,000 305 387 -2048
2019-01-10 10:13:18 GMT 47.109936 -121.592453 17,775 304 381 -2688
2019-01-10 10:13:12 GMT 47.105419 -121.582596 17,875 304 381 -2688
2019-01-10 10:13:07 GMT 47.100807 -121.572456 18,250 304 380 -3328
2019-01-10 10:13:04 GMT 47.097107 -121.564476 18,425 305 378 -3520
2019-01-10 10:13:00 GMT 47.093639 -121.556892 18,625 305 378 -3456
2019-01-10 10:12:55 GMT 47.088474 -121.545692 18,850 305 376 -3072
2019-01-10 10:12:50 GMT 47.083305 -121.534492 19,100 305 378 -1792
2019-01-10 10:12:47 GMT 47.080673 -121.528908 19,175 305 379 -1728
2019-01-10 10:12:44 GMT 47.077301 -121.521538 19,300 305 381 -1664
2019-01-10 10:12:41 GMT 47.075363 -121.517372 19,300 305 381 -1664
2019-01-10 10:12:36 GMT 47.069321 -121.504326 19,525 304 384 -1856
2019-01-10 10:12:31 GMT 47.064835 -121.494644 19,650 305 386 -1920
2019-01-10 10:12:27 GMT 47.059433 -121.482903 19,850 305 387 -2048
2019-01-10 10:12:23 GMT 47.057007 -121.477684 19,875 305 387 -2048
2019-01-10 10:12:19 GMT 47.050598 -121.463814 20,125 305 388 -1984
2019-01-10 10:12:16 GMT 47.046249 -121.454475 20,375 305 388 -1920
2019-01-10 10:12:13 GMT 47.046249 -121.454475 20,325 305 388 -1920
2019-01-10 10:12:10 GMT 47.044144 -121.449875 20,350 304 388 -1920
2019-01-10 10:12:05 GMT 47.039173 -121.439072 20,575 305 387 -1856
2019-01-10 10:12:02 GMT 47.034622 -121.429207 20,650 305 387 -1792
2019-01-10 10:11:59 GMT 47.033112 -121.425980 20,675 305 387 -1792
2019-01-10 10:11:56 GMT 47.029118 -121.417374 20,825 305 387 -1664
2019-01-10 10:11:53 GMT 47.026566 -121.411835 21,225 305 386 -1984
2019-01-10 10:11:50 GMT 47.022926 -121.403923 21,000 305 386 -1856
2019-01-10 10:11:42 GMT 47.015293 -121.387520 21,200 305 386 -1984
2019-01-10 10:11:39 GMT 47.012451 -121.381462 21,325 305 386 -1984
2019-01-10 10:11:31 GMT 47.003750 -121.362587 21,600 305 387 -1792
2019-01-10 10:11:27 GMT 47.001419 -121.357590 21,650 305 387 -1728
2019-01-10 10:11:21 GMT 46.994751 -121.343170 21,875 305 387 -1664
2019-01-10 10:11:18 GMT 46.991318 -121.335823 21,950 305 387 -1664
2019-01-10 10:11:12 GMT 46.985687 -121.323570 22,175 305 388 -1856
2019-01-10 10:11:09 GMT 46.981613 -121.314812 22,175 305 388 -1856
2019-01-10 10:11:06 GMT 46.979462 -121.310280 22,300 305 388 -1920
2019-01-10 10:11:02 GMT 46.975304 -121.301247 22,450 305 389 -1984
2019-01-10 10:10:59 GMT 46.971497 -121.293114 22,575 305 390 -1984
2019-01-10 10:10:55 GMT 46.968788 -121.287300 22,650 305 391 -1920
2019-01-10 10:10:51 GMT 46.964600 -121.278358 22,825 305 393 -1856
2019-01-10 10:10:48 GMT 46.960876 -121.270386 22,950 305 393 -1856
2019-01-10 10:10:45 GMT 46.957306 -121.262695 23,000 305 394 -1792
2019-01-10 10:10:41 GMT 46.953827 -121.255211 23,100 305 395 -1792
2019-01-10 10:10:37 GMT 46.950073 -121.247162 23,225 305 396 -1792
2019-01-10 10:10:34 GMT 46.947094 -121.240753 23,300 305 396 -1792
2019-01-10 10:10:31 GMT 46.943436 -121.232895 23,450 305 398 -1856
2019-01-10 10:10:28 GMT 46.940735 -121.227127 23,500 305 398 -1856
2019-01-10 10:10:25 GMT 46.937714 -121.220673 23,575 305 400 -1920
2019-01-10 10:10:21 GMT 46.932571 -121.209625 23,775 305 401 -1984
2019-01-10 10:10:18 GMT 46.930023 -121.204124 23,825 305 401 -1984
2019-01-10 10:10:14 GMT 46.925262 -121.193916 23,975 305 402 -1984
2019-01-10 10:10:08 GMT 46.918945 -121.180298 24,175 305 405 -1920
2019-01-10 10:10:05 GMT 46.914135 -121.170044 24,250 305 405 -1856
2019-01-10 10:10:02 GMT 46.914135 -121.170044 24,300 305 406 -1856
2019-01-10 10:09:59 GMT 46.909790 -121.160660 24,425 305 407 -1856
2019-01-10 10:09:55 GMT 46.905441 -121.151321 24,550 305 408 -1920
2019-01-10 10:09:52 GMT 46.903473 -121.147156 24,625 305 410 -1920
2019-01-10 10:09:48 GMT 46.898865 -121.137299 24,800 305 411 -1920
2019-01-10 10:09:45 GMT 46.895420 -121.129974 24,825 305 413 -1984
2019-01-10 10:09:42 GMT 46.891617 -121.121796 24,975 305 413 -2048
2019-01-10 10:09:37 GMT 46.886124 -121.110054 25,200 305 415 -1984
2019-01-10 10:09:34 GMT 46.882736 -121.102913 25,250 305 415 -1920
2019-01-10 10:09:30 GMT 46.879715 -121.096458 25,350 305 416 -1792
2019-01-10 10:09:26 GMT 46.872471 -121.081024 25,450 305 416 -1600
2019-01-10 10:09:23 GMT 46.870239 -121.076271 25,575 305 417 -1216
2019-01-10 10:09:20 GMT 46.868729 -121.073044 25,600 305 417 -1024
2019-01-10 10:09:16 GMT 46.862961 -121.060692 25,775 305 418 -1024
2019-01-10 10:09:13 GMT 46.860458 -121.055466 25,725 305 419 -1024
2019-01-10 10:09:10 GMT 46.856735 -121.047569 25,775 305 420 -1024
2019-01-10 10:09:05 GMT 46.851562 -121.036446 25,900 305 421 -1024
2019-01-10 10:09:02 GMT 46.848267 -121.029411 25,925 305 421 -1024
2019-01-10 10:08:58 GMT 46.844971 -121.022377 25,975 305 421 -1088
2019-01-10 10:08:53 GMT 46.838699 -121.009048 26,050 305 421 -960
2019-01-10 10:08:50 GMT 46.835037 -121.001274 26,125 305 421 -960
2019-01-10 10:08:46 GMT 46.830643 -120.991898 26,150 305 421 -896
2019-01-10 10:08:42 GMT 46.825928 -120.981850 26,325 305 421 -896
2019-01-10 10:08:39 GMT 46.824104 -120.978012 26,275 305 420 -896
2019-01-10 10:08:36 GMT 46.819168 -120.967438 26,325 305 421 -896
2019-01-10 10:08:32 GMT 46.814327 -120.957138 26,400 305 422 -960
2019-01-10 10:08:29 GMT 46.811600 -120.951431 26,450 305 422 -960
2019-01-10 10:08:26 GMT 46.809902 -120.947800 26,525 305 422 -1088
2019-01-10 10:08:22 GMT 46.803806 -120.934891 26,550 305 422 -1088
2019-01-10 10:08:19 GMT 46.800476 -120.927719 26,625 305 423 -1024
2019-01-10 10:08:16 GMT 46.797684 -120.921890 26,675 305 424 -1024
2019-01-10 10:08:13 GMT 46.792866 -120.911613 26,725 305 424 -1024
2019-01-10 10:08:10 GMT 46.790630 -120.906944 26,775 305 425 -1024
2019-01-10 10:08:04 GMT 46.784393 -120.893692 26,900 305 428 -960
2019-01-10 10:08:01 GMT 46.780838 -120.886253 26,875 305 427 -960
2019-01-10 10:07:58 GMT 46.776760 -120.877556 26,975 305 428 -960
2019-01-10 10:07:53 GMT 46.768387 -120.859924 27,125 305 427 -896
2019-01-10 10:07:50 GMT 46.768387 -120.859924 27,100 305 428 -896
2019-01-10 10:07:46 GMT 46.764423 -120.851463 27,125 305 427 -896
2019-01-10 10:07:43 GMT 46.761200 -120.844719 27,200 305 427 -960
2019-01-10 10:07:37 GMT 46.748829 -120.818642 27,350 305 425 -1024
2019-01-10 10:07:33 GMT 46.748829 -120.818642 27,400 305 425 -1152
2019-01-10 10:07:29 GMT 46.744267 -120.809029 27,450 305 424 -1152
2019-01-10 10:07:26 GMT 46.741974 -120.804192 27,475 305 424 -1216
2019-01-10 10:07:22 GMT 46.736526 -120.792671 27,575 305 423 -1152
2019-01-10 10:07:19 GMT 46.733791 -120.786919 27,625 305 422 -1088
2019-01-10 10:07:15 GMT 46.729111 -120.776993 28,125 305 401 -1024
2019-01-10 10:07:10 GMT 46.724945 -120.768150 27,750 305 417 -960
2019-01-10 10:07:07 GMT 46.721268 -120.760414 27,875 305 402 -1088
2019-01-10 10:07:04 GMT 46.717758 -120.752945 27,850 305 411 -896
2019-01-10 10:07:01 GMT 46.710190 -120.737000 27,975 305 404 0
2019-01-10 10:06:57 GMT 46.710190 -120.737000 27,975 305 405 -1088
2019-01-10 10:06:54 GMT 46.704300 -120.724541 28,075 305 402 -1088
2019-01-10 10:06:51 GMT 46.699860 -120.715225 28,150 305 399 -1024
2019-01-10 10:06:47 GMT 46.699860 -120.715225 28,150 305 399 -1024
2019-01-10 10:06:44 GMT 46.696014 -120.707054 28,225 305 391 -832
2019-01-10 10:06:40 GMT 46.691105 -120.696625 28,275 305 392 -896
2019-01-10 10:06:36 GMT 46.686813 -120.687698 28,350 305 388 -832
2019-01-10 10:06:32 GMT 46.684631 -120.683029 28,425 305 380 -832
2019-01-10 10:06:29 GMT 46.680542 -120.674431 28,425 305 381 -704
2019-01-10 10:06:24 GMT 46.676239 -120.665321 28,475 305 380 -832
2019-01-10 10:06:21 GMT 46.673538 -120.659691 28,500 305 380 -896
2019-01-10 10:06:18 GMT 46.670155 -120.652611 28,550 305 380 -960
2019-01-10 10:06:15 GMT 46.666122 -120.644150 29,000 305 380 -960
2019-01-10 10:06:12 GMT 46.663513 -120.638657 28,675 305 380 -960
2019-01-10 10:06:07 GMT 46.658981 -120.629211 28,725 305 381 -960
2019-01-10 10:06:01 GMT 46.652603 -120.615875 28,850 305 382 -1024
2019-01-10 10:05:56 GMT 46.646461 -120.602966 28,950 305 384 -1024
2019-01-10 10:05:51 GMT 46.641586 -120.592705 29,125 305 384 -1024
2019-01-10 10:05:48 GMT 46.639385 -120.588135 29,175 305 387 -1088
2019-01-10 10:05:43 GMT 46.634216 -120.577286 29,175 305 385 -1088
2019-01-10 10:05:39 GMT 46.631607 -120.571869 29,225 305 387 -1088
2019-01-10 10:05:35 GMT 46.625610 -120.559341 29,325 305 387 -1088
2019-01-10 10:05:30 GMT 46.620579 -120.548790 29,425 305 387 -1024
2019-01-10 10:05:26 GMT 46.617924 -120.543228 29,450 305 387 -960
2019-01-10 10:05:22 GMT 46.612709 -120.532310 29,525 305 387 -896
2019-01-10 10:05:19 GMT 46.609032 -120.524620 29,600 305 387 -896
2019-01-10 10:05:14 GMT 46.604004 -120.514183 29,650 305 388 -896
2019-01-10 10:05:11 GMT 46.602036 -120.510040 29,700 305 388 -896
2019-01-10 10:05:08 GMT 46.599884 -120.505547 29,725 305 387 -896
2019-01-10 10:05:05 GMT 46.596786 -120.499008 29,775 305 388 -896
2019-01-10 10:05:02 GMT 46.591763 -120.488503 29,850 305 388 -960
2019-01-10 10:04:59 GMT 46.588829 -120.482254 29,900 305 391 -960
2019-01-10 10:04:52 GMT 46.583103 -120.470238 30,025 306 394 -960
2019-01-10 10:04:49 GMT 46.580154 -120.464081 30,025 306 394 -960
2019-01-10 10:04:44 GMT 46.573837 -120.451286 30,125 307 395 -960
2019-01-10 10:04:41 GMT 46.567612 -120.439362 30,200 308 397 -1024
2019-01-10 10:04:38 GMT 46.567612 -120.439362 30,300 310 402 -1088
2019-01-10 10:04:32 GMT 46.562119 -120.429314 30,300 310 400 -1024
2019-01-10 10:04:29 GMT 46.556801 -120.419838 30,375 310 401 -1088
2019-01-10 10:04:26 GMT 46.552963 -120.413101 30,450 310 403 -1088
2019-01-10 10:04:20 GMT 46.546837 -120.402397 30,525 310 404 -1088
2019-01-10 10:04:16 GMT 46.542252 -120.394348 30,600 310 404 -1088
2019-01-10 10:04:12 GMT 46.536942 -120.384972 30,675 310 405 -1024
2019-01-10 10:04:08 GMT 46.532082 -120.376442 30,900 310 407 -1024
2019-01-10 10:04:04 GMT 46.526634 -120.366760 30,825 310 407 -1152
2019-01-10 10:04:00 GMT 46.522614 -120.359650 30,925 310 407 -1152
2019-01-10 10:03:54 GMT 46.516022 -120.347946 30,975 310 408 -1088
2019-01-10 10:03:51 GMT 46.511318 -120.339706 31,050 310 408 -1088
2019-01-10 10:03:48 GMT 46.508881 -120.335396 31,100 310 408 -1088
2019-01-10 10:03:45 GMT 46.503845 -120.326485 31,175 310 409 -1088
2019-01-10 10:03:39 GMT 46.498981 -120.317940 31,250 310 409 -1088
2019-01-10 10:03:36 GMT 46.493721 -120.308601 31,850 310 407 -1024
2019-01-10 10:03:33 GMT 46.491207 -120.304207 31,350 310 408 -1024
2019-01-10 10:03:29 GMT 46.486275 -120.295486 31,425 310 408 -1024
2019-01-10 10:03:26 GMT 46.482224 -120.288277 31,500 310 408 -1024
2019-01-10 10:03:23 GMT 46.478943 -120.282471 31,525 310 408 -1024
2019-01-10 10:03:19 GMT 46.473907 -120.273567 31,600 310 407 -1024
2019-01-10 10:03:16 GMT 46.470863 -120.268227 31,650 310 407 -1024
2019-01-10 10:03:13 GMT 46.466022 -120.259506 31,725 310 406 -1024
2019-01-10 10:03:08 GMT 46.461136 -120.250854 31,825 310 405 -960
2019-01-10 10:03:05 GMT 46.456062 -120.241859 31,850 309 405 -896
2019-01-10 10:03:02 GMT 46.453033 -120.236450 31,900 310 404 -896
2019-01-10 10:02:56 GMT 46.446442 -120.224731 32,000 310 404 -1024
2019-01-10 10:02:52 GMT 46.441360 -120.215752 32,025 310 404 -960
2019-01-10 10:02:47 GMT 46.435856 -120.206017 32,125 310 405 -896
2019-01-10 10:02:42 GMT 46.430737 -120.197021 32,225 310 408 -896
2019-01-10 10:02:37 GMT 46.422451 -120.182465 32,225 310 408 -896
2019-01-10 10:02:34 GMT 46.420715 -120.179375 32,325 310 410 -896
2019-01-10 10:02:30 GMT 46.414398 -120.168251 32,350 310 411 -896
2019-01-10 10:02:26 GMT 46.410484 -120.161453 32,450 310 413 -960
2019-01-10 10:02:23 GMT 46.407833 -120.156784 32,475 310 414 -1024
2019-01-10 10:02:20 GMT 46.401642 -120.145866 32,575 310 417 -960
2019-01-10 10:02:13 GMT 46.391556 -120.128059 32,725 310 421 -896
2019-01-10 10:02:07 GMT 46.386700 -120.119499 32,750 310 421 -896
2019-01-10 10:02:04 GMT 46.384277 -120.115173 32,775 310 422 -896
2019-01-10 10:02:01 GMT 46.379471 -120.106827 32,850 310 424 -960
2019-01-10 10:01:56 GMT 46.373665 -120.096634 32,925 310 425 -1024
2019-01-10 10:01:52 GMT 46.368713 -120.088005 32,950 310 426 -1024
2019-01-10 10:01:49 GMT 46.366104 -120.083382 33,025 310 427 -1024
2019-01-10 10:01:45 GMT 46.360023 -120.072670 33,100 310 429 -960
2019-01-10 10:01:40 GMT 46.353012 -120.060402 33,175 310 431 -896
2019-01-10 10:01:34 GMT 46.345917 -120.048157 33,275 310 433 -960
2019-01-10 10:01:31 GMT 46.342052 -120.041496 33,325 311 435 -1024
2019-01-10 10:01:25 GMT 46.333420 -120.026642 33,425 310 438 -1024
2019-01-10 10:01:22 GMT 46.330135 -120.020966 33,475 310 438 -1088
2019-01-10 10:01:19 GMT 46.326965 -120.015450 33,525 310 438 -1088
2019-01-10 10:01:14 GMT 46.319897 -120.003181 33,625 310 440 -1152
2019-01-10 10:01:09 GMT 46.314075 -119.992950 33,750 310 441 -1088
2019-01-10 10:01:03 GMT 46.306023 -119.978943 33,825 310 441 -1088
2019-01-10 10:00:59 GMT 46.300808 -119.969879 33,900 310 441 -1088
2019-01-10 10:00:50 GMT 46.286407 -119.944847 34,075 310 441 -1088
2019-01-10 10:00:38 GMT 46.274231 -119.923538 34,250 310 439 -960
2019-01-10 10:00:35 GMT 46.271027 -119.917915 34,525 310 436 -960
2019-01-10 10:00:32 GMT 46.264984 -119.907333 34,375 310 436 -960
2019-01-10 10:00:28 GMT 46.260361 -119.899223 34,425 310 434 -1024
2019-01-10 10:00:20 GMT 46.250580 -119.882057 34,550 310 434 -896
2019-01-10 10:00:17 GMT 46.247223 -119.876183 34,600 310 432 -896
2019-01-10 10:00:12 GMT 46.240059 -119.863586 34,625 310 432 -896
2019-01-10 10:00:09 GMT 46.237221 -119.858711 34,725 310 431 -896
2019-01-10 10:00:06 GMT 46.224472 -119.836594 34,825 310 430 -1024
2019-01-10 10:00:00 GMT 46.224472 -119.836594 34,875 310 430 -1024
2019-01-10 09:59:57 GMT 46.219158 -119.827469 34,950 310 429 -896
2019-01-10 09:59:54 GMT 46.216690 -119.823189 34,975 310 429 -832
2019-01-10 09:59:48 GMT 46.210327 -119.812202 35,050 310 429 -832
2019-01-10 09:59:43 GMT 46.203423 -119.800209 35,125 310 429 -832
2019-01-10 09:59:39 GMT 46.197098 -119.789360 35,200 310 429 -832
2019-01-10 09:59:34 GMT 46.191460 -119.779541 35,250 310 430 -896
2019-01-10 09:59:27 GMT 46.184242 -119.766975 35,350 310 430 -960
2019-01-10 09:59:24 GMT 46.178890 -119.757774 35,400 310 430 -960
2019-01-10 09:59:17 GMT 46.170742 -119.743629 35,500 310 430 -832
2019-01-10 09:59:13 GMT 46.165604 -119.734764 35,550 310 430 -832
2019-01-10 09:59:06 GMT 46.156311 -119.718689 35,675 310 431 -1024
2019-01-10 09:59:02 GMT 46.151657 -119.710602 35,925 310 431 -384
2019-01-10 09:58:56 GMT 46.143833 -119.697212 35,850 310 432 -1024
2019-01-10 09:58:52 GMT 46.137909 -119.686935 35,925 310 432 -832
2019-01-10 09:58:45 GMT 46.129211 -119.671928 36,000 310 431 -384
2019-01-10 09:58:40 GMT 46.121429 -119.658531 36,025 310 431 64
2019-01-10 09:58:34 GMT 46.115295 -119.647949 36,000 310 430 0
2019-01-10 09:58:31 GMT 46.111156 -119.640770 36,000 310 430 64
2019-01-10 09:58:18 GMT 46.095142 -119.613098 36,000 310 429 0
2019-01-10 09:58:07 GMT 46.080433 -119.587692 36,000 310 428 0
2019-01-10 09:57:59 GMT 46.070389 -119.570442 36,000 310 426 0
2019-01-10 09:57:47 GMT 46.054783 -119.543610 36,000 310 425 -64
2019-01-10 09:57:35 GMT 46.040955 -119.519852 36,000 310 423 0
2019-01-10 09:57:26 GMT 46.028641 -119.498695 36,000 310 421 0
2019-01-10 09:57:14 GMT 46.015770 -119.476456 36,000 310 420 0
2019-01-10 09:57:04 GMT 46.002598 -119.453796 36,000 310 419 64
2019-01-10 09:56:55 GMT 45.990326 -119.432777 36,000 310 421 0
2019-01-10 09:56:43 GMT 45.977554 -119.410934 36,000 311 423 0
2019-01-10 09:56:32 GMT 45.963593 -119.387291 36,000 311 426 0
2019-01-10 09:56:23 GMT 45.950226 -119.364578 36,000 311 429 0
2019-01-10 09:56:14 GMT 45.938633 -119.344894 36,000 311 432 -64
2019-01-10 09:56:01 GMT 45.923218 -119.318687 36,025 311 433 -64
2019-01-10 09:55:51 GMT 45.908932 -119.294289 36,050 311 436 -192
2019-01-10 09:55:39 GMT 45.895340 -119.271080 36,050 310 437 0
2019-01-10 09:55:30 GMT 45.881561 -119.247681 36,050 311 438 64
2019-01-10 09:55:18 GMT 45.867409 -119.223633 36,050 311 439 64
2019-01-10 09:55:08 GMT 45.853676 -119.200287 36,025 311 440 128
2019-01-10 09:54:57 GMT 45.838943 -119.175201 36,000 311 440 64
2019-01-10 09:54:46 GMT 45.825233 -119.151947 36,000 310 440 64
2019-01-10 09:54:36 GMT 45.811218 -119.128052 36,000 311 440 0
2019-01-10 09:54:25 GMT 45.797440 -119.104706 36,025 311 439 -64
2019-01-10 09:54:15 GMT 45.783009 -119.080261 36,025 311 439 -128
2019-01-10 09:54:04 GMT 45.769043 -119.056763 36,050 311 437 -64
2019-01-10 09:53:53 GMT 45.755543 -119.033913 36,050 311 437 0
2019-01-10 09:53:43 GMT 45.741165 -119.009537 36,050 311 436 0
2019-01-10 09:53:32 GMT 45.727478 -118.986488 36,050 311 436 0
2019-01-10 09:53:21 GMT 45.713879 -118.963188 36,050 309 434 0
2019-01-10 09:53:11 GMT 45.700653 -118.938591 36,050 306 431 0
2019-01-10 09:53:02 GMT 45.689159 -118.915123 36,050 303 428 0
2019-01-10 09:52:59 GMT 45.687622 -118.911827 36,050 304 429 0
2019-01-10 09:52:51 GMT 45.679756 -118.894524 36,050 302 427 0
2019-01-10 09:52:48 GMT 45.676636 -118.887314 36,050 302 427 0
2019-01-10 09:52:39 GMT 45.666348 -118.863556 36,050 302 427 0
2019-01-10 09:52:27 GMT 45.654617 -118.836571 36,050 302 426 0
2019-01-10 09:52:18 GMT 45.644165 -118.812653 36,025 302 425 64
2019-01-10 09:52:07 GMT 45.632923 -118.786858 36,025 303 424 64
2019-01-10 09:51:56 GMT 45.621872 -118.761673 36,025 302 422 64
2019-01-10 09:51:44 GMT 45.610062 -118.734543 36,000 302 421 0
2019-01-10 09:51:34 GMT 45.599316 -118.709953 36,000 303 420 -64
2019-01-10 09:51:23 GMT 45.589050 -118.686707 36,000 302 417 64
2019-01-10 09:51:12 GMT 45.577789 -118.660919 36,000 302 415 0
2019-01-10 09:50:29 GMT 45.532745 -118.557587 36,000 302 414 0
2019-01-10 09:50:13 GMT 45.514938 -118.517174 36,000 303 415 -64
2019-01-10 09:48:54 GMT 45.436100 -118.338028 36,050 303 423 0
2019-01-10 09:48:47 GMT 45.428650 -118.321251 36,050 303 422 0
We lost coverage of the aircraft here for a total of 5 minutes
2019-01-10 09:43:43 GMT 45.107986 -117.605240 35,975 303 435 -64
2019-01-10 09:43:34 GMT 45.097385 -117.581917 35,975 303 434 -64
2019-01-10 09:43:24 GMT 45.086773 -117.558601 36,000 303 432 -64
2019-01-10 09:43:12 GMT 45.074661 -117.531868 36,000 303 431 0
2019-01-10 09:43:03 GMT 45.063965 -117.508362 36,000 303 430 64
2019-01-10 09:42:51 GMT 45.052094 -117.482300 35,975 303 430 64
2019-01-10 09:42:44 GMT 45.042362 -117.460999 35,975 303 429 0
2019-01-10 09:42:41 GMT 45.041199 -117.458382 35,975 303 429 0
2019-01-10 09:42:31 GMT 45.030029 -117.433846 35,950 303 427 64
2019-01-10 09:42:20 GMT 45.018036 -117.407555 35,975 303 427 -128
2019-01-10 09:41:42 GMT 44.976955 -117.317841 35,975 304 422 64
2019-01-10 09:41:33 GMT 44.968369 -117.298935 35,975 303 423 0
2019-01-10 09:41:27 GMT 44.962189 -117.285461 35,975 303 423 64
2019-01-10 09:41:17 GMT 44.951679 -117.262436 35,975 303 422 64
2019-01-10 09:41:05 GMT 44.938736 -117.234573 35,950 304 421 0
2019-01-10 09:40:56 GMT 44.928822 -117.213203 35,950 303 420 0
2019-01-10 09:40:45 GMT 44.917923 -117.189400 35,950 303 420 0
2019-01-10 09:40:42 GMT 44.914261 -117.181351 35,950 303 419 0
2019-01-10 09:40:35 GMT 44.906940 -117.165436 35,950 303 420 0
2019-01-10 09:40:32 GMT 44.903732 -117.158401 35,950 303 418 64
2019-01-10 09:40:24 GMT 44.895397 -117.140251 35,925 303 418 -64
2019-01-10 09:40:21 GMT 44.892231 -117.133347 35,950 303 419 0
2019-01-10 09:40:11 GMT 44.881336 -117.109833 35,950 304 419 0
2019-01-10 09:40:06 GMT 44.873016 -117.091957 35,950 304 419 -64
2019-01-10 09:40:03 GMT 44.873016 -117.091957 35,950 304 419 -64
2019-01-10 09:40:00 GMT 44.870213 -117.085922 35,950 304 419 -64
2019-01-10 09:39:52 GMT 44.860996 -117.066093 35,975 304 419 0
2019-01-10 09:39:49 GMT 44.858734 -117.061226 35,950 304 419 0
2019-01-10 09:39:45 GMT 44.853973 -117.050957 35,950 304 418 -64
2019-01-10 09:39:39 GMT 44.847473 -117.036827 35,975 304 418 -64
2019-01-10 09:39:34 GMT 44.840652 -117.022079 35,975 304 419 -64
2019-01-10 09:39:28 GMT 44.836487 -117.013092 35,975 304 419 -64
2019-01-10 09:39:24 GMT 44.832085 -117.003654 35,975 304 419 -64
2019-01-10 09:39:20 GMT 44.827515 -116.993736 35,975 304 419 -64
2019-01-10 09:39:17 GMT 44.824951 -116.988243 35,975 304 419 -64
2019-01-10 09:39:09 GMT 44.816540 -116.970161 36,000 304 419 0
2019-01-10 09:38:59 GMT 44.805367 -116.945915 35,975 304 419 -64
2019-01-10 09:38:56 GMT 44.802711 -116.940216 36,000 303 420 -64
2019-01-10 09:38:46 GMT 44.791588 -116.916237 36,000 304 419 0
2019-01-10 09:38:38 GMT 44.780369 -116.891983 36,000 304 419 -64
2019-01-10 09:38:27 GMT 44.771851 -116.873604 36,025 304 420 0
2019-01-10 09:38:24 GMT 44.768589 -116.866600 36,025 304 420 0
2019-01-10 09:38:17 GMT 44.760544 -116.849411 36,000 304 420 0
2019-01-10 09:38:13 GMT 44.756378 -116.840515 36,000 304 420 0
2019-01-10 09:38:06 GMT 44.749409 -116.825531 36,000 304 421 0
2019-01-10 09:38:02 GMT 44.745438 -116.816910 36,000 304 421 -64
2019-01-10 09:37:55 GMT 44.738113 -116.801147 36,000 304 421 0
2019-01-10 09:37:52 GMT 44.734268 -116.792908 36,025 304 421 0
2019-01-10 09:37:45 GMT 44.726898 -116.777084 36,025 304 422 0
2019-01-10 09:37:41 GMT 44.722687 -116.768051 36,025 304 422 0
2019-01-10 09:37:34 GMT 44.715660 -116.752914 36,000 304 422 -64
2019-01-10 09:37:31 GMT 44.711796 -116.744675 36,025 304 422 -64
2019-01-10 09:37:24 GMT 44.704285 -116.728752 36,000 304 422 0
2019-01-10 09:37:21 GMT 44.699432 -116.718491 36,025 304 422 64
2019-01-10 09:37:13 GMT 44.692429 -116.703644 36,000 304 423 0
2019-01-10 09:37:10 GMT 44.688847 -116.695908 36,000 304 424 0
2019-01-10 09:37:02 GMT 44.681305 -116.679771 35,975 304 424 192
2019-01-10 09:36:59 GMT 44.677185 -116.671013 35,975 304 424 192
2019-01-10 09:36:52 GMT 44.670177 -116.655983 35,975 304 424 128
2019-01-10 09:36:48 GMT 44.666176 -116.647476 35,975 304 425 64
2019-01-10 09:36:41 GMT 44.658169 -116.630455 35,950 304 426 128
2019-01-10 09:36:37 GMT 44.654343 -116.622292 35,950 304 426 64
2019-01-10 09:36:31 GMT 44.647041 -116.606743 35,950 304 426 0
2019-01-10 09:36:26 GMT 44.642349 -116.596725 35,950 304 426 -64
2019-01-10 09:36:20 GMT 44.635822 -116.582764 35,975 304 426 -128
2019-01-10 09:36:16 GMT 44.631409 -116.573380 35,975 304 426 -128
2019-01-10 09:36:09 GMT 44.623215 -116.555916 36,000 304 426 -128
2019-01-10 09:36:04 GMT 44.617447 -116.543755 36,000 304 425 -64
2019-01-10 09:35:59 GMT 44.612545 -116.533257 36,000 304 426 -64
2019-01-10 09:35:55 GMT 44.608566 -116.524857 36,000 304 426 0
2019-01-10 09:35:48 GMT 44.601048 -116.508873 36,000 304 426 0
2019-01-10 09:35:43 GMT 44.595062 -116.496078 36,000 304 426 0
2019-01-10 09:35:38 GMT 44.590107 -116.485626 36,000 304 426 64
2019-01-10 09:35:34 GMT 44.585453 -116.475708 36,000 304 426 0
2019-01-10 09:35:27 GMT 44.578125 -116.460114 36,000 304 427 0
2019-01-10 09:35:24 GMT 44.574280 -116.451927 36,000 304 427 0
2019-01-10 09:35:17 GMT 44.566692 -116.435783 36,000 304 427 -64
2019-01-10 09:35:13 GMT 44.562408 -116.426743 36,000 304 427 -64
2019-01-10 09:35:06 GMT 44.555660 -116.412476 36,025 304 427 0
2019-01-10 09:35:02 GMT 44.550400 -116.401352 36,025 304 428 0
2019-01-10 09:34:55 GMT 44.543655 -116.387131 36,000 304 429 0
2019-01-10 09:34:51 GMT 44.538620 -116.376541 36,000 304 429 0
2019-01-10 09:34:44 GMT 44.531342 -116.361305 36,000 304 429 0
2019-01-10 09:34:41 GMT 44.527267 -116.352737 36,025 304 429 0
2019-01-10 09:34:35 GMT 44.520840 -116.339188 36,000 304 430 64
2019-01-10 09:34:30 GMT 44.515903 -116.328804 36,000 304 430 0
2019-01-10 09:34:23 GMT 44.508408 -116.312912 36,000 304 430 0
2019-01-10 09:34:19 GMT 44.503613 -116.302811 36,000 304 431 -64
2019-01-10 09:34:13 GMT 44.497421 -116.289818 36,000 304 431 0
2019-01-10 09:34:09 GMT 44.492523 -116.279495 36,000 304 431 0
2019-01-10 09:34:03 GMT 44.485832 -116.265495 36,000 304 430 64
2019-01-10 09:33:58 GMT 44.480335 -116.253906 36,000 304 431 64
2019-01-10 09:33:52 GMT 44.473892 -116.240318 36,000 304 432 64
2019-01-10 09:33:48 GMT 44.469269 -116.230576 36,000 304 432 0
2019-01-10 09:33:42 GMT 44.462555 -116.216530 35,975 304 432 64
2019-01-10 09:33:36 GMT 44.455215 -116.201088 35,975 304 432 64
2019-01-10 09:33:31 GMT 44.450729 -116.191673 35,975 304 432 64
2019-01-10 09:33:26 GMT 44.443840 -116.177269 35,975 304 432 0
2019-01-10 09:33:21 GMT 44.439186 -116.167488 35,975 304 432 -64
2019-01-10 09:33:16 GMT 44.433746 -116.155960 36,000 304 432 -128
2019-01-10 09:33:10 GMT 44.427406 -116.142570 36,000 304 433 -64
2019-01-10 09:33:04 GMT 44.419281 -116.125488 36,000 304 432 -128
2019-01-10 09:33:00 GMT 44.415802 -116.118233 36,000 304 432 -64
2019-01-10 09:32:55 GMT 44.408321 -116.102577 36,000 304 433 0
2019-01-10 09:32:49 GMT 44.403667 -116.092865 36,000 304 433 -64
2019-01-10 09:32:43 GMT 44.395191 -116.075249 36,000 304 433 -64
2019-01-10 09:32:38 GMT 44.392273 -116.069054 36,000 304 433 -64
2019-01-10 09:32:33 GMT 44.383739 -116.051331 36,025 304 433 0
2019-01-10 09:32:27 GMT 44.380142 -116.043747 36,025 304 433 0
2019-01-10 09:32:21 GMT 44.372059 -116.026947 36,000 304 433 64
2019-01-10 09:32:17 GMT 44.368473 -116.019508 36,000 304 434 64
2019-01-10 09:32:10 GMT 44.360275 -116.002480 36,000 304 435 0
2019-01-10 09:32:07 GMT 44.356743 -115.995125 36,000 304 435 -64
2019-01-10 09:32:00 GMT 44.348408 -115.977638 36,025 304 434 -64
2019-01-10 09:31:56 GMT 44.345058 -115.970673 36,025 304 434 -64
2019-01-10 09:31:49 GMT 44.335144 -115.950096 36,025 304 434 0
2019-01-10 09:31:45 GMT 44.333000 -115.945557 36,025 304 434 0
2019-01-10 09:31:38 GMT 44.323689 -115.926262 36,025 304 435 0
2019-01-10 09:31:35 GMT 44.321220 -115.921165 36,025 304 435 0
2019-01-10 09:31:28 GMT 44.313034 -115.903999 36,025 304 437 0
2019-01-10 09:31:24 GMT 44.309647 -115.897064 36,025 304 435 0
2019-01-10 09:31:18 GMT 44.300903 -115.878822 36,025 304 436 0
2019-01-10 09:31:13 GMT 44.297340 -115.871460 36,025 304 436 0
2019-01-10 09:31:07 GMT 44.289322 -115.854820 36,025 304 436 0
2019-01-10 09:31:03 GMT 44.285889 -115.847679 36,025 304 436 0
2019-01-10 09:30:56 GMT 44.276459 -115.828270 36,025 304 436 64
2019-01-10 09:30:53 GMT 44.274017 -115.823227 36,000 304 437 64
2019-01-10 09:30:45 GMT 44.264740 -115.804008 36,000 304 437 0
2019-01-10 09:30:41 GMT 44.261078 -115.796432 36,000 304 437 0
2019-01-10 09:30:34 GMT 44.252426 -115.778572 36,000 304 437 -64
2019-01-10 09:30:31 GMT 44.249634 -115.772751 36,000 304 437 0
2019-01-10 09:30:25 GMT 44.240936 -115.754768 36,000 304 437 -64
2019-01-10 09:30:21 GMT 44.237942 -115.748604 36,025 304 437 -64
2019-01-10 09:30:14 GMT 44.229141 -115.730446 36,025 304 437 -64
2019-01-10 09:30:10 GMT 44.226151 -115.724228 36,025 304 437 -64
2019-01-10 09:30:05 GMT 44.214245 -115.699631 36,050 304 436 -64
2019-01-10 09:30:00 GMT 44.214245 -115.699631 36,050 304 436 -64
2019-01-10 09:29:52 GMT 44.205261 -115.681007 36,050 304 436 -64
2019-01-10 09:29:49 GMT 44.202347 -115.675117 36,050 304 436 -64
2019-01-10 09:29:44 GMT 44.196091 -115.662186 36,050 304 436 0
2019-01-10 09:29:38 GMT 44.190132 -115.649872 36,050 304 436 0
2019-01-10 09:29:32 GMT 44.181519 -115.632149 36,025 304 436 64
2019-01-10 09:29:28 GMT 44.178165 -115.625221 36,050 304 436 64
2019-01-10 09:29:22 GMT 44.171768 -115.612068 36,025 304 436 64
2019-01-10 09:29:17 GMT 44.166061 -115.600304 36,025 304 437 128
2019-01-10 09:29:12 GMT 44.159870 -115.587486 36,000 305 437 128
2019-01-10 09:29:07 GMT 44.154373 -115.576233 36,000 305 437 64
2019-01-10 09:29:01 GMT 44.147953 -115.563026 36,000 305 438 64
2019-01-10 09:28:56 GMT 44.142601 -115.552109 36,000 305 438 64
2019-01-10 09:28:48 GMT 44.131989 -115.530312 35,975 305 438 64
2019-01-10 09:28:45 GMT 44.130157 -115.526604 35,975 305 438 64
2019-01-10 09:28:38 GMT 44.120728 -115.507317 35,975 305 438 64
2019-01-10 09:28:35 GMT 44.111595 -115.488609 35,975 305 437 0
2019-01-10 09:28:29 GMT 44.111595 -115.488609 35,975 305 437 0
2019-01-10 09:28:24 GMT 44.106171 -115.477547 35,975 305 437 -64
2019-01-10 09:28:19 GMT 44.099911 -115.464676 35,975 305 437 0
2019-01-10 09:28:13 GMT 44.093349 -115.451202 35,975 305 435 -64
2019-01-10 09:28:06 GMT 44.083878 -115.431885 35,975 305 435 64
2019-01-10 09:28:03 GMT 44.082642 -115.429329 35,975 305 435 64
2019-01-10 09:27:57 GMT 44.075638 -115.415016 35,975 305 434 0
2019-01-10 09:27:52 GMT 44.070168 -115.403854 35,975 305 434 0
2019-01-10 09:27:47 GMT 44.063972 -115.391167 35,975 305 434 -64
2019-01-10 09:27:42 GMT 44.058762 -115.380508 35,975 305 434 -64
2019-01-10 09:27:35 GMT 44.048656 -115.360039 35,975 305 434 -64
2019-01-10 09:27:31 GMT 44.046341 -115.355362 36,000 305 434 -64
2019-01-10 09:27:25 GMT 44.039673 -115.341667 36,000 305 434 0
2019-01-10 09:27:21 GMT 44.034927 -115.331985 35,975 305 432 0
2019-01-10 09:27:15 GMT 44.027664 -115.317230 35,975 305 433 0
2019-01-10 09:27:10 GMT 44.022449 -115.306549 36,000 305 433 0
2019-01-10 09:27:04 GMT 44.015854 -115.293144 36,000 305 432 0
2019-01-10 09:27:00 GMT 44.010910 -115.283051 36,000 305 432 0
2019-01-10 09:26:54 GMT 44.003906 -115.268875 36,000 305 432 0
2019-01-10 09:26:50 GMT 43.999329 -115.259422 36,000 305 432 0
2019-01-10 09:26:43 GMT 43.992096 -115.244682 36,000 305 433 0
2019-01-10 09:26:39 GMT 43.980148 -115.220520 36,000 305 432 0
2019-01-10 09:26:33 GMT 43.980148 -115.220520 36,000 305 432 0
2019-01-10 09:26:28 GMT 43.975246 -115.210617 36,000 305 432 0
2019-01-10 09:26:22 GMT 43.967751 -115.195572 36,000 305 432 0
2019-01-10 09:26:17 GMT 43.963074 -115.186096 36,000 305 432 0
2019-01-10 09:26:11 GMT 43.955612 -115.171021 36,000 305 432 -64
2019-01-10 09:26:07 GMT 43.951447 -115.162521 36,000 305 432 -64
2019-01-10 09:26:00 GMT 43.943729 -115.146919 36,025 305 431 -64
2019-01-10 09:25:57 GMT 43.939819 -115.138939 36,025 305 431 -64
2019-01-10 09:25:50 GMT 43.932091 -115.123116 36,025 305 431 0
2019-01-10 09:25:46 GMT 43.927689 -115.114105 36,025 305 431 0
2019-01-10 09:25:39 GMT 43.919849 -115.098267 36,025 305 432 0
2019-01-10 09:25:36 GMT 43.915970 -115.090408 36,025 305 432 0
2019-01-10 09:25:29 GMT 43.903507 -115.065178 36,025 305 432 -64
2019-01-10 09:25:24 GMT 43.903507 -115.065178 36,025 305 432 -64
2019-01-10 09:25:18 GMT 43.896294 -115.050591 36,025 305 432 -64
2019-01-10 09:25:14 GMT 43.892166 -115.042313 36,050 305 432 -64
2019-01-10 09:25:07 GMT 43.884331 -115.026466 36,050 305 432 -64
2019-01-10 09:25:04 GMT 43.880173 -115.018105 36,050 305 432 0
2019-01-10 09:24:57 GMT 43.872227 -115.002068 36,050 305 432 0
2019-01-10 09:24:53 GMT 43.867996 -114.993515 36,050 305 432 0
2019-01-10 09:24:46 GMT 43.860447 -114.978401 36,050 305 432 0
2019-01-10 09:24:42 GMT 43.855839 -114.969048 36,050 305 432 0
2019-01-10 09:24:36 GMT 43.848343 -114.954071 36,050 305 433 0
2019-01-10 09:24:32 GMT 43.843922 -114.945175 36,050 305 433 64
2019-01-10 09:24:25 GMT 43.836288 -114.929878 36,050 305 433 0
2019-01-10 09:24:21 GMT 43.831924 -114.921082 36,050 305 433 64
2019-01-10 09:24:14 GMT 43.823902 -114.905022 36,025 305 432 128
2019-01-10 09:24:11 GMT 43.820206 -114.897636 36,025 305 433 128
2019-01-10 09:24:04 GMT 43.812286 -114.881737 36,025 305 432 64
2019-01-10 09:24:00 GMT 43.808212 -114.873497 36,025 305 432 64
2019-01-10 09:23:53 GMT 43.799744 -114.856567 36,000 305 433 64
2019-01-10 09:23:50 GMT 43.796345 -114.849770 36,000 305 433 64
2019-01-10 09:23:43 GMT 43.788025 -114.833000 36,000 305 432 0
2019-01-10 09:23:39 GMT 43.784042 -114.825081 36,000 305 432 0
2019-01-10 09:23:32 GMT 43.776234 -114.809547 36,000 305 431 0
2019-01-10 09:23:29 GMT 43.772278 -114.801567 36,000 305 431 0
2019-01-10 09:23:21 GMT 43.763664 -114.784370 36,000 305 431 0
2019-01-10 09:23:18 GMT 43.760193 -114.777489 36,000 305 431 0
2019-01-10 09:23:10 GMT 43.751423 -114.759911 36,000 305 430 -64
2019-01-10 09:23:07 GMT 43.747879 -114.752838 36,000 305 430 -64
2019-01-10 09:23:00 GMT 43.739784 -114.736702 36,000 305 429 0
2019-01-10 09:22:57 GMT 43.736385 -114.729965 36,000 305 429 0
2019-01-10 09:22:49 GMT 43.727737 -114.712723 36,000 305 429 -64
2019-01-10 09:22:46 GMT 43.724487 -114.706146 36,000 305 429 0
2019-01-10 09:22:39 GMT 43.716019 -114.689278 36,000 305 433 0
2019-01-10 09:22:35 GMT 43.711624 -114.680466 36,000 305 430 0
2019-01-10 09:22:28 GMT 43.703934 -114.665138 36,000 305 430 0
2019-01-10 09:22:25 GMT 43.700123 -114.657570 36,000 305 431 0
2019-01-10 09:22:17 GMT 43.690887 -114.639137 36,000 305 432 0
2019-01-10 09:22:07 GMT 43.676239 -114.610138 36,000 305 433 0
2019-01-10 09:22:04 GMT 43.676239 -114.610138 36,000 305 433 0
2019-01-10 09:21:56 GMT 43.666698 -114.591194 36,000 305 433 0
2019-01-10 09:21:52 GMT 43.662601 -114.583084 36,000 305 431 0
2019-01-10 09:21:46 GMT 43.655365 -114.568687 36,000 305 431 0
2019-01-10 09:21:43 GMT 43.651840 -114.561722 36,000 305 431 0
2019-01-10 09:21:35 GMT 43.642960 -114.544098 36,000 305 431 64
2019-01-10 09:21:31 GMT 43.639046 -114.536331 36,000 305 429 0
2019-01-10 09:21:24 GMT 43.631012 -114.520462 36,000 305 429 0
2019-01-10 09:21:18 GMT 43.624237 -114.506989 36,000 305 428 0
2019-01-10 09:21:13 GMT 43.618515 -114.495720 36,000 305 426 0
2019-01-10 09:21:10 GMT 43.614605 -114.487869 36,000 305 425 128
2019-01-10 09:21:04 GMT 43.608089 -114.474991 35,975 305 424 256
2019-01-10 09:21:00 GMT 43.602966 -114.464790 35,950 305 424 192
2019-01-10 09:20:53 GMT 43.596355 -114.451706 35,950 305 423 0
2019-01-10 09:20:49 GMT 43.591049 -114.441193 35,950 305 423 0
2019-01-10 09:20:43 GMT 43.584229 -114.427650 35,950 305 423 0
2019-01-10 09:20:39 GMT 43.579227 -114.417831 35,950 305 422 0
2019-01-10 09:20:31 GMT 43.571503 -114.402489 35,950 305 422 0
2019-01-10 09:20:28 GMT 43.566982 -114.393570 35,950 305 421 0
2019-01-10 09:20:21 GMT 43.560604 -114.381020 35,950 305 421 0
2019-01-10 09:20:17 GMT 43.555717 -114.371407 35,950 305 422 0
2019-01-10 09:20:11 GMT 43.548981 -114.358093 35,950 305 422 0
2019-01-10 09:20:08 GMT 43.543488 -114.347298 35,950 305 421 -64
2019-01-10 09:20:00 GMT 43.536667 -114.333885 35,950 305 421 -64
2019-01-10 09:19:56 GMT 43.532318 -114.325325 35,950 305 421 -64
2019-01-10 09:19:50 GMT 43.525925 -114.312675 35,975 305 421 0
2019-01-10 09:19:47 GMT 43.520943 -114.302803 35,975 305 421 -64
2019-01-10 09:19:39 GMT 43.513214 -114.287697 35,975 305 422 -64
2019-01-10 09:19:36 GMT 43.507954 -114.277367 35,975 305 422 0
2019-01-10 09:19:28 GMT 43.500870 -114.263435 35,975 306 422 0
2019-01-10 09:19:24 GMT 43.496384 -114.254616 35,975 306 423 0
2019-01-10 09:19:19 GMT 43.490845 -114.243889 35,975 306 423 -64
2019-01-10 09:19:15 GMT 43.484726 -114.231918 35,975 306 422 -64
2019-01-10 09:19:07 GMT 43.477249 -114.217316 35,975 306 423 -64
2019-01-10 09:19:04 GMT 43.473450 -114.209778 36,000 306 423 -64
2019-01-10 09:18:59 GMT 43.467911 -114.199051 36,000 306 424 0
2019-01-10 09:18:53 GMT 43.460495 -114.184486 36,000 306 424 0
2019-01-10 09:18:48 GMT 43.455780 -114.175285 36,000 306 424 0
2019-01-10 09:18:45 GMT 43.453255 -114.170311 36,000 306 424 0
2019-01-10 09:18:42 GMT 43.447861 -114.159828 36,000 306 425 -64
2019-01-10 09:18:38 GMT 43.444519 -114.153252 36,000 306 425 64
2019-01-10 09:18:35 GMT 43.441681 -114.147697 36,000 306 425 0
2019-01-10 09:18:32 GMT 43.437149 -114.138878 36,000 306 425 0
2019-01-10 09:18:27 GMT 43.432297 -114.129425 36,000 306 425 0
2019-01-10 09:18:24 GMT 43.429321 -114.123680 35,975 306 428 0
2019-01-10 09:18:21 GMT 43.425884 -114.116951 35,975 306 426 0
2019-01-10 09:18:17 GMT 43.420578 -114.106621 35,975 305 427 0
2019-01-10 09:18:14 GMT 43.417099 -114.099724 35,975 306 427 0
2019-01-10 09:18:10 GMT 43.412708 -114.091255 36,000 306 427 0
2019-01-10 09:18:06 GMT 43.408813 -114.083565 36,000 306 428 0
2019-01-10 09:18:01 GMT 43.401211 -114.068825 36,000 306 428 0
2019-01-10 09:17:56 GMT 43.396881 -114.060387 36,000 306 428 0
2019-01-10 09:17:53 GMT 43.393433 -114.053543 36,000 306 428 0
2019-01-10 09:17:50 GMT 43.389992 -114.046783 36,000 306 428 0
2019-01-10 09:17:45 GMT 43.384964 -114.036972 36,000 306 430 0
2019-01-10 09:17:40 GMT 43.377594 -114.022629 36,000 306 430 0
2019-01-10 09:17:35 GMT 43.372952 -114.013565 35,975 306 430 0
2019-01-10 09:17:32 GMT 43.369415 -114.006699 36,000 306 430 0
2019-01-10 09:17:29 GMT 43.365005 -113.998100 36,000 306 431 0
2019-01-10 09:17:24 GMT 43.361034 -113.990410 36,000 306 431 -64
2019-01-10 09:17:19 GMT 43.352509 -113.973763 36,000 306 431 -64
2019-01-10 09:17:14 GMT 43.349117 -113.967201 36,000 306 431 -64
2019-01-10 09:17:08 GMT 43.341160 -113.951767 36,025 306 431 -64
2019-01-10 09:17:04 GMT 43.337219 -113.944061 36,025 306 431 -64
2019-01-10 09:16:58 GMT 43.328960 -113.928024 36,025 306 432 -64
2019-01-10 09:16:53 GMT 43.324959 -113.920181 36,025 306 432 -64
2019-01-10 09:16:47 GMT 43.317230 -113.905205 36,025 306 432 0
2019-01-10 09:16:42 GMT 43.312317 -113.895645 36,025 306 433 0
2019-01-10 09:16:39 GMT 43.308571 -113.888397 36,025 306 433 64
2019-01-10 09:16:36 GMT 43.304581 -113.880638 36,000 306 433 0
2019-01-10 09:16:32 GMT 43.300644 -113.873039 36,025 306 434 0
2019-01-10 09:16:28 GMT 43.295956 -113.863937 36,000 306 434 0
2019-01-10 09:16:25 GMT 43.292267 -113.856873 36,025 306 435 0
2019-01-10 09:16:21 GMT 43.288368 -113.849358 36,000 306 436 0
2019-01-10 09:16:17 GMT 43.283798 -113.840462 36,025 306 436 0
2019-01-10 09:16:14 GMT 43.279587 -113.832352 36,025 306 436 0
2019-01-10 09:16:11 GMT 43.276566 -113.826469 36,025 306 436 -64
2019-01-10 09:16:05 GMT 43.267731 -113.809357 36,025 306 436 -64
2019-01-10 09:16:01 GMT 43.264481 -113.803032 36,025 306 436 0
2019-01-10 09:15:54 GMT 43.256153 -113.786903 36,025 306 436 -64
2019-01-10 09:15:50 GMT 43.252197 -113.779251 36,025 306 437 0
2019-01-10 09:15:44 GMT 43.243305 -113.762054 36,025 306 437 0
2019-01-10 09:15:40 GMT 43.239906 -113.755516 36,025 306 437 0
2019-01-10 09:15:33 GMT 43.231476 -113.739159 36,025 306 437 0
2019-01-10 09:15:30 GMT 43.228035 -113.732430 36,025 306 437 0
2019-01-10 09:15:23 GMT 43.218796 -113.714439 36,025 306 438 0
2019-01-10 09:15:19 GMT 43.215698 -113.708427 36,025 306 438 0
2019-01-10 09:15:14 GMT 43.209740 -113.696922 36,025 306 438 0
2019-01-10 09:15:11 GMT 43.205841 -113.689331 36,025 306 438 0
2019-01-10 09:15:08 GMT 43.203003 -113.683907 36,025 306 438 0
2019-01-10 09:15:02 GMT 43.194214 -113.666916 36,025 306 439 0
2019-01-10 09:14:58 GMT 43.191353 -113.661346 36,025 306 439 64
2019-01-10 09:14:53 GMT 43.184883 -113.648918 36,025 306 439 0
2019-01-10 09:14:48 GMT 43.179016 -113.637543 36,025 306 440 0
2019-01-10 09:14:40 GMT 43.168625 -113.617477 36,025 306 440 0
2019-01-10 09:14:37 GMT 43.166840 -113.614090 36,025 306 440 -64
2019-01-10 09:14:31 GMT 43.154156 -113.589737 36,025 306 440 0
2019-01-10 09:14:27 GMT 43.154156 -113.589737 36,025 306 440 0
2019-01-10 09:14:19 GMT 43.144615 -113.571365 36,025 306 440 0
2019-01-10 09:14:16 GMT 43.142147 -113.566589 36,025 306 440 0
2019-01-10 09:14:09 GMT 43.132370 -113.547981 36,025 306 440 0
2019-01-10 09:14:06 GMT 43.129898 -113.543190 36,025 306 440 0
2019-01-10 09:13:58 GMT 43.117149 -113.518913 36,025 306 440 -64
2019-01-10 09:13:48 GMT 43.106487 -113.498581 36,050 306 440 -64
2019-01-10 09:13:45 GMT 43.104630 -113.495026 36,050 306 440 -64
2019-01-10 09:13:38 GMT 43.096710 -113.479958 36,050 306 440 -64
2019-01-10 09:13:34 GMT 43.092316 -113.471588 36,050 306 440 -64
2019-01-10 09:13:27 GMT 43.081512 -113.451080 36,050 306 440 0
2019-01-10 09:13:24 GMT 43.080280 -113.448685 36,050 306 440 0
2019-01-10 09:13:17 GMT 43.071758 -113.432396 36,050 306 440 0
2019-01-10 09:13:14 GMT 43.068008 -113.425346 36,050 306 440 0
2019-01-10 09:13:07 GMT 43.059494 -113.409058 36,050 306 441 0
2019-01-10 09:13:03 GMT 43.054909 -113.400421 36,050 306 440 0
2019-01-10 09:12:56 GMT 43.046631 -113.384720 36,050 306 440 64
2019-01-10 09:12:53 GMT 43.043060 -113.377945 36,050 306 440 64
2019-01-10 09:12:45 GMT 43.034241 -113.361122 36,050 306 440 64
2019-01-10 09:12:42 GMT 43.030560 -113.354118 36,025 306 440 64
2019-01-10 09:12:32 GMT 43.018341 -113.330742 36,025 306 439 64
2019-01-10 09:12:21 GMT 43.005707 -113.306602 36,000 306 439 64
2019-01-10 09:12:13 GMT 42.994343 -113.284866 36,000 306 439 64
2019-01-10 09:12:10 GMT 42.992615 -113.281624 36,000 306 439 64
2019-01-10 09:12:03 GMT 42.984055 -113.265381 36,000 306 438 64
2019-01-10 09:11:59 GMT 42.979073 -113.255966 36,000 306 437 128
2019-01-10 09:11:51 GMT 42.968811 -113.236595 35,975 306 437 64
2019-01-10 09:11:48 GMT 42.966972 -113.233139 35,975 306 437 64
2019-01-10 09:11:42 GMT 42.958965 -113.217972 35,975 306 437 0
2019-01-10 09:11:39 GMT 42.955193 -113.210777 35,975 306 437 0
2019-01-10 09:11:31 GMT 42.944813 -113.191154 35,975 306 436 0
2019-01-10 09:11:28 GMT 42.943043 -113.187759 35,975 306 436 0
2019-01-10 09:11:18 GMT 42.930954 -113.164925 35,975 306 435 -64
2019-01-10 09:11:10 GMT 42.921341 -113.146721 35,975 306 434 0
2019-01-10 09:11:07 GMT 42.918274 -113.140976 35,975 306 434 0
2019-01-10 09:10:57 GMT 42.905960 -113.117661 35,975 306 434 0
2019-01-10 09:10:49 GMT 42.896397 -113.099602 35,975 306 434 64
2019-01-10 09:10:46 GMT 42.892960 -113.093071 35,975 306 433 64
2019-01-10 09:10:38 GMT 42.884109 -113.076393 35,950 306 432 0
2019-01-10 09:10:35 GMT 42.881104 -113.070717 35,950 306 432 0
2019-01-10 09:10:25 GMT 42.869026 -113.047943 35,950 306 432 0
2019-01-10 09:10:17 GMT 42.857807 -113.026756 35,950 306 431 0
2019-01-10 09:10:04 GMT 42.844257 -113.000923 35,950 306 431 64
2019-01-10 09:09:54 GMT 42.832260 -112.978416 35,950 306 431 0
2019-01-10 09:09:43 GMT 42.820221 -112.955803 35,950 306 431 -64
2019-01-10 09:09:33 GMT 42.808090 -112.932961 35,950 306 430 0
2019-01-10 09:09:22 GMT 42.795227 -112.908867 35,975 306 431 0
2019-01-10 09:09:12 GMT 42.783600 -112.887077 35,975 307 430 0
2019-01-10 09:09:01 GMT 42.771313 -112.864143 35,975 306 431 0
2019-01-10 09:08:51 GMT 42.759163 -112.841408 35,975 306 430 0
2019-01-10 09:08:41 GMT 42.746979 -112.818481 35,975 306 431 0
2019-01-10 09:08:30 GMT 42.734207 -112.794693 35,975 306 431 0
2019-01-10 09:08:20 GMT 42.722477 -112.772675 35,975 306 431 64
2019-01-10 09:08:09 GMT 42.710220 -112.749878 35,950 307 430 0
2019-01-10 09:07:59 GMT 42.698318 -112.727715 35,975 306 431 -64
2019-01-10 09:07:49 GMT 42.686096 -112.704872 35,975 306 431 -64
2019-01-10 09:07:38 GMT 42.673599 -112.681465 36,000 306 431 -128
2019-01-10 09:07:27 GMT 42.660236 -112.656425 36,000 306 431 -64
2019-01-10 09:07:18 GMT 42.648605 -112.634644 36,025 306 431 -128
2019-01-10 09:07:07 GMT 42.636822 -112.612740 36,025 307 431 -64
2019-01-10 09:06:56 GMT 42.624207 -112.589203 36,050 307 431 0
2019-01-10 09:06:45 GMT 42.611824 -112.566170 36,025 306 432 0
2019-01-10 09:06:35 GMT 42.599579 -112.543373 36,050 307 433 -64
2019-01-10 09:06:24 GMT 42.587151 -112.520378 36,050 307 434 0
2019-01-10 09:06:14 GMT 42.574722 -112.497574 36,050 307 435 64
2019-01-10 09:06:03 GMT 42.561687 -112.473686 36,025 307 436 64
2019-01-10 09:05:53 GMT 42.549500 -112.451370 36,050 307 437 0
2019-01-10 09:05:43 GMT 42.536728 -112.427780 36,050 307 437 0
2019-01-10 09:05:32 GMT 42.524818 -112.405853 36,050 307 438 0
2019-01-10 09:05:22 GMT 42.510853 -112.380234 36,025 307 438 0
2019-01-10 09:05:10 GMT 42.497635 -112.355804 36,025 307 439 0
2019-01-10 09:05:00 GMT 42.485733 -112.333954 36,025 307 437 0
2019-01-10 09:04:49 GMT 42.471050 -112.306908 36,025 307 437 64
2019-01-10 09:04:36 GMT 42.457176 -112.281296 36,025 307 437 64
2019-01-10 09:04:29 GMT 42.448936 -112.266090 36,000 307 437 64
2019-01-10 09:04:21 GMT 42.437115 -112.244308 36,000 307 437 64
2019-01-10 09:04:17 GMT 42.434834 -112.240097 36,000 307 437 64
2019-01-10 09:04:08 GMT 42.421566 -112.215630 36,000 307 437 0
2019-01-10 09:03:55 GMT 42.408577 -112.191872 36,000 307 438 0
2019-01-10 09:03:47 GMT 42.391983 -112.161674 36,000 307 437 0
2019-01-10 09:03:36 GMT 42.383972 -112.147003 36,000 307 437 0
2019-01-10 09:03:24 GMT 42.370926 -112.123093 36,000 307 436 0
2019-01-10 09:03:15 GMT 42.358719 -112.100594 36,000 307 435 0
2019-01-10 09:03:06 GMT 42.349319 -112.083458 36,000 307 435 0
2019-01-10 09:03:02 GMT 42.344421 -112.074532 36,000 307 435 0
2019-01-10 09:02:54 GMT 42.333721 -112.055054 36,000 307 435 0
2019-01-10 09:02:42 GMT 42.320938 -112.031898 36,000 307 434 -64
2019-01-10 09:02:32 GMT 42.307892 -112.008240 36,025 307 433 0
2019-01-10 09:02:21 GMT 42.295258 -111.985207 36,025 307 433 0
2019-01-10 09:02:11 GMT 42.283352 -111.963715 36,000 307 432 0
2019-01-10 09:02:01 GMT 42.270828 -111.940971 36,025 307 432 0
2019-01-10 09:01:50 GMT 42.258587 -111.918747 36,000 307 431 64
2019-01-10 09:01:40 GMT 42.244858 -111.893753 36,000 307 431 64
2019-01-10 09:01:29 GMT 42.233261 -111.872757 36,000 307 431 64
2019-01-10 09:01:19 GMT 42.220318 -111.849251 36,000 307 431 0
2019-01-10 09:01:07 GMT 42.207470 -111.826004 36,000 307 430 0
2019-01-10 09:00:58 GMT 42.195648 -111.804474 36,000 307 430 0
2019-01-10 09:00:46 GMT 42.183449 -111.782379 36,000 307 430 0
2019-01-10 09:00:36 GMT 42.170654 -111.759361 36,000 307 430 -64
2019-01-10 09:00:26 GMT 42.157146 -111.735046 36,000 307 429 -64
2019-01-10 09:00:15 GMT 42.145340 -111.713791 36,000 307 428 0
2019-01-10 09:00:05 GMT 42.132797 -111.691132 36,000 307 428 0
2019-01-10 08:59:53 GMT 42.120323 -111.668617 36,025 307 428 0
2019-01-10 08:59:44 GMT 42.107941 -111.646309 36,025 307 428 0
2019-01-10 08:59:32 GMT 42.095169 -111.623276 36,025 307 428 0
2019-01-10 08:59:22 GMT 42.082260 -111.599998 36,000 307 428 0
2019-01-10 08:59:11 GMT 42.070606 -111.579002 36,000 307 428 0
2019-01-10 08:59:02 GMT 42.058365 -111.557030 36,000 307 429 0
2019-01-10 08:58:50 GMT 42.044907 -111.532829 36,000 307 429 0
2019-01-10 08:58:40 GMT 42.033051 -111.511543 36,000 307 428 0
2019-01-10 08:58:30 GMT 42.020325 -111.488754 36,000 307 428 0
2019-01-10 08:58:18 GMT 42.007507 -111.465790 36,000 308 428 64
2019-01-10 08:58:09 GMT 41.995052 -111.443649 36,000 308 428 64
2019-01-10 08:57:57 GMT 41.982330 -111.421097 35,975 308 429 64
2019-01-10 08:57:48 GMT 41.969650 -111.398682 35,975 308 427 0
2019-01-10 08:57:17 GMT 41.933350 -111.333885 35,975 308 427 0
2019-01-10 08:56:13 GMT 41.857445 -111.198761 35,975 308 426 0
2019-01-10 08:54:56 GMT 41.766762 -111.038757 36,000 308 426 0
2019-01-10 08:54:47 GMT 41.756927 -111.021400 36,000 308 428 0
2019-01-10 08:54:38 GMT 41.743607 -110.998055 36,000 308 428 -64
2019-01-10 08:54:26 GMT 41.731750 -110.977272 36,025 308 428 -64
2019-01-10 08:54:17 GMT 41.719620 -110.955986 36,025 308 428 0
2019-01-10 08:54:06 GMT 41.706802 -110.933510 36,025 308 428 0
2019-01-10 08:53:56 GMT 41.694077 -110.911224 36,025 308 428 0
2019-01-10 08:53:42 GMT 41.678219 -110.883286 36,025 308 429 0
2019-01-10 08:53:35 GMT 41.668533 -110.866280 36,025 308 429 0
2019-01-10 08:53:23 GMT 41.655304 -110.843063 36,025 308 430 0
2019-01-10 08:53:12 GMT 41.642139 -110.819984 36,025 308 429 0
2019-01-10 08:53:03 GMT 41.629387 -110.797630 36,025 308 430 0
2019-01-10 08:52:51 GMT 41.617233 -110.776299 36,000 308 431 0
2019-01-10 08:52:41 GMT 41.603897 -110.752922 36,000 308 431 0
2019-01-10 08:52:16 GMT 41.572685 -110.698303 36,000 308 431 0
2019-01-10 08:52:09 GMT 41.566353 -110.687386 36,000 308 430 0
2019-01-10 08:52:00 GMT 41.553879 -110.665665 36,000 308 430 64
2019-01-10 08:51:49 GMT 41.541309 -110.643761 36,000 308 430 0
2019-01-10 08:51:38 GMT 41.528000 -110.620712 35,975 308 430 0
2019-01-10 08:51:28 GMT 41.515457 -110.598801 35,975 308 431 0
2019-01-10 08:51:17 GMT 41.502640 -110.576454 35,975 308 430 0
2019-01-10 08:51:07 GMT 41.489548 -110.553734 36,000 308 430 0
2019-01-10 08:50:55 GMT 41.477020 -110.532043 35,975 308 430 0
2019-01-10 08:50:46 GMT 41.464188 -110.509911 35,975 308 430 0
2019-01-10 08:50:35 GMT 41.451599 -110.488129 35,975 308 430 0
2019-01-10 08:50:24 GMT 41.439175 -110.466637 35,975 308 430 0
2019-01-10 08:50:13 GMT 41.425858 -110.443581 35,975 308 430 -64
2019-01-10 08:50:03 GMT 41.413242 -110.421799 36,000 308 430 0
2019-01-10 08:49:53 GMT 41.400330 -110.399490 36,000 308 430 0
2019-01-10 08:49:41 GMT 41.387688 -110.377663 36,000 308 429 0
2019-01-10 08:47:26 GMT 41.221436 -110.092102 36,025 308 431 0
2019-01-10 08:47:06 GMT 41.196869 -110.050110 36,025 308 430 -64
2019-01-10 08:46:55 GMT 41.184765 -110.029449 36,025 308 430 0
2019-01-10 08:46:44 GMT 41.171768 -110.007324 36,025 308 430 64
2019-01-10 08:46:33 GMT 41.158276 -109.984322 36,000 308 430 64
2019-01-10 08:46:19 GMT 41.141235 -109.955322 36,000 308 429 0
2019-01-10 08:46:14 GMT 41.133232 -109.941750 36,000 308 429 64
2019-01-10 08:46:07 GMT 41.124481 -109.926941 36,000 308 429 64
2019-01-10 08:46:00 GMT 41.117825 -109.915588 36,000 308 428 0
2019-01-10 08:45:57 GMT 41.114658 -109.910225 36,000 308 429 0
2019-01-10 08:45:48 GMT 41.102646 -109.889832 36,000 308 428 0
2019-01-10 08:45:38 GMT 41.089462 -109.867493 36,000 308 428 0
2019-01-10 08:45:27 GMT 41.076252 -109.845116 35,975 308 428 0
2019-01-10 08:45:19 GMT 41.068104 -109.831322 36,000 308 428 0
2019-01-10 08:45:15 GMT 41.062889 -109.822456 35,975 308 428 0
2019-01-10 08:45:11 GMT 41.056702 -109.811905 35,975 308 427 -64
2019-01-10 08:45:05 GMT 41.049438 -109.799545 35,975 308 426 0
2019-01-10 08:45:00 GMT 41.044083 -109.790497 35,975 308 426 0
2019-01-10 08:44:54 GMT 41.036682 -109.777946 36,000 308 426 0
2019-01-10 08:44:49 GMT 41.029495 -109.765747 36,000 308 426 0
2019-01-10 08:44:44 GMT 41.024204 -109.756790 36,000 309 426 0
2019-01-10 08:44:38 GMT 41.018620 -109.747360 36,000 309 425 -64
2019-01-10 08:44:32 GMT 41.011276 -109.734985 36,000 309 425 0
2019-01-10 08:44:29 GMT 41.005772 -109.725700 36,000 309 425 0
2019-01-10 08:44:23 GMT 40.998276 -109.713135 36,000 309 425 0
2019-01-10 08:44:18 GMT 40.993526 -109.705040 36,000 309 425 0
2019-01-10 08:44:11 GMT 40.984406 -109.689751 36,000 309 425 0
2019-01-10 08:44:08 GMT 40.980835 -109.683716 36,000 309 425 0
2019-01-10 08:44:01 GMT 40.971416 -109.667900 36,000 309 425 -128
2019-01-10 08:43:57 GMT 40.968063 -109.662155 36,025 309 425 -64
2019-01-10 08:43:47 GMT 40.955074 -109.640373 36,025 309 424 -64
2019-01-10 08:43:40 GMT 40.946136 -109.625267 36,025 309 423 -64
2019-01-10 08:43:36 GMT 40.942509 -109.619148 36,025 308 424 0
2019-01-10 08:43:26 GMT 40.929611 -109.597359 36,025 309 423 0
2019-01-10 08:43:18 GMT 40.920071 -109.581261 36,025 309 423 0
2019-01-10 08:43:15 GMT 40.916809 -109.575768 36,025 308 423 0
2019-01-10 08:43:05 GMT 40.904343 -109.554688 36,025 308 423 64
2019-01-10 08:42:54 GMT 40.891846 -109.533569 36,025 309 423 64
2019-01-10 08:42:44 GMT 40.878963 -109.511971 36,000 309 423 64
2019-01-10 08:42:33 GMT 40.866673 -109.491310 36,000 309 422 0
2019-01-10 08:42:23 GMT 40.854080 -109.470215 36,000 309 420 0
2019-01-10 08:42:14 GMT 40.842094 -109.450172 36,025 309 420 -64
2019-01-10 08:42:02 GMT 40.828903 -109.428162 36,025 309 418 0
2019-01-10 08:41:51 GMT 40.815979 -109.406723 36,025 309 418 0
2019-01-10 08:41:41 GMT 40.803452 -109.385864 36,000 309 417 64
2019-01-10 08:41:30 GMT 40.790863 -109.364929 36,000 309 417 0
2019-01-10 08:41:20 GMT 40.778130 -109.343681 36,000 309 417 0
2019-01-10 08:41:08 GMT 40.765091 -109.321838 36,000 309 417 64
2019-01-10 08:40:59 GMT 40.752621 -109.301041 36,000 309 416 64
2019-01-10 08:40:48 GMT 40.739456 -109.279053 36,000 309 416 0
2019-01-10 08:40:37 GMT 40.727509 -109.259216 36,000 309 415 0
2019-01-10 08:40:27 GMT 40.714073 -109.236938 36,000 309 415 0
2019-01-10 08:40:16 GMT 40.702065 -109.216965 36,000 309 415 0
2019-01-10 08:40:04 GMT 40.688053 -109.193619 35,975 309 413 64
2019-01-10 08:39:54 GMT 40.675156 -109.172142 35,975 309 412 0
2019-01-10 08:39:43 GMT 40.663010 -109.151978 35,975 309 412 0
2019-01-10 08:39:35 GMT 40.650558 -109.131287 35,975 309 412 64
2019-01-10 08:39:21 GMT 40.638149 -109.110840 35,975 309 412 0
2019-01-10 08:39:11 GMT 40.624275 -109.087936 35,975 309 411 0
2019-01-10 08:39:03 GMT 40.612015 -109.067688 35,975 309 410 0
2019-01-10 08:38:52 GMT 40.603363 -109.053406 35,975 309 411 0
2019-01-10 08:38:42 GMT 40.590866 -109.032776 35,975 309 409 -64
2019-01-10 08:38:39 GMT 40.586609 -109.025757 35,975 309 409 0
2019-01-10 08:38:31 GMT 40.578964 -109.013062 35,975 309 409 -64
2019-01-10 08:38:28 GMT 40.574844 -109.006287 35,975 309 409 -64
2019-01-10 08:38:21 GMT 40.566559 -108.992676 36,000 309 409 0
2019-01-10 08:38:17 GMT 40.560966 -108.983437 36,000 309 409 0
2019-01-10 08:38:11 GMT 40.554726 -108.973137 36,000 309 409 0
2019-01-10 08:38:01 GMT 40.542297 -108.952698 36,000 309 409 -64
2019-01-10 08:37:50 GMT 40.529572 -108.931763 36,000 309 409 64
2019-01-10 08:37:40 GMT 40.517532 -108.911987 36,000 309 408 -64
2019-01-10 08:37:35 GMT 40.510712 -108.900757 36,000 309 409 -64
2019-01-10 08:37:29 GMT 40.505173 -108.891663 36,000 309 409 -64
2019-01-10 08:37:25 GMT 40.498352 -108.880432 36,000 309 409 0
2019-01-10 08:37:19 GMT 40.492767 -108.871201 36,025 309 409 -64
2019-01-10 08:37:13 GMT 40.486679 -108.861267 36,025 309 409 -64
2019-01-10 08:37:08 GMT 40.480453 -108.850952 36,025 309 408 0
2019-01-10 08:37:03 GMT 40.474091 -108.840515 36,025 309 409 -128
2019-01-10 08:36:58 GMT 40.468094 -108.830757 36,025 309 408 -64
2019-01-10 08:36:51 GMT 40.459389 -108.816460 36,025 309 408 0
2019-01-10 08:36:47 GMT 40.455643 -108.810364 36,025 309 408 0
2019-01-10 08:36:42 GMT 40.448170 -108.798103 36,025 309 408 -128
2019-01-10 08:36:37 GMT 40.443558 -108.790466 36,025 309 407 0
2019-01-10 08:36:31 GMT 40.436462 -108.778870 36,050 309 408 64
2019-01-10 08:36:26 GMT 40.430832 -108.769592 36,025 309 408 64
2019-01-10 08:36:19 GMT 40.422379 -108.755783 36,025 309 408 0
2019-01-10 08:36:16 GMT 40.418243 -108.748962 36,025 309 408 0
2019-01-10 08:36:08 GMT 40.408504 -108.733063 36,025 309 407 0
2019-01-10 08:36:05 GMT 40.405975 -108.728882 36,025 309 407 0
2019-01-10 08:35:58 GMT 40.398403 -108.716461 36,025 309 407 64
2019-01-10 08:35:55 GMT 40.393433 -108.708252 36,025 309 407 64
2019-01-10 08:35:47 GMT 40.384460 -108.693604 36,025 309 408 0
2019-01-10 08:35:43 GMT 40.381134 -108.688118 36,025 309 408 0
2019-01-10 08:35:38 GMT 40.373405 -108.675697 36,025 309 408 0
2019-01-10 08:35:34 GMT 40.369171 -108.668770 36,025 309 407 0
2019-01-10 08:35:23 GMT 40.356789 -108.648605 36,025 309 406 64
2019-01-10 08:35:13 GMT 40.344311 -108.628258 36,025 309 406 64
2019-01-10 08:35:05 GMT 40.334908 -108.612900 36,000 309 406 64
2019-01-10 08:35:02 GMT 40.332047 -108.608215 36,000 309 406 64
2019-01-10 08:34:52 GMT 40.319546 -108.587807 36,000 309 406 64
2019-01-10 08:34:41 GMT 40.307602 -108.568359 35,975 309 405 64
2019-01-10 08:34:34 GMT 40.297756 -108.552414 35,975 309 406 64
2019-01-10 08:34:31 GMT 40.294785 -108.547546 35,975 309 406 0
2019-01-10 08:34:20 GMT 40.282608 -108.527588 35,975 309 404 0
2019-01-10 08:34:09 GMT 40.270294 -108.507568 35,975 309 404 0
2019-01-10 08:33:59 GMT 40.258190 -108.487869 35,975 309 404 0
2019-01-10 08:33:48 GMT 40.246078 -108.468140 35,975 309 403 0
2019-01-10 08:33:39 GMT 40.233719 -108.447998 35,975 309 404 0
2019-01-10 08:33:28 GMT 40.221600 -108.428375 35,975 309 403 0
2019-01-10 08:33:18 GMT 40.209000 -108.408020 35,975 309 403 0
2019-01-10 08:33:06 GMT 40.196693 -108.388054 35,975 309 402 -64
2019-01-10 08:32:57 GMT 40.184544 -108.368393 35,975 309 401 -64
2019-01-10 08:32:46 GMT 40.172699 -108.349304 35,975 309 401 0
2019-01-10 08:32:36 GMT 40.160664 -108.329819 35,975 309 401 0
2019-01-10 08:32:24 GMT 40.147797 -108.309021 36,000 310 401 -64
2019-01-10 08:32:13 GMT 40.134384 -108.287415 36,000 310 401 -64
2019-01-10 08:32:03 GMT 40.122070 -108.267700 36,025 310 401 -64
2019-01-10 08:31:52 GMT 40.110031 -108.248352 36,025 310 401 -64
2019-01-10 08:31:42 GMT 40.097675 -108.228500 36,025 310 401 -64
2019-01-10 08:31:31 GMT 40.084503 -108.207283 36,025 310 400 0
2019-01-10 08:31:20 GMT 40.072960 -108.188744 36,025 310 400 0
2019-01-10 08:31:12 GMT 40.062149 -108.171448 36,025 310 400 0
2019-01-10 08:31:09 GMT 40.060410 -108.168579 36,050 310 400 0
2019-01-10 08:30:59 GMT 40.047638 -108.148071 36,025 309 399 64
2019-01-10 08:30:49 GMT 40.035484 -108.128502 36,025 310 400 -64
2019-01-10 08:30:40 GMT 40.021317 -108.105774 36,025 310 400 -64
2019-01-10 08:30:30 GMT 40.013535 -108.093262 36,025 310 400 0
2019-01-10 08:30:25 GMT 40.009094 -108.086182 36,025 310 400 0
2019-01-10 08:30:17 GMT 39.997356 -108.067390 36,025 310 400 0
2019-01-10 08:30:06 GMT 39.985813 -108.048912 36,025 310 400 0
2019-01-10 08:29:58 GMT 39.976547 -108.034058 36,025 310 400 0
2019-01-10 08:29:54 GMT 39.973068 -108.028442 36,025 310 400 0
2019-01-10 08:29:45 GMT 39.960396 -108.008217 36,025 310 400 0
2019-01-10 08:29:34 GMT 39.948029 -107.988525 36,025 310 400 0
2019-01-10 08:29:27 GMT 39.940201 -107.976074 36,025 310 400 0
2019-01-10 08:29:22 GMT 39.935394 -107.968445 36,025 310 399 64
2019-01-10 08:29:16 GMT 39.928135 -107.956841 36,025 310 399 64
2019-01-10 08:29:11 GMT 39.922035 -107.947144 36,000 310 399 64
2019-01-10 08:29:05 GMT 39.915657 -107.936890 36,000 310 399 0
2019-01-10 08:29:02 GMT 39.910126 -107.928078 36,000 310 398 0
2019-01-10 08:28:53 GMT 39.901657 -107.914520 36,000 310 398 0
2019-01-10 08:28:50 GMT 39.898014 -107.908691 36,000 310 398 0
2019-01-10 08:28:44 GMT 39.890762 -107.897087 36,000 310 398 0
2019-01-10 08:28:39 GMT 39.884792 -107.887512 36,000 310 397 0
2019-01-10 08:28:34 GMT 39.879208 -107.878662 36,000 310 397 64
2019-01-10 08:28:30 GMT 39.872910 -107.868607 36,000 310 396 64
2019-01-10 08:28:23 GMT 39.866917 -107.859131 35,975 310 396 0
2019-01-10 08:28:18 GMT 39.860771 -107.849365 36,000 310 396 0
2019-01-10 08:28:14 GMT 39.854828 -107.839828 36,000 310 396 0
2019-01-10 08:28:07 GMT 39.847961 -107.829018 36,000 310 395 0
2019-01-10 08:28:03 GMT 39.842941 -107.820984 36,000 310 395 0
2019-01-10 08:27:58 GMT 39.835373 -107.808960 36,000 310 395 0
2019-01-10 08:27:53 GMT 39.830246 -107.800896 36,000 310 394 0
2019-01-10 08:27:47 GMT 39.823792 -107.790688 36,000 310 394 0
2019-01-10 08:27:42 GMT 39.818504 -107.782349 36,000 310 394 0
2019-01-10 08:27:35 GMT 39.810169 -107.769165 36,000 310 394 0
2019-01-10 08:27:32 GMT 39.805935 -107.762390 36,000 310 394 0
2019-01-10 08:27:25 GMT 39.799091 -107.751587 36,000 310 393 0
2019-01-10 08:27:20 GMT 39.794220 -107.743813 36,000 310 393 64
2019-01-10 08:27:15 GMT 39.786659 -107.731812 36,000 310 393 0
2019-01-10 08:27:11 GMT 39.782192 -107.724670 35,975 310 394 0
2019-01-10 08:27:04 GMT 39.774078 -107.711815 35,975 310 393 64
2019-01-10 08:27:00 GMT 39.770554 -107.706238 35,975 310 393 64
2019-01-10 08:26:50 GMT 39.758377 -107.686974 35,975 310 393 0
2019-01-10 08:26:39 GMT 39.746208 -107.667725 35,975 310 392 0
2019-01-10 08:26:32 GMT 39.736496 -107.652344 35,975 310 392 0
2019-01-10 08:26:28 GMT 39.734150 -107.648621 35,975 310 392 -64
2019-01-10 08:26:21 GMT 39.724091 -107.632698 35,975 310 391 -64
2019-01-10 08:26:18 GMT 39.722488 -107.630188 35,975 310 391 0
2019-01-10 08:26:08 GMT 39.710312 -107.610962 35,975 310 390 0
2019-01-10 08:25:57 GMT 39.698444 -107.592285 35,975 310 390 0
2019-01-10 08:25:46 GMT 39.685867 -107.572456 36,000 310 390 0
2019-01-10 08:25:37 GMT 39.674286 -107.554245 36,000 310 390 0
2019-01-10 08:25:26 GMT 39.661949 -107.534851 36,000 310 390 0
2019-01-10 08:25:16 GMT 39.650070 -107.516205 36,000 310 390 -64
2019-01-10 08:25:08 GMT 39.642609 -107.504501 36,000 310 390 -64
2019-01-10 08:25:05 GMT 39.637894 -107.497101 36,000 310 390 -64
2019-01-10 08:24:59 GMT 39.630852 -107.486023 36,025 310 390 -64
2019-01-10 08:24:55 GMT 39.626011 -107.478455 36,025 310 390 -64
2019-01-10 08:24:47 GMT 39.618393 -107.466469 36,025 310 390 0
2019-01-10 08:24:44 GMT 39.613678 -107.459129 36,025 310 390 0
2019-01-10 08:24:38 GMT 39.606445 -107.447784 36,025 310 390 64
2019-01-10 08:24:34 GMT 39.601616 -107.440125 36,025 310 390 64
2019-01-10 08:24:27 GMT 39.593933 -107.428040 36,025 310 390 0
2019-01-10 08:24:23 GMT 39.589142 -107.420555 36,000 310 390 0
2019-01-10 08:24:15 GMT 39.581589 -107.408676 36,025 310 390 0
2019-01-10 08:24:11 GMT 39.576805 -107.401184 36,000 310 390 64
2019-01-10 08:24:04 GMT 39.569183 -107.389206 36,000 310 390 0
2019-01-10 08:24:01 GMT 39.564327 -107.381592 36,000 310 390 0
2019-01-10 08:23:55 GMT 39.557205 -107.370422 36,000 310 389 64
2019-01-10 08:23:51 GMT 39.552795 -107.363533 36,000 310 389 64
2019-01-10 08:23:42 GMT 39.542076 -107.346741 36,000 310 389 64
2019-01-10 08:23:34 GMT 39.532860 -107.332397 36,000 310 389 0
2019-01-10 08:23:30 GMT 39.528214 -107.325142 36,000 310 389 -64
2019-01-10 08:23:22 GMT 39.520847 -107.313538 36,000 310 389 -64
2019-01-10 08:23:19 GMT 39.515354 -107.304932 36,000 310 389 -64
2019-01-10 08:23:12 GMT 39.508793 -107.294739 36,000 310 387 0
2019-01-10 08:23:07 GMT 39.501892 -107.283943 36,000 310 388 0
2019-01-10 08:23:00 GMT 39.493744 -107.271286 36,000 310 388 0
2019-01-10 08:22:56 GMT 39.490730 -107.266541 36,000 310 389 0
2019-01-10 08:22:49 GMT 39.482349 -107.253479 36,000 310 389 0
2019-01-10 08:22:45 GMT 39.477180 -107.245422 36,000 310 390 0
2019-01-10 08:22:39 GMT 39.470058 -107.234253 36,000 310 390 0
2019-01-10 08:22:36 GMT 39.465961 -107.227844 36,000 310 390 0
2019-01-10 08:22:28 GMT 39.458141 -107.215637 36,000 310 389 0
2019-01-10 08:22:24 GMT 39.454376 -107.209846 36,000 310 389 0
2019-01-10 08:22:18 GMT 39.445572 -107.196106 36,000 310 390 0
2019-01-10 08:22:13 GMT 39.441292 -107.189453 36,000 310 390 0
2019-01-10 08:22:09 GMT 39.435753 -107.180847 36,000 310 391 0
2019-01-10 08:22:06 GMT 39.433098 -107.176758 36,000 310 390 0
2019-01-10 08:22:03 GMT 39.428284 -107.169304 36,000 310 391 0
2019-01-10 08:21:57 GMT 39.421783 -107.159180 36,000 310 389 0
2019-01-10 08:21:53 GMT 39.416885 -107.151566 36,000 310 390 64
2019-01-10 08:21:48 GMT 39.410980 -107.142433 36,000 310 389 0
2019-01-10 08:21:44 GMT 39.407867 -107.137596 36,000 310 389 0
2019-01-10 08:21:41 GMT 39.404297 -107.132042 36,000 310 389 0
2019-01-10 08:21:36 GMT 39.397438 -107.121399 36,000 310 389 -64
2019-01-10 08:21:29 GMT 39.388779 -107.108032 36,000 310 389 0
2019-01-10 08:21:25 GMT 39.385300 -107.102547 36,000 310 389 64
2019-01-10 08:21:20 GMT 39.378910 -107.092712 35,975 310 387 256
2019-01-10 08:21:15 GMT 39.373215 -107.083916 35,950 310 387 320
2019-01-10 08:21:09 GMT 39.365273 -107.071594 35,925 310 385 256
2019-01-10 08:21:04 GMT 39.361221 -107.065292 35,900 310 385 256
2019-01-10 08:20:58 GMT 39.354797 -107.055298 35,875 310 384 192
2019-01-10 08:20:54 GMT 39.349182 -107.046539 35,875 310 384 192
2019-01-10 08:20:43 GMT 39.337479 -107.028381 35,850 310 382 64
2019-01-10 08:20:33 GMT 39.325981 -107.010498 35,825 310 380 128
2019-01-10 08:20:25 GMT 39.315784 -106.994690 35,775 310 379 320
2019-01-10 08:20:22 GMT 39.313568 -106.991310 35,775 310 379 384
2019-01-10 08:20:15 GMT 39.305099 -106.978119 35,725 310 378 640
2019-01-10 08:20:12 GMT 39.302399 -106.973999 35,700 310 377 576
2019-01-10 08:20:01 GMT 39.290321 -106.955139 35,625 310 377 256
2019-01-10 08:19:55 GMT 39.283127 -106.944023 35,600 310 377 384
2019-01-10 08:19:51 GMT 39.278496 -106.936829 35,550 310 377 512
2019-01-10 08:19:44 GMT 39.271515 -106.925964 35,500 310 377 576
2019-01-10 08:19:40 GMT 39.266876 -106.918823 35,450 310 377 576
2019-01-10 08:19:34 GMT 39.259319 -106.907166 35,400 310 377 448
2019-01-10 08:19:30 GMT 39.255405 -106.901123 35,375 310 377 512
2019-01-10 08:19:23 GMT 39.247101 -106.888252 35,300 310 377 512
2019-01-10 08:19:18 GMT 39.243210 -106.882225 35,250 310 377 448
2019-01-10 08:19:11 GMT 39.235203 -106.869873 35,225 310 377 384
2019-01-10 08:19:07 GMT 39.229198 -106.860596 35,175 310 376 512
2019-01-10 08:18:58 GMT 39.220306 -106.846802 35,100 310 376 640
2019-01-10 08:18:55 GMT 39.217514 -106.842529 35,075 310 376 704
2019-01-10 08:18:50 GMT 39.210800 -106.832130 35,025 310 376 448
2019-01-10 08:18:46 GMT 39.199360 -106.814575 34,975 310 375 448
2019-01-10 08:18:40 GMT 39.199360 -106.814575 34,950 311 375 640
2019-01-10 08:18:37 GMT 39.196098 -106.809631 34,900 311 375 704
2019-01-10 08:18:31 GMT 39.191116 -106.801979 34,850 311 376 1024
2019-01-10 08:18:28 GMT 39.186081 -106.794334 34,725 311 377 1536
2019-01-10 08:18:25 GMT 39.184368 -106.791626 34,725 311 377 1536
2019-01-10 08:18:21 GMT 39.179062 -106.783569 34,600 311 378 1600
2019-01-10 08:18:16 GMT 39.173035 -106.774330 34,475 310 380 1216
2019-01-10 08:18:13 GMT 39.169147 -106.768311 34,400 310 381 960
2019-01-10 08:18:08 GMT 39.163280 -106.759277 34,325 310 381 768
2019-01-10 08:18:05 GMT 39.160034 -106.754333 34,300 310 381 704
2019-01-10 08:18:01 GMT 39.149734 -106.738647 34,200 311 381 704
2019-01-10 08:17:55 GMT 39.149734 -106.738647 34,200 311 381 832
2019-01-10 08:17:51 GMT 39.143822 -106.729614 34,125 311 381 832
2019-01-10 08:17:44 GMT 39.136368 -106.718208 34,050 311 382 384
2019-01-10 08:17:40 GMT 39.131012 -106.710030 34,025 310 383 128
2019-01-10 08:17:34 GMT 39.126083 -106.702454 34,025 310 382 64
2019-01-10 08:17:31 GMT 39.121582 -106.695580 34,025 310 382 0
2019-01-10 08:17:28 GMT 39.117893 -106.689880 34,025 310 381 64
2019-01-10 08:17:23 GMT 39.112061 -106.680946 34,000 311 382 0
2019-01-10 08:17:17 GMT 39.105881 -106.671448 34,000 311 382 -64
2019-01-10 08:17:13 GMT 39.101257 -106.664406 34,000 311 382 0
2019-01-10 08:17:10 GMT 39.097961 -106.659393 34,025 311 382 64
2019-01-10 08:17:06 GMT 39.093338 -106.652290 34,025 311 381 0
2019-01-10 08:17:03 GMT 39.089447 -106.646378 34,000 310 381 0
2019-01-10 08:16:59 GMT 39.086002 -106.641052 34,000 310 381 64
2019-01-10 08:16:53 GMT 39.078232 -106.629181 34,000 310 381 0
2019-01-10 08:16:49 GMT 39.074085 -106.622803 34,000 310 381 0
2019-01-10 08:16:45 GMT 39.068546 -106.614319 34,000 310 380 0
2019-01-10 08:16:42 GMT 39.066078 -106.610474 34,000 310 381 64
2019-01-10 08:16:39 GMT 39.062679 -106.605286 34,000 310 381 64
2019-01-10 08:16:32 GMT 39.055187 -106.593872 34,000 310 381 0
2019-01-10 08:16:28 GMT 39.050720 -106.587029 34,000 310 381 64
2019-01-10 08:16:21 GMT 39.042252 -106.574074 33,975 311 380 64
2019-01-10 08:16:18 GMT 39.039276 -106.569595 33,975 311 380 64
2019-01-10 08:16:15 GMT 39.036575 -106.565414 34,000 311 380 0
2019-01-10 08:16:11 GMT 39.031166 -106.557251 33,975 311 380 0
2019-01-10 08:16:08 GMT 39.027439 -106.551514 33,975 311 380 0
2019-01-10 08:16:04 GMT 39.024124 -106.546425 33,975 311 380 0
2019-01-10 08:16:00 GMT 39.019993 -106.540161 33,975 311 380 0
2019-01-10 08:15:57 GMT 39.015060 -106.532631 33,975 311 380 0
2019-01-10 08:15:53 GMT 39.011078 -106.526604 33,975 311 379 0
2019-01-10 08:15:50 GMT 39.007519 -106.521179 33,975 311 379 64
2019-01-10 08:15:47 GMT 38.999863 -106.509521 33,975 311 379 0
2019-01-10 08:15:44 GMT 38.999863 -106.509521 33,975 311 379 0
2019-01-10 08:15:39 GMT 38.995365 -106.502747 33,975 311 378 0
2019-01-10 08:15:36 GMT 38.990852 -106.495850 33,975 311 378 0
2019-01-10 08:15:28 GMT 38.982559 -106.483253 33,975 311 378 0
2019-01-10 08:15:25 GMT 38.980087 -106.479431 33,975 311 378 0
2019-01-10 08:15:22 GMT 38.975555 -106.472565 33,975 311 378 0
2019-01-10 08:15:18 GMT 38.970612 -106.465042 33,975 311 378 64
2019-01-10 08:15:14 GMT 38.967388 -106.460144 33,975 310 378 64
2019-01-10 08:15:10 GMT 38.963379 -106.454056 33,975 311 378 0
2019-01-10 08:15:07 GMT 38.958755 -106.447014 33,975 311 378 0
2019-01-10 08:15:04 GMT 38.955048 -106.441338 33,975 311 378 64
2019-01-10 08:14:59 GMT 38.948116 -106.430786 33,975 311 378 0
2019-01-10 08:14:55 GMT 38.945892 -106.427429 33,975 311 378 0
2019-01-10 08:14:52 GMT 38.942436 -106.422241 33,975 311 378 0
2019-01-10 08:14:48 GMT 38.936417 -106.413040 33,975 311 378 0
2019-01-10 08:14:45 GMT 38.934196 -106.409729 33,975 311 378 0
2019-01-10 08:14:41 GMT 38.930706 -106.404419 33,975 311 378 0
2019-01-10 08:14:38 GMT 38.925957 -106.397217 33,975 311 378 0
2019-01-10 08:14:35 GMT 38.918743 -106.386292 33,975 311 377 0
2019-01-10 08:14:32 GMT 38.918743 -106.386292 33,975 311 377 0
2019-01-10 08:14:27 GMT 38.913017 -106.377563 33,975 311 377 0
2019-01-10 08:14:24 GMT 38.908905 -106.371300 33,975 311 377 0
2019-01-10 08:14:21 GMT 38.906342 -106.367416 33,975 311 377 0
2019-01-10 08:14:14 GMT 38.899609 -106.357239 33,975 311 378 -64
2019-01-10 08:14:10 GMT 38.894943 -106.350166 33,975 311 378 -64
2019-01-10 08:14:06 GMT 38.889771 -106.342285 33,975 311 377 0
2019-01-10 08:14:03 GMT 38.887459 -106.338806 33,975 311 378 0
2019-01-10 08:14:00 GMT 38.883087 -106.332191 33,975 311 378 0
2019-01-10 08:13:56 GMT 38.877495 -106.323730 34,000 311 377 0
2019-01-10 08:13:53 GMT 38.875534 -106.320786 33,975 311 377 0
2019-01-10 08:13:49 GMT 38.870605 -106.313354 34,000 311 377 -64
2019-01-10 08:13:43 GMT 38.863949 -106.303284 33,975 311 378 -64
2019-01-10 08:13:38 GMT 38.858734 -106.295410 34,000 311 378 -64
2019-01-10 08:13:34 GMT 38.854065 -106.288307 34,000 311 378 -64
2019-01-10 08:13:31 GMT 38.851753 -106.284851 34,000 311 378 -64
2019-01-10 08:13:28 GMT 38.846603 -106.277084 34,000 311 378 0
2019-01-10 08:13:22 GMT 38.840195 -106.267349 34,000 311 378 0
2019-01-10 08:13:17 GMT 38.834717 -106.259033 34,000 311 378 0
2019-01-10 08:13:10 GMT 38.827652 -106.248360 34,000 311 378 0
2019-01-10 08:13:06 GMT 38.822517 -106.240540 34,000 311 379 0
2019-01-10 08:13:01 GMT 38.816345 -106.231224 34,000 311 379 0
2019-01-10 08:12:56 GMT 38.810600 -106.222595 34,000 311 379 -64
2019-01-10 08:12:49 GMT 38.803802 -106.212280 34,000 311 379 0
2019-01-10 08:12:44 GMT 38.798126 -106.203735 34,000 311 379 0
2019-01-10 08:12:40 GMT 38.792542 -106.195282 34,000 311 379 0
2019-01-10 08:12:34 GMT 38.786346 -106.185913 34,025 311 380 -64
2019-01-10 08:12:31 GMT 38.780273 -106.176712 34,025 311 380 0
2019-01-10 08:12:24 GMT 38.774288 -106.167725 34,025 311 380 0
2019-01-10 08:12:19 GMT 38.768326 -106.158737 34,025 311 381 0
2019-01-10 08:12:13 GMT 38.762146 -106.149422 34,025 311 381 64
2019-01-10 08:12:10 GMT 38.758942 -106.144646 34,025 311 381 0
2019-01-10 08:12:07 GMT 38.755344 -106.139221 34,000 311 383 0
2019-01-10 08:12:00 GMT 38.746731 -106.126282 34,025 311 383 0
2019-01-10 08:11:56 GMT 38.743011 -106.120705 34,025 311 383 0
2019-01-10 08:11:49 GMT 38.734722 -106.108215 34,000 311 383 0
2019-01-10 08:11:45 GMT 38.730377 -106.101715 34,000 311 383 0
2019-01-10 08:11:41 GMT 38.724747 -106.093239 34,000 311 384 0
2019-01-10 08:11:37 GMT 38.719776 -106.085693 34,000 311 384 0
2019-01-10 08:11:28 GMT 38.711025 -106.072571 34,000 311 383 0
2019-01-10 08:11:24 GMT 38.705566 -106.064400 34,000 311 383 -64
2019-01-10 08:11:19 GMT 38.700363 -106.056519 34,000 311 383 -64
2019-01-10 08:11:16 GMT 38.695522 -106.049316 34,000 311 383 -64
2019-01-10 08:11:09 GMT 38.688263 -106.038368 34,025 311 383 0
2019-01-10 08:11:02 GMT 38.681091 -106.027588 34,025 311 383 0
2019-01-10 08:10:57 GMT 38.675228 -106.018799 34,025 311 383 0
2019-01-10 08:10:53 GMT 38.668396 -106.008575 34,000 311 383 0
2019-01-10 08:10:47 GMT 38.662704 -106.000061 34,025 311 383 0
2019-01-10 08:10:44 GMT 38.659866 -105.995728 34,000 311 383 0
2019-01-10 08:10:41 GMT 38.656906 -105.991318 34,000 311 383 0
2019-01-10 08:10:37 GMT 38.651184 -105.982719 34,000 311 383 0
2019-01-10 08:10:34 GMT 38.647842 -105.977707 34,000 311 383 0
2019-01-10 08:10:31 GMT 38.644920 -105.973328 34,000 311 383 0
2019-01-10 08:10:25 GMT 38.637360 -105.962059 34,000 311 383 0
2019-01-10 08:10:22 GMT 38.632118 -105.954224 34,000 311 383 0
2019-01-10 08:10:15 GMT 38.620480 -105.936768 34,000 311 384 0
2019-01-10 08:10:09 GMT 38.620480 -105.936768 34,000 311 383 64
2019-01-10 08:10:03 GMT 38.612457 -105.924805 34,000 311 383 64
2019-01-10 08:09:59 GMT 38.606747 -105.916260 34,000 311 384 64
2019-01-10 08:09:54 GMT 38.601974 -105.909096 34,000 311 384 0
2019-01-10 08:09:51 GMT 38.599777 -105.905815 34,000 311 384 64
2019-01-10 08:09:48 GMT 38.595428 -105.899246 34,000 311 384 64
2019-01-10 08:09:44 GMT 38.589851 -105.890869 33,975 311 384 0
2019-01-10 08:09:41 GMT 38.587601 -105.887543 34,000 311 384 0
2019-01-10 08:09:36 GMT 38.582153 -105.879425 34,000 311 384 0
2019-01-10 08:09:33 GMT 38.577667 -105.872681 34,000 311 384 0
2019-01-10 08:09:29 GMT 38.573231 -105.866028 34,000 311 384 0
2019-01-10 08:09:26 GMT 38.568947 -105.859680 34,000 311 384 0
2019-01-10 08:09:23 GMT 38.566761 -105.856384 34,000 311 384 0
2019-01-10 08:09:19 GMT 38.561188 -105.848076 33,975 311 384 0
2019-01-10 08:09:13 GMT 38.556107 -105.840492 33,975 311 384 0
2019-01-10 08:09:10 GMT 38.551399 -105.833496 33,975 311 384 0
2019-01-10 08:09:07 GMT 38.547775 -105.828072 33,975 311 384 64
2019-01-10 08:09:02 GMT 38.542236 -105.819832 33,975 311 384 0
2019-01-10 08:08:59 GMT 38.533218 -105.806396 33,975 311 384 0
2019-01-10 08:08:55 GMT 38.533218 -105.806396 33,975 311 384 64
2019-01-10 08:08:52 GMT 38.531982 -105.804489 33,975 311 384 64
2019-01-10 08:08:49 GMT 38.526764 -105.796783 33,975 311 384 0
2019-01-10 08:08:46 GMT 38.522827 -105.790939 33,975 311 385 -64
2019-01-10 08:08:43 GMT 38.520996 -105.788132 33,975 311 385 -64
2019-01-10 08:08:40 GMT 38.518112 -105.783829 33,975 311 385 -64
2019-01-10 08:08:37 GMT 38.512436 -105.775414 33,975 311 384 -64
2019-01-10 08:08:33 GMT 38.508270 -105.769203 33,975 311 384 -64
2019-01-10 08:08:30 GMT 38.505981 -105.765739 33,975 311 384 -64
2019-01-10 08:08:27 GMT 38.501865 -105.759644 33,975 311 384 -64
2019-01-10 08:08:22 GMT 38.497353 -105.752930 34,000 311 384 -64
2019-01-10 08:08:19 GMT 38.492340 -105.745438 34,000 311 384 -64
2019-01-10 08:08:16 GMT 38.490463 -105.742691 34,000 311 384 -64
2019-01-10 08:08:12 GMT 38.484924 -105.734451 34,000 311 385 -64
2019-01-10 08:08:09 GMT 38.481850 -105.729858 34,000 311 385 -64
2019-01-10 08:08:06 GMT 38.478127 -105.724365 34,000 311 385 0
2019-01-10 08:08:02 GMT 38.473377 -105.717285 34,025 311 385 0
2019-01-10 08:07:59 GMT 38.469887 -105.712158 34,000 311 385 0
2019-01-10 08:07:56 GMT 38.465973 -105.706299 34,025 311 385 0
2019-01-10 08:07:49 GMT 38.457779 -105.694145 34,025 311 386 0
2019-01-10 08:07:45 GMT 38.453636 -105.687988 34,025 311 386 -64
2019-01-10 08:07:41 GMT 38.446472 -105.677429 34,025 311 386 64
2019-01-10 08:07:38 GMT 38.445328 -105.675697 34,025 311 387 0
2019-01-10 08:07:35 GMT 38.441345 -105.669846 34,025 311 386 0
2019-01-10 08:07:31 GMT 38.437344 -105.663879 34,025 311 387 -64
2019-01-10 08:07:27 GMT 38.431778 -105.655640 34,025 311 387 -64
2019-01-10 08:07:24 GMT 38.429058 -105.651611 34,025 311 387 0
2019-01-10 08:07:16 GMT 38.420242 -105.638557 34,025 311 387 0
2019-01-10 08:07:13 GMT 38.416817 -105.633423 34,025 311 387 0
2019-01-10 08:07:10 GMT 38.412392 -105.626862 34,025 311 387 0
2019-01-10 08:07:06 GMT 38.406601 -105.618294 34,025 311 387 0
2019-01-10 08:07:03 GMT 38.404999 -105.615898 34,025 311 387 0
2019-01-10 08:07:00 GMT 38.400757 -105.609604 34,025 311 387 0
2019-01-10 08:06:53 GMT 38.392639 -105.597549 34,025 311 387 0
2019-01-10 08:06:49 GMT 38.388603 -105.591629 34,025 311 387 0
2019-01-10 08:06:42 GMT 38.376389 -105.573532 34,025 311 387 0
2019-01-10 08:06:35 GMT 38.370590 -105.565002 34,025 311 387 0
2019-01-10 08:06:32 GMT 38.367702 -105.560699 34,025 311 387 0
2019-01-10 08:06:29 GMT 38.365002 -105.556702 34,025 311 387 64
2019-01-10 08:06:25 GMT 38.360138 -105.549515 34,025 311 387 64
2019-01-10 08:06:20 GMT 38.354343 -105.541000 34,025 311 389 0
2019-01-10 08:06:17 GMT 38.349609 -105.533966 34,025 311 387 64
2019-01-10 08:06:13 GMT 38.345032 -105.527245 34,025 311 388 64
2019-01-10 08:06:09 GMT 38.342052 -105.522842 34,025 311 389 64
2019-01-10 08:06:04 GMT 38.335190 -105.512695 34,025 311 389 0
2019-01-10 08:05:59 GMT 38.328369 -105.502647 34,000 311 389 0
2019-01-10 08:05:55 GMT 38.325947 -105.499084 34,000 311 389 0
2019-01-10 08:05:51 GMT 38.319939 -105.490242 34,000 311 389 0
2019-01-10 08:05:47 GMT 38.314728 -105.482544 34,000 311 389 64
2019-01-10 08:05:43 GMT 38.310818 -105.476753 34,000 311 389 0
2019-01-10 08:05:38 GMT 38.304810 -105.467911 34,000 311 389 64
2019-01-10 08:05:34 GMT 38.299347 -105.459869 34,000 311 389 64
2019-01-10 08:05:31 GMT 38.296875 -105.456245 34,000 311 389 64
2019-01-10 08:05:28 GMT 38.292297 -105.449463 34,000 311 389 64
2019-01-10 08:05:25 GMT 38.288841 -105.444389 34,000 311 389 0
2019-01-10 08:05:21 GMT 38.283920 -105.437195 33,975 311 389 -64
2019-01-10 08:05:17 GMT 38.280396 -105.431992 33,975 311 389 -64
2019-01-10 08:05:14 GMT 38.277065 -105.427017 33,975 311 389 0
2019-01-10 08:05:10 GMT 38.272522 -105.420364 34,000 311 389 0
2019-01-10 08:05:07 GMT 38.267662 -105.413162 34,000 311 389 64
2019-01-10 08:05:03 GMT 38.262493 -105.405579 33,975 311 389 64
2019-01-10 08:04:59 GMT 38.258514 -105.399796 34,000 311 389 0
2019-01-10 08:04:56 GMT 38.254898 -105.394417 34,000 311 389 0
2019-01-10 08:04:52 GMT 38.248856 -105.385590 34,000 311 389 -64
2019-01-10 08:04:48 GMT 38.245789 -105.381096 34,000 311 389 -64
2019-01-10 08:04:45 GMT 38.242630 -105.376419 34,000 311 389 -64
2019-01-10 08:04:41 GMT 38.238335 -105.370110 34,000 311 389 -64
2019-01-10 08:04:38 GMT 38.233429 -105.362923 34,000 311 389 -64
2019-01-10 08:04:35 GMT 38.230362 -105.358421 34,000 311 389 0
2019-01-10 08:04:30 GMT 38.224503 -105.349770 34,000 311 389 64
2019-01-10 08:04:26 GMT 38.219711 -105.342766 34,000 311 389 64
2019-01-10 08:04:22 GMT 38.214081 -105.334465 34,000 311 389 0
2019-01-10 08:04:18 GMT 38.209763 -105.328148 34,000 311 389 0
2019-01-10 08:04:14 GMT 38.206833 -105.323822 34,000 311 389 0
2019-01-10 08:04:11 GMT 38.202713 -105.317749 34,000 311 390 0
2019-01-10 08:04:07 GMT 38.196857 -105.309212 34,000 311 390 -64
2019-01-10 08:04:03 GMT 38.192245 -105.302460 34,000 311 391 0
2019-01-10 08:03:58 GMT 38.186661 -105.294281 34,000 311 391 0
2019-01-10 08:03:54 GMT 38.182571 -105.288292 34,000 311 391 0
2019-01-10 08:03:50 GMT 38.177910 -105.281448 34,000 311 391 -64
2019-01-10 08:03:47 GMT 38.172367 -105.273323 34,000 311 391 0
2019-01-10 08:03:44 GMT 38.170624 -105.270760 34,000 311 391 0
2019-01-10 08:03:41 GMT 38.167526 -105.266220 34,000 311 390 0
2019-01-10 08:03:37 GMT 38.162453 -105.258698 34,000 311 391 0
2019-01-10 08:03:34 GMT 38.158813 -105.253403 34,000 311 392 64
2019-01-10 08:03:31 GMT 38.154633 -105.247231 34,000 311 391 0
2019-01-10 08:03:27 GMT 38.149979 -105.240372 34,000 311 391 0
2019-01-10 08:03:20 GMT 38.141972 -105.228661 34,000 311 392 64
2019-01-10 08:03:16 GMT 38.137920 -105.222809 34,000 311 392 64
2019-01-10 08:03:12 GMT 38.132473 -105.214813 34,000 311 392 64
2019-01-10 08:03:08 GMT 38.128330 -105.208717 34,000 311 392 0
2019-01-10 08:03:04 GMT 38.123749 -105.202042 34,000 311 392 64
2019-01-10 08:02:59 GMT 38.116554 -105.191521 34,000 311 392 0
2019-01-10 08:02:55 GMT 38.111431 -105.184059 34,000 311 392 0
2019-01-10 08:02:51 GMT 38.103100 -105.171883 34,000 311 392 0
2019-01-10 08:02:47 GMT 38.103100 -105.171883 34,000 311 392 0
2019-01-10 08:02:43 GMT 38.098816 -105.165611 33,975 311 392 0
2019-01-10 08:02:37 GMT 38.090763 -105.153847 34,000 311 392 64
2019-01-10 08:02:33 GMT 38.086395 -105.147461 34,000 311 392 0
2019-01-10 08:02:29 GMT 38.082138 -105.141205 34,000 311 392 0
2019-01-10 08:02:26 GMT 38.078381 -105.135757 34,000 311 392 0
2019-01-10 08:02:23 GMT 38.074238 -105.129669 34,000 311 392 0
2019-01-10 08:02:20 GMT 38.070236 -105.123848 34,000 311 392 0
2019-01-10 08:02:15 GMT 38.065907 -105.117546 34,000 311 392 0
2019-01-10 08:02:12 GMT 38.060623 -105.109764 34,000 311 392 0
2019-01-10 08:02:09 GMT 38.058178 -105.106201 34,000 311 392 -64
2019-01-10 08:02:05 GMT 38.053429 -105.099274 34,000 311 393 0
2019-01-10 08:02:02 GMT 38.048584 -105.092232 34,000 312 392 0
2019-01-10 08:01:59 GMT 38.045242 -105.087387 34,000 312 392 -64
2019-01-10 08:01:55 GMT 38.040573 -105.080666 34,000 312 392 0
2019-01-10 08:01:52 GMT 38.038021 -105.076942 34,000 312 392 0
2019-01-10 08:01:48 GMT 38.033066 -105.069733 34,000 312 392 0
2019-01-10 08:01:44 GMT 38.028030 -105.062431 34,000 311 393 -64
2019-01-10 08:01:41 GMT 38.025421 -105.058632 34,000 311 393 -64
2019-01-10 08:01:37 GMT 38.019104 -105.049461 34,000 311 392 0
2019-01-10 08:01:31 GMT 38.011532 -105.038429 34,000 311 392 0
2019-01-10 08:01:27 GMT 38.007568 -105.032570 34,000 311 392 0
2019-01-10 08:01:23 GMT 38.002579 -105.025322 34,000 311 392 0
2019-01-10 08:01:19 GMT 37.998917 -105.019943 34,000 311 392 0
2019-01-10 08:01:16 GMT 37.993515 -105.012039 34,000 311 392 0
2019-01-10 08:01:10 GMT 37.986485 -105.001831 34,000 311 392 0
2019-01-10 08:01:05 GMT 37.981739 -104.994904 34,000 311 392 0
2019-01-10 08:01:02 GMT 37.977318 -104.988518 34,000 311 392 0
2019-01-10 08:00:58 GMT 37.972801 -104.981888 34,000 311 392 0
2019-01-10 08:00:54 GMT 37.969254 -104.976822 34,000 311 392 0
2019-01-10 08:00:51 GMT 37.964931 -104.970482 34,000 312 392 0
2019-01-10 08:00:47 GMT 37.958679 -104.961395 34,000 312 392 0
2019-01-10 08:00:44 GMT 37.956985 -104.958939 34,000 312 392 0
2019-01-10 08:00:39 GMT 37.949844 -104.948593 34,000 312 392 0
2019-01-10 08:00:35 GMT 37.945473 -104.942245 34,000 312 393 0
2019-01-10 08:00:27 GMT 37.937164 -104.930244 34,000 312 392 0
2019-01-10 08:00:23 GMT 37.931763 -104.922470 34,000 312 393 0
2019-01-10 08:00:18 GMT 37.924759 -104.912331 34,000 312 393 0
2019-01-10 08:00:12 GMT 37.919449 -104.904648 34,000 311 393 64
2019-01-10 08:00:07 GMT 37.912331 -104.894295 34,000 311 393 64
2019-01-10 08:00:03 GMT 37.906403 -104.885773 34,000 311 393 64
2019-01-10 07:59:56 GMT 37.899666 -104.875969 34,000 312 394 64
2019-01-10 07:59:52 GMT 37.887936 -104.859009 34,000 312 394 0
2019-01-10 07:59:47 GMT 37.887936 -104.859009 34,000 312 394 0
2019-01-10 07:59:41 GMT 37.881138 -104.849159 34,000 312 394 0
2019-01-10 07:59:36 GMT 37.875366 -104.840797 34,000 312 394 0
2019-01-10 07:59:30 GMT 37.867268 -104.829033 34,000 312 394 0
2019-01-10 07:59:26 GMT 37.863007 -104.822891 34,000 312 394 0
2019-01-10 07:59:21 GMT 37.856606 -104.813629 33,975 312 393 -64
2019-01-10 07:59:18 GMT 37.853668 -104.809395 34,000 312 393 -64
2019-01-10 07:59:15 GMT 37.850555 -104.804955 34,000 312 393 -64
2019-01-10 07:59:11 GMT 37.843964 -104.795425 34,000 312 392 0
2019-01-10 07:59:07 GMT 37.840118 -104.789879 34,000 312 393 0
2019-01-10 07:59:04 GMT 37.837006 -104.785378 34,000 312 393 0
2019-01-10 07:58:57 GMT 37.826302 -104.769920 34,000 312 393 0
2019-01-10 07:58:54 GMT 37.824532 -104.767357 34,000 312 393 0
2019-01-10 07:58:49 GMT 37.818832 -104.759140 34,000 312 393 0
2019-01-10 07:58:43 GMT 37.812012 -104.749260 34,000 312 393 0
2019-01-10 07:58:39 GMT 37.807343 -104.742538 34,000 312 393 0
2019-01-10 07:58:36 GMT 37.802902 -104.736176 34,000 312 394 0
2019-01-10 07:58:33 GMT 37.799194 -104.730797 34,000 312 394 0
2019-01-10 07:58:28 GMT 37.794388 -104.723900 34,000 312 394 0
2019-01-10 07:58:25 GMT 37.786102 -104.711983 34,000 312 394 0
2019-01-10 07:58:22 GMT 37.786102 -104.711983 34,025 312 394 0
2019-01-10 07:58:18 GMT 37.781799 -104.705727 34,025 312 394 0
2019-01-10 07:58:15 GMT 37.777420 -104.699409 34,025 312 393 0
2019-01-10 07:58:11 GMT 37.773514 -104.693802 34,025 312 394 0
2019-01-10 07:58:08 GMT 37.769367 -104.687828 34,000 312 394 0
2019-01-10 07:58:04 GMT 37.765133 -104.681793 34,000 312 394 0
2019-01-10 07:58:01 GMT 37.760880 -104.675629 34,025 312 395 0
2019-01-10 07:57:57 GMT 37.756706 -104.669678 34,000 312 395 0
2019-01-10 07:57:54 GMT 37.751911 -104.662750 34,025 312 395 0
2019-01-10 07:57:50 GMT 37.748199 -104.657516 34,025 312 395 0
2019-01-10 07:57:45 GMT 37.742798 -104.649681 34,025 312 395 0
2019-01-10 07:57:42 GMT 37.738129 -104.643044 34,025 312 394 0
2019-01-10 07:57:39 GMT 37.734009 -104.637062 34,025 312 394 0
2019-01-10 07:57:35 GMT 37.730255 -104.631683 34,025 312 394 0
2019-01-10 07:57:31 GMT 37.725174 -104.624435 34,025 312 394 0
2019-01-10 07:57:28 GMT 37.720871 -104.618187 34,025 312 394 0
2019-01-10 07:57:25 GMT 37.718159 -104.614326 34,025 312 394 64
2019-01-10 07:57:20 GMT 37.712479 -104.606148 34,025 312 394 64
2019-01-10 07:57:15 GMT 37.705872 -104.596649 34,000 312 395 0
2019-01-10 07:57:10 GMT 37.699493 -104.587456 34,025 312 395 0
2019-01-10 07:57:05 GMT 37.692741 -104.577721 34,000 312 396 0
2019-01-10 07:57:00 GMT 37.689110 -104.572525 34,000 312 396 0
2019-01-10 07:56:57 GMT 37.683975 -104.565186 34,025 312 396 0
2019-01-10 07:56:54 GMT 37.680450 -104.560158 34,000 312 395 0
2019-01-10 07:56:49 GMT 37.674545 -104.551682 34,000 312 395 0
2019-01-10 07:56:44 GMT 37.667679 -104.541809 34,000 312 395 0
2019-01-10 07:56:38 GMT 37.661270 -104.532631 34,000 312 395 0
2019-01-10 07:56:33 GMT 37.655174 -104.523926 34,025 312 395 0
2019-01-10 07:56:28 GMT 37.648819 -104.514809 34,025 312 395 0
2019-01-10 07:56:23 GMT 37.642090 -104.505165 34,000 312 395 0
2019-01-10 07:56:17 GMT 37.635857 -104.496223 34,000 312 395 0
2019-01-10 07:56:12 GMT 37.630142 -104.488045 34,000 312 395 0
2019-01-10 07:56:07 GMT 37.623367 -104.478348 34,000 312 395 64
2019-01-10 07:56:02 GMT 37.617512 -104.469948 34,000 312 395 0
2019-01-10 07:55:56 GMT 37.610916 -104.460518 34,000 312 396 0
2019-01-10 07:55:53 GMT 37.604198 -104.450958 34,000 312 396 0
2019-01-10 07:55:46 GMT 37.597637 -104.441650 34,000 312 396 0
2019-01-10 07:55:41 GMT 37.591492 -104.432808 34,000 312 396 64
2019-01-10 07:55:35 GMT 37.585533 -104.424332 34,000 312 396 0
2019-01-10 07:55:32 GMT 37.580795 -104.417511 34,000 312 396 0
2019-01-10 07:55:25 GMT 37.566284 -104.396767 33,975 312 395 64
2019-01-10 07:55:20 GMT 37.566284 -104.396767 33,975 312 396 64
2019-01-10 07:55:14 GMT 37.559967 -104.387825 33,975 312 396 64
2019-01-10 07:55:08 GMT 37.553787 -104.378998 33,975 312 396 64
2019-01-10 07:55:04 GMT 37.547314 -104.369759 33,975 312 396 64
2019-01-10 07:55:00 GMT 37.541821 -104.362061 33,975 312 396 0
2019-01-10 07:54:56 GMT 37.537491 -104.355850 33,975 312 396 0
2019-01-10 07:54:53 GMT 37.534515 -104.351593 33,975 312 396 0
2019-01-10 07:54:47 GMT 37.527512 -104.341599 33,975 312 395 0
2019-01-10 07:54:43 GMT 37.521698 -104.333359 33,975 312 395 0
2019-01-10 07:54:37 GMT 37.515472 -104.324501 33,975 312 395 0
2019-01-10 07:54:32 GMT 37.509094 -104.315369 33,975 312 394 0
2019-01-10 07:54:28 GMT 37.503571 -104.307533 33,975 312 395 0
2019-01-10 07:54:24 GMT 37.499222 -104.301338 33,950 312 395 0
2019-01-10 07:54:21 GMT 37.496292 -104.297188 33,975 312 395 0
2019-01-10 07:54:16 GMT 37.489960 -104.288139 33,975 312 395 0
2019-01-10 07:54:13 GMT 37.486282 -104.283005 33,975 312 395 0
2019-01-10 07:54:10 GMT 37.483063 -104.278427 33,975 312 395 0
2019-01-10 07:54:03 GMT 37.473358 -104.264694 33,975 312 395 0
2019-01-10 07:54:00 GMT 37.470337 -104.260429 33,975 312 395 0
2019-01-10 07:53:53 GMT 37.461502 -104.247864 33,975 312 396 0
2019-01-10 07:53:49 GMT 37.457794 -104.242577 33,975 312 396 0
2019-01-10 07:53:43 GMT 37.449371 -104.230629 33,975 312 396 0
2019-01-10 07:53:40 GMT 37.445225 -104.224670 33,975 312 396 0
2019-01-10 07:53:34 GMT 37.439072 -104.215958 33,975 312 396 0
2019-01-10 07:53:31 GMT 37.435402 -104.210693 33,975 312 396 0
2019-01-10 07:53:28 GMT 37.432377 -104.206398 33,975 312 396 0
2019-01-10 07:53:22 GMT 37.424133 -104.194695 33,975 312 396 -64
2019-01-10 07:53:19 GMT 37.419758 -104.188484 33,975 312 396 -64
2019-01-10 07:53:14 GMT 37.413528 -104.179611 33,975 312 396 -64
2019-01-10 07:53:11 GMT 37.410774 -104.175766 33,975 312 396 -64
2019-01-10 07:53:08 GMT 37.407608 -104.171288 33,975 312 396 -64
2019-01-10 07:53:03 GMT 37.400719 -104.161499 33,975 312 395 -64
2019-01-10 07:52:58 GMT 37.394623 -104.152901 34,000 312 395 -64
2019-01-10 07:52:52 GMT 37.388058 -104.143585 34,000 312 395 0
2019-01-10 07:52:47 GMT 37.381897 -104.134903 34,000 312 396 0
2019-01-10 07:52:42 GMT 37.374939 -104.125145 34,000 312 396 -64
2019-01-10 07:52:39 GMT 37.371185 -104.119766 34,000 312 397 0
2019-01-10 07:52:36 GMT 37.367107 -104.114029 34,000 312 397 0
2019-01-10 07:52:31 GMT 37.362312 -104.107285 34,000 312 398 0
2019-01-10 07:52:26 GMT 37.356033 -104.098381 34,000 312 398 0
2019-01-10 07:52:21 GMT 37.348999 -104.088470 34,000 312 398 0
2019-01-10 07:52:18 GMT 37.342117 -104.078743 34,000 312 397 0
2019-01-10 07:52:10 GMT 37.336338 -104.070503 34,000 312 396 0
2019-01-10 07:52:05 GMT 37.330811 -104.062675 34,000 312 396 64
2019-01-10 07:51:59 GMT 37.323303 -104.052109 34,000 312 396 0
2019-01-10 07:51:54 GMT 37.316738 -104.042793 34,000 312 396 0
2019-01-10 07:51:47 GMT 37.307243 -104.029419 34,000 312 397 0
2019-01-10 07:51:43 GMT 37.304077 -104.024940 34,000 312 397 0
2019-01-10 07:51:38 GMT 37.293697 -104.010315 34,000 312 397 0
2019-01-10 07:51:34 GMT 37.293697 -104.010315 34,000 312 397 0
2019-01-10 07:51:28 GMT 37.285221 -103.998489 34,000 312 397 0
2019-01-10 07:51:24 GMT 37.280987 -103.992462 34,000 312 397 0
2019-01-10 07:51:17 GMT 37.270660 -103.977943 34,000 312 397 0
2019-01-10 07:51:13 GMT 37.268188 -103.974495 34,000 312 397 0
2019-01-10 07:51:07 GMT 37.259621 -103.962372 34,000 312 396 0
2019-01-10 07:51:04 GMT 37.256470 -103.958015 34,000 312 395 0
2019-01-10 07:51:01 GMT 37.253242 -103.953476 34,000 312 395 0
2019-01-10 07:50:54 GMT 37.243652 -103.939919 34,000 312 395 -64
2019-01-10 07:50:45 GMT 37.232941 -103.924820 34,025 312 393 0
2019-01-10 07:50:42 GMT 37.230476 -103.921288 34,000 312 392 0
2019-01-10 07:50:33 GMT 37.217972 -103.903786 34,000 312 392 0
2019-01-10 07:50:25 GMT 37.208588 -103.890579 34,000 312 392 0
2019-01-10 07:50:22 GMT 37.205429 -103.886192 34,000 312 391 0
2019-01-10 07:50:12 GMT 37.192291 -103.867729 34,000 312 390 0
2019-01-10 07:50:03 GMT 37.181717 -103.852882 34,000 312 390 0
2019-01-10 07:50:00 GMT 37.179970 -103.850479 34,000 312 390 0
2019-01-10 07:49:50 GMT 37.167664 -103.833191 34,000 312 390 0
2019-01-10 07:49:43 GMT 37.158695 -103.820679 34,000 312 390 64
2019-01-10 07:49:40 GMT 37.155029 -103.815544 34,000 312 390 64
2019-01-10 07:49:29 GMT 37.142258 -103.797661 33,975 312 392 128
2019-01-10 07:49:22 GMT 37.132599 -103.784103 33,925 312 392 640
2019-01-10 07:49:18 GMT 37.128845 -103.778839 33,900 312 392 640
2019-01-10 07:49:12 GMT 37.117355 -103.762772 33,800 312 392 640
2019-01-10 07:49:09 GMT 37.117355 -103.762772 33,800 312 392 640
2019-01-10 07:48:58 GMT 37.104721 -103.745064 33,675 312 391 832
2019-01-10 07:48:49 GMT 37.093800 -103.729744 33,550 312 392 960
2019-01-10 07:48:46 GMT 37.089890 -103.724373 33,500 312 393 896
2019-01-10 07:48:37 GMT 37.079453 -103.709709 33,375 312 393 896
2019-01-10 07:48:26 GMT 37.066429 -103.691528 33,200 312 393 832
2019-01-10 07:48:17 GMT 37.053673 -103.673737 33,100 312 392 640
2019-01-10 07:48:05 GMT 37.040955 -103.655891 32,975 312 391 704
2019-01-10 07:47:56 GMT 37.028488 -103.638390 32,825 312 392 1152
2019-01-10 07:47:44 GMT 37.015640 -103.620422 32,575 312 394 1408
2019-01-10 07:47:35 GMT 37.002869 -103.602654 32,325 312 397 1472
2019-01-10 07:47:24 GMT 36.989548 -103.584183 32,050 312 400 1664
2019-01-10 07:47:12 GMT 36.975998 -103.565430 31,725 313 404 1728
2019-01-10 07:47:03 GMT 36.962757 -103.547096 31,450 312 407 1536
2019-01-10 07:47:00 GMT 36.960846 -103.544472 31,400 312 408 1088
2019-01-10 07:46:51 GMT 36.949535 -103.528709 31,225 312 408 1024
2019-01-10 07:46:41 GMT 36.936218 -103.510147 31,050 312 409 960
2019-01-10 07:46:32 GMT 36.924164 -103.493362 30,900 312 409 1152
2019-01-10 07:46:29 GMT 36.919922 -103.487473 30,825 312 410 1216
2019-01-10 07:46:19 GMT 36.908291 -103.471390 30,625 313 412 1408
2019-01-10 07:46:10 GMT 36.895935 -103.454338 30,350 313 413 1152
2019-01-10 07:46:07 GMT 36.892181 -103.449120 30,350 313 413 1152
2019-01-10 07:45:58 GMT 36.882500 -103.435860 30,150 313 416 1920
2019-01-10 07:45:55 GMT 36.878723 -103.430611 30,075 313 417 1280
2019-01-10 07:45:50 GMT 36.870163 -103.418808 29,950 312 417 448
2019-01-10 07:45:36 GMT 36.853546 -103.395782 29,875 313 414 448
2019-01-10 07:45:29 GMT 36.843384 -103.381805 29,800 313 413 704
2019-01-10 07:45:15 GMT 36.825798 -103.357506 29,625 313 412 768
2019-01-10 07:45:08 GMT 36.816833 -103.345070 29,550 312 411 768
2019-01-10 07:45:04 GMT 36.811844 -103.338203 29,500 312 411 768
2019-01-10 07:44:55 GMT 36.800243 -103.322151 29,350 313 410 896
2019-01-10 07:44:45 GMT 36.787022 -103.303917 29,175 312 410 1152
2019-01-10 07:44:33 GMT 36.773430 -103.285156 28,950 313 410 1280
2019-01-10 07:44:26 GMT 36.763092 -103.270859 28,775 312 411 1472
2019-01-10 07:44:23 GMT 36.760162 -103.266792 28,725 313 412 1408
2019-01-10 07:44:13 GMT 36.746521 -103.248055 28,475 313 412 1088
2019-01-10 07:44:01 GMT 36.732464 -103.228706 28,300 313 412 896
2019-01-10 07:43:52 GMT 36.719707 -103.211121 28,150 313 410 832
2019-01-10 07:43:43 GMT 36.709511 -103.197090 28,050 313 409 384
2019-01-10 07:43:40 GMT 36.705231 -103.191132 28,025 313 409 384
2019-01-10 07:43:32 GMT 36.695312 -103.177513 28,000 313 408 0
2019-01-10 07:43:29 GMT 36.691402 -103.172142 28,000 313 408 0
2019-01-10 07:43:19 GMT 36.677994 -103.153725 28,000 313 412 0
2019-01-10 07:43:10 GMT 36.667374 -103.139305 28,000 313 411 0
2019-01-10 07:43:00 GMT 36.653370 -103.120071 28,000 313 413 0
2019-01-10 07:42:56 GMT 36.649612 -103.114876 28,000 312 414 0
2019-01-10 07:42:47 GMT 36.636517 -103.096870 28,000 312 418 0
2019-01-10 07:42:38 GMT 36.626450 -103.083000 28,000 313 421 0
2019-01-10 07:42:33 GMT 36.620316 -103.074532 28,000 313 421 -64
2019-01-10 07:42:29 GMT 36.612869 -103.064438 28,000 313 422 -64
2019-01-10 07:42:26 GMT 36.609787 -103.060165 28,000 313 422 0
2019-01-10 07:42:16 GMT 36.595924 -103.041237 28,000 313 422 64
2019-01-10 07:42:08 GMT 36.585388 -103.026810 28,000 313 422 0
2019-01-10 07:42:05 GMT 36.582050 -103.022247 28,000 313 421 0
2019-01-10 07:41:56 GMT 36.571251 -103.007523 28,000 313 422 0
2019-01-10 07:41:53 GMT 36.567574 -103.002495 28,000 313 422 0
2019-01-10 07:41:44 GMT 36.554306 -102.984383 28,000 313 421 0
2019-01-10 07:41:36 GMT 36.544483 -102.970940 28,000 313 420 0
2019-01-10 07:41:31 GMT 36.538834 -102.963181 28,000 313 419 0
2019-01-10 07:41:26 GMT 36.531235 -102.952827 28,000 313 419 0
2019-01-10 07:41:23 GMT 36.525955 -102.945580 28,000 313 419 0
2019-01-10 07:41:16 GMT 36.517044 -102.933372 28,000 313 419 0
2019-01-10 07:41:12 GMT 36.512192 -102.926788 28,000 313 419 0
2019-01-10 07:41:05 GMT 36.503380 -102.914780 28,000 313 419 -64
2019-01-10 07:41:00 GMT 36.498093 -102.907616 28,000 313 419 -64
2019-01-10 07:40:55 GMT 36.489624 -102.896004 28,000 313 419 0
2019-01-10 07:40:51 GMT 36.483856 -102.888222 28,000 313 419 64
2019-01-10 07:40:43 GMT 36.475166 -102.876389 28,000 313 419 0
2019-01-10 07:40:40 GMT 36.470699 -102.870308 28,000 313 421 64
2019-01-10 07:40:33 GMT 36.461666 -102.858032 28,000 313 421 0
2019-01-10 07:40:28 GMT 36.456345 -102.850861 28,000 313 421 64
2019-01-10 07:40:22 GMT 36.448215 -102.839859 28,000 313 421 0
2019-01-10 07:40:19 GMT 36.442383 -102.831917 28,000 313 421 0
2019-01-10 07:40:13 GMT 36.435459 -102.822563 28,000 313 421 0
2019-01-10 07:40:08 GMT 36.428337 -102.812981 28,000 313 421 0
2019-01-10 07:40:02 GMT 36.421188 -102.803246 28,000 313 419 0
2019-01-10 07:39:56 GMT 36.413864 -102.793297 28,000 313 419 0
2019-01-10 07:39:52 GMT 36.407227 -102.784248 28,000 313 419 -64
2019-01-10 07:39:47 GMT 36.400917 -102.775642 28,000 313 418 -64
2019-01-10 07:39:39 GMT 36.390862 -102.762024 28,000 313 418 0
2019-01-10 07:39:35 GMT 36.386951 -102.756706 28,000 313 418 0
2019-01-10 07:39:30 GMT 36.378757 -102.745544 28,000 313 418 0
2019-01-10 07:39:24 GMT 36.372665 -102.737274 28,000 313 419 0
2019-01-10 07:39:19 GMT 36.365341 -102.727371 28,000 313 419 0
2019-01-10 07:39:15 GMT 36.359394 -102.719307 28,000 313 419 0
2019-01-10 07:39:10 GMT 36.351944 -102.709198 28,000 313 419 0
2019-01-10 07:39:03 GMT 36.344868 -102.699608 28,000 313 419 0
2019-01-10 07:38:59 GMT 36.338863 -102.691429 28,000 313 419 0
2019-01-10 07:38:53 GMT 36.331276 -102.681206 28,000 313 419 -64
2019-01-10 07:38:47 GMT 36.323776 -102.671013 28,000 313 419 -64
2019-01-10 07:38:43 GMT 36.317680 -102.662796 28,000 313 418 0
2019-01-10 07:38:36 GMT 36.309208 -102.651344 28,000 313 418 64
2019-01-10 07:38:32 GMT 36.303345 -102.643333 28,000 313 418 0
2019-01-10 07:38:28 GMT 36.297432 -102.635391 28,000 313 418 0
2019-01-10 07:38:21 GMT 36.289101 -102.624107 28,000 313 418 -64
2019-01-10 07:38:15 GMT 36.281479 -102.613731 28,000 313 419 0
2019-01-10 07:38:10 GMT 36.275848 -102.606178 28,000 313 418 64
2019-01-10 07:38:07 GMT 36.269875 -102.598160 28,000 313 418 0
2019-01-10 07:38:01 GMT 36.261841 -102.587296 28,000 313 418 64
2019-01-10 07:37:56 GMT 36.256348 -102.579918 28,000 313 419 64
2019-01-10 07:37:50 GMT 36.248272 -102.569061 28,000 313 419 0
2019-01-10 07:37:45 GMT 36.240826 -102.559006 28,000 313 419 0
2019-01-10 07:37:39 GMT 36.234261 -102.550186 28,000 313 419 0
2019-01-10 07:37:35 GMT 36.229279 -102.543465 28,000 313 419 0
2019-01-10 07:37:29 GMT 36.220387 -102.531425 28,000 313 419 0
2019-01-10 07:37:25 GMT 36.214756 -102.523827 28,000 313 418 0
2019-01-10 07:37:17 GMT 36.206177 -102.512283 28,000 313 418 0
2019-01-10 07:37:14 GMT 36.201813 -102.506416 28,000 313 417 0
2019-01-10 07:37:08 GMT 36.194782 -102.496887 28,000 313 417 0
2019-01-10 07:37:04 GMT 36.187363 -102.486938 28,000 313 417 0
2019-01-10 07:36:57 GMT 36.178482 -102.474976 28,000 313 417 0
2019-01-10 07:36:52 GMT 36.173229 -102.467850 28,000 313 417 0
2019-01-10 07:36:46 GMT 36.164932 -102.456665 28,000 313 418 0
2019-01-10 07:36:41 GMT 36.158386 -102.447906 28,000 313 418 0
2019-01-10 07:36:36 GMT 36.151119 -102.438103 28,000 313 418 0
2019-01-10 07:36:32 GMT 36.146790 -102.432320 28,000 313 418 0
2019-01-10 07:36:26 GMT 36.132706 -102.413406 28,000 313 418 0
2019-01-10 07:36:22 GMT 36.132706 -102.413406 28,000 313 418 0
2019-01-10 07:36:14 GMT 36.123276 -102.400764 28,000 313 418 0
2019-01-10 07:36:11 GMT 36.119091 -102.395210 28,000 313 418 0
2019-01-10 07:36:04 GMT 36.108902 -102.381592 28,000 313 419 0
2019-01-10 07:36:00 GMT 36.104378 -102.375511 28,000 313 419 0
2019-01-10 07:35:53 GMT 36.095722 -102.363884 28,000 313 419 0
2019-01-10 07:35:49 GMT 36.090042 -102.356239 28,000 313 419 0
2019-01-10 07:35:43 GMT 36.082127 -102.345596 28,000 313 418 64
2019-01-10 07:35:39 GMT 36.078094 -102.340218 28,000 313 418 0
2019-01-10 07:35:32 GMT 36.067978 -102.326714 28,000 313 418 0
2019-01-10 07:35:29 GMT 36.064251 -102.321693 28,000 313 418 0
2019-01-10 07:35:22 GMT 36.053452 -102.307320 28,000 313 418 -64
2019-01-10 07:35:17 GMT 36.049210 -102.301598 28,000 313 418 0
2019-01-10 07:35:13 GMT 36.041302 -102.291016 28,000 313 417 0
2019-01-10 07:35:09 GMT 36.036667 -102.284775 28,000 313 416 0
2019-01-10 07:35:02 GMT 36.029343 -102.274933 28,000 313 416 0
2019-01-10 07:34:59 GMT 36.025955 -102.270409 28,000 313 416 0
2019-01-10 07:34:56 GMT 36.021378 -102.264290 28,000 313 416 0
2019-01-10 07:34:51 GMT 36.015186 -102.256012 28,000 313 416 0
2019-01-10 07:34:48 GMT 36.009552 -102.248466 28,000 313 416 0
2019-01-10 07:34:41 GMT 36.001453 -102.237656 28,000 313 416 0
2019-01-10 07:34:36 GMT 35.996017 -102.230415 28,000 313 416 0
2019-01-10 07:34:27 GMT 35.981552 -102.211243 28,000 313 417 0
2019-01-10 07:34:15 GMT 35.967819 -102.192879 28,000 313 416 -64
2019-01-10 07:34:06 GMT 35.955086 -102.175888 28,000 313 416 0
2019-01-10 07:33:59 GMT 35.946056 -102.163910 28,000 313 416 0
2019-01-10 07:33:54 GMT 35.940262 -102.156143 28,000 313 415 0
2019-01-10 07:33:45 GMT 35.927013 -102.138489 28,000 313 416 0
2019-01-10 07:33:37 GMT 35.918198 -102.126732 28,000 313 416 0
2019-01-10 07:33:33 GMT 35.913422 -102.120430 28,000 313 416 0
2019-01-10 07:33:27 GMT 35.904694 -102.108826 28,000 313 416 -64
2019-01-10 07:33:23 GMT 35.898758 -102.100914 28,000 313 416 0
2019-01-10 07:33:16 GMT 35.891171 -102.090805 28,000 313 416 0
2019-01-10 07:33:09 GMT 35.881943 -102.078552 28,000 313 416 64
2019-01-10 07:33:06 GMT 35.877438 -102.072571 28,000 313 416 64
2019-01-10 07:33:01 GMT 35.869431 -102.061935 28,000 313 416 0
2019-01-10 07:32:56 GMT 35.863285 -102.053757 28,000 313 416 0
2019-01-10 07:32:45 GMT 35.849991 -102.036095 28,000 313 416 0
2019-01-10 07:32:36 GMT 35.836395 -102.018013 28,000 313 416 0
2019-01-10 07:32:24 GMT 35.822182 -101.999176 28,000 313 417 0
2019-01-10 07:32:15 GMT 35.809113 -101.981911 28,000 313 417 0
2019-01-10 07:32:02 GMT 35.794064 -101.961952 28,000 313 418 0
2019-01-10 07:31:54 GMT 35.780685 -101.944260 28,000 313 418 0
2019-01-10 07:31:48 GMT 35.774975 -101.936707 28,000 313 418 0
2019-01-10 07:31:42 GMT 35.767483 -101.926773 28,000 313 418 0
2019-01-10 07:31:39 GMT 35.762218 -101.919815 28,000 313 417 0
2019-01-10 07:31:33 GMT 35.753654 -101.908478 28,000 313 416 0
2019-01-10 07:31:28 GMT 35.749092 -101.902405 28,000 313 416 0
2019-01-10 07:31:21 GMT 35.739780 -101.890068 28,000 313 416 0
2019-01-10 07:31:16 GMT 35.733673 -101.882057 28,000 313 416 0
2019-01-10 07:31:11 GMT 35.725983 -101.871819 28,000 313 416 0
2019-01-10 07:31:08 GMT 35.721439 -101.865875 28,000 313 415 64
2019-01-10 07:31:00 GMT 35.712315 -101.853722 28,000 313 416 64
2019-01-10 07:30:53 GMT 35.703094 -101.841545 28,000 313 416 64
2019-01-10 07:30:50 GMT 35.698608 -101.835648 28,000 313 416 0
2019-01-10 07:30:46 GMT 35.692390 -101.827423 28,000 313 416 -64
2019-01-10 07:30:39 GMT 35.684326 -101.816772 28,000 313 416 0
2019-01-10 07:30:36 GMT 35.680195 -101.811295 28,000 313 416 0
2019-01-10 07:30:30 GMT 35.671829 -101.800285 28,000 313 416 0
2019-01-10 07:30:26 GMT 35.667252 -101.794228 28,000 313 416 0
2019-01-10 07:30:16 GMT 35.652512 -101.774879 28,000 313 416 0
2019-01-10 07:30:09 GMT 35.643814 -101.763435 28,000 313 416 0
2019-01-10 07:30:04 GMT 35.638550 -101.756516 28,000 314 417 -64
2019-01-10 07:29:57 GMT 35.629349 -101.744446 28,000 313 417 0
2019-01-10 07:29:54 GMT 35.623535 -101.736771 28,000 313 417 0
2019-01-10 07:29:48 GMT 35.615662 -101.726357 28,000 313 417 0
2019-01-10 07:29:44 GMT 35.611485 -101.720947 28,000 313 417 0
2019-01-10 07:29:36 GMT 35.601700 -101.708054 28,000 313 416 0
2019-01-10 07:29:33 GMT 35.596985 -101.701813 28,000 313 416 0
2019-01-10 07:29:27 GMT 35.588287 -101.690430 28,000 313 416 0
2019-01-10 07:29:23 GMT 35.584019 -101.684776 28,000 314 416 0
2019-01-10 07:29:16 GMT 35.574600 -101.672462 28,000 314 416 0
2019-01-10 07:29:10 GMT 35.565723 -101.660820 28,000 314 416 0
2019-01-10 07:29:06 GMT 35.561188 -101.654892 28,000 314 417 0
2019-01-10 07:29:00 GMT 35.554131 -101.645622 28,000 314 417 0
2019-01-10 07:28:54 GMT 35.547291 -101.636627 28,000 314 417 0
2019-01-10 07:28:51 GMT 35.541550 -101.629143 28,000 314 417 0
2019-01-10 07:28:44 GMT 35.532253 -101.616989 28,000 314 417 0
2019-01-10 07:28:41 GMT 35.529007 -101.612717 28,000 314 417 0
2019-01-10 07:28:34 GMT 35.519405 -101.600220 28,000 314 417 64
2019-01-10 07:28:30 GMT 35.513863 -101.592972 28,000 313 416 0
2019-01-10 07:28:24 GMT 35.504925 -101.581223 28,000 314 417 0
2019-01-10 07:28:20 GMT 35.500763 -101.575813 28,000 314 417 -64
2019-01-10 07:28:10 GMT 35.487167 -101.558022 28,000 313 416 0
2019-01-10 07:28:03 GMT 35.477325 -101.545090 28,000 314 416 -64
2019-01-10 07:27:57 GMT 35.471512 -101.537537 28,000 314 416 -64
2019-01-10 07:27:51 GMT 35.463501 -101.527000 28,000 314 416 64
2019-01-10 07:27:48 GMT 35.457630 -101.519341 28,000 314 416 0
2019-01-10 07:27:42 GMT 35.450592 -101.510124 28,000 314 416 0
2019-01-10 07:27:37 GMT 35.444454 -101.502159 28,000 314 416 -64
2019-01-10 07:27:30 GMT 35.436081 -101.491180 28,000 314 416 0
2019-01-10 07:27:26 GMT 35.430405 -101.483803 28,000 314 416 0
2019-01-10 07:27:21 GMT 35.422436 -101.473412 28,000 314 418 0
2019-01-10 07:27:17 GMT 35.417919 -101.467506 28,000 314 418 0
2019-01-10 07:27:10 GMT 35.408657 -101.455406 28,000 314 418 0
2019-01-10 07:27:06 GMT 35.404697 -101.450264 28,000 314 418 0
2019-01-10 07:27:00 GMT 35.394379 -101.436829 28,000 314 419 0
2019-01-10 07:26:54 GMT 35.387287 -101.427589 28,000 314 419 0
2019-01-10 07:26:48 GMT 35.380463 -101.418686 28,000 314 420 0
2019-01-10 07:26:45 GMT 35.376434 -101.413483 28,000 314 420 0
2019-01-10 07:26:39 GMT 35.366592 -101.400658 28,000 314 420 0
2019-01-10 07:26:35 GMT 35.360596 -101.392822 28,000 314 420 64
2019-01-10 07:26:27 GMT 35.352356 -101.382118 28,000 314 419 0
2019-01-10 07:26:24 GMT 35.348877 -101.377602 28,000 314 419 -64
2019-01-10 07:26:18 GMT 35.339386 -101.365242 28,000 314 419 -64
2019-01-10 07:26:15 GMT 35.335052 -101.359634 28,000 314 419 0
2019-01-10 07:26:04 GMT 35.321228 -101.341667 28,000 314 419 0
2019-01-10 07:25:57 GMT 35.310524 -101.327721 28,000 314 419 64
2019-01-10 07:25:54 GMT 35.307220 -101.323456 28,000 314 419 64
2019-01-10 07:25:43 GMT 35.293255 -101.305283 28,000 314 420 -64
2019-01-10 07:25:36 GMT 35.282684 -101.291664 28,000 314 420 0
2019-01-10 07:25:30 GMT 35.276779 -101.283936 28,000 314 420 64
2019-01-10 07:25:22 GMT 35.264420 -101.267906 28,000 314 418 0
2019-01-10 07:25:15 GMT 35.254475 -101.255081 28,000 314 419 0
2019-01-10 07:25:12 GMT 35.251785 -101.251549 28,000 314 419 0
2019-01-10 07:25:02 GMT 35.237858 -101.233521 28,000 314 419 -64
2019-01-10 07:24:54 GMT 35.226425 -101.218613 28,000 314 418 0
2019-01-10 07:24:51 GMT 35.224358 -101.215897 28,000 314 418 0
2019-01-10 07:24:41 GMT 35.209785 -101.197014 28,000 314 418 0
2019-01-10 07:24:33 GMT 35.195213 -101.178078 28,000 314 418 0
2019-01-10 07:24:22 GMT 35.185730 -101.165810 28,000 314 418 0
2019-01-10 07:24:14 GMT 35.174332 -101.151009 28,000 314 418 0
2019-01-10 07:24:11 GMT 35.170853 -101.146530 28,000 314 418 0
2019-01-10 07:24:07 GMT 35.166538 -101.140938 28,000 314 418 0
2019-01-10 07:24:01 GMT 35.156994 -101.128578 28,000 314 418 0
2019-01-10 07:23:51 GMT 35.142838 -101.110313 28,000 314 417 0
2019-01-10 07:23:37 GMT 35.126129 -101.088791 28,000 314 417 0
2019-01-10 07:23:28 GMT 35.113747 -101.072845 28,000 314 417 0
2019-01-10 07:23:17 GMT 35.099487 -101.054489 28,000 314 418 0
2019-01-10 07:23:10 GMT 35.090195 -101.042496 28,000 314 417 64
2019-01-10 07:23:07 GMT 35.084747 -101.035484 28,000 314 416 -64
2019-01-10 07:22:57 GMT 35.073212 -101.020630 28,000 314 416 64
2019-01-10 07:22:47 GMT 35.059002 -101.002296 28,000 314 416 0
2019-01-10 07:22:36 GMT 35.045837 -100.985321 28,000 314 416 0
2019-01-10 07:22:27 GMT 35.032562 -100.968277 28,000 314 416 0
2019-01-10 07:22:16 GMT 35.018597 -100.950279 28,000 314 417 0
2019-01-10 07:22:06 GMT 35.004822 -100.932632 28,000 314 418 0
2019-01-10 07:21:55 GMT 34.990757 -100.914635 28,000 314 418 0
2019-01-10 07:21:45 GMT 34.976372 -100.896149 28,000 314 418 0
2019-01-10 07:21:34 GMT 34.962547 -100.878410 28,000 314 418 0
2019-01-10 07:21:24 GMT 34.948380 -100.860207 28,000 314 418 0
2019-01-10 07:21:13 GMT 34.934616 -100.842529 28,000 314 417 0
2019-01-10 07:21:03 GMT 34.920502 -100.824394 28,000 314 417 0
2019-01-10 07:20:51 GMT 34.906540 -100.806511 28,000 314 417 0
2019-01-10 07:20:42 GMT 34.892441 -100.788521 28,000 314 418 0
2019-01-10 07:20:31 GMT 34.878380 -100.770554 28,000 314 418 0
2019-01-10 07:20:21 GMT 34.864880 -100.753265 28,000 314 418 -64
2019-01-10 07:20:10 GMT 34.850967 -100.735382 28,000 314 418 -64
2019-01-10 07:20:00 GMT 34.836761 -100.717278 28,000 314 417 0
2019-01-10 07:19:48 GMT 34.822609 -100.699310 28,000 314 417 0
2019-01-10 07:19:39 GMT 34.808807 -100.681740 28,000 314 418 0
2019-01-10 07:19:27 GMT 34.794067 -100.663017 28,000 314 419 0
2019-01-10 07:19:18 GMT 34.780621 -100.645866 28,000 314 420 0
2019-01-10 07:19:07 GMT 34.766979 -100.628410 28,000 314 420 0
2019-01-10 07:18:57 GMT 34.752922 -100.610504 28,000 314 419 0
2019-01-10 07:18:46 GMT 34.738163 -100.591789 28,000 314 418 0
2019-01-10 07:18:36 GMT 34.724895 -100.574913 28,000 314 418 0
2019-01-10 07:18:25 GMT 34.710560 -100.556717 28,000 314 418 0
2019-01-10 07:18:15 GMT 34.696499 -100.538918 28,000 314 418 0
2019-01-10 07:18:04 GMT 34.681870 -100.520309 28,000 314 418 0
2019-01-10 07:17:54 GMT 34.668228 -100.503044 28,000 314 417 0
2019-01-10 07:17:43 GMT 34.654415 -100.485535 28,000 314 417 0
2019-01-10 07:17:33 GMT 34.639706 -100.466934 28,000 314 418 0
2019-01-10 07:17:24 GMT 34.627834 -100.451889 28,000 314 417 0
2019-01-10 07:17:21 GMT 34.625694 -100.449203 28,000 314 417 0
2019-01-10 07:17:12 GMT 34.612381 -100.432259 28,000 314 416 0
2019-01-10 07:17:01 GMT 34.597961 -100.413918 28,000 314 416 0
2019-01-10 07:16:51 GMT 34.583241 -100.395294 28,000 314 417 64
2019-01-10 07:16:40 GMT 34.570251 -100.378937 28,000 314 418 0
2019-01-10 07:16:30 GMT 34.556190 -100.361198 28,000 314 418 -64
2019-01-10 07:16:19 GMT 34.541794 -100.342957 28,000 314 418 0
2019-01-10 07:16:09 GMT 34.527096 -100.324402 28,000 314 418 0
2019-01-10 07:15:58 GMT 34.514008 -100.307922 28,000 314 418 0
2019-01-10 07:15:48 GMT 34.500000 -100.290375 28,000 314 419 0
2019-01-10 07:15:37 GMT 34.485626 -100.272217 28,000 314 420 0
2019-01-10 07:15:27 GMT 34.471481 -100.254448 28,000 314 419 64
2019-01-10 07:15:16 GMT 34.457245 -100.236511 28,000 314 419 0
2019-01-10 07:15:06 GMT 34.443008 -100.218575 28,000 314 419 -64
2019-01-10 07:14:55 GMT 34.429012 -100.200867 28,000 314 418 0
2019-01-10 07:14:45 GMT 34.414021 -100.181976 28,000 314 417 0
2019-01-10 07:14:36 GMT 34.404053 -100.169472 28,000 314 417 -64
2019-01-10 07:14:33 GMT 34.400616 -100.165154 28,000 314 417 -64
2019-01-10 07:14:27 GMT 34.391911 -100.154282 28,000 314 416 64
2019-01-10 07:14:23 GMT 34.386185 -100.147018 28,000 314 416 0
2019-01-10 07:14:13 GMT 34.373241 -100.130768 28,000 314 415 0
2019-01-10 07:14:03 GMT 34.358578 -100.112343 28,000 314 415 0
2019-01-10 07:13:55 GMT 34.348526 -100.099686 28,000 314 415 0
2019-01-10 07:13:51 GMT 34.344635 -100.094810 28,000 314 416 0
2019-01-10 07:13:44 GMT 34.334415 -100.082016 28,000 315 415 64
2019-01-10 07:13:41 GMT 34.329994 -100.076469 28,000 315 415 0
2019-01-10 07:13:34 GMT 34.320126 -100.064110 28,000 315 415 0
2019-01-10 07:13:31 GMT 34.316574 -100.059723 28,000 315 415 0
2019-01-10 07:13:22 GMT 34.305927 -100.046425 28,000 315 415 0
2019-01-10 07:13:17 GMT 34.299042 -100.037857 28,000 314 416 0
2019-01-10 07:13:13 GMT 34.292084 -100.029114 28,000 314 416 0
2019-01-10 07:13:08 GMT 34.285583 -100.021019 28,000 314 416 0
2019-01-10 07:13:01 GMT 34.278030 -100.011574 28,000 314 415 0
2019-01-10 07:12:57 GMT 34.271431 -100.003342 28,000 314 415 0
2019-01-10 07:12:52 GMT 34.264206 -99.994247 28,000 314 415 0
2019-01-10 07:12:47 GMT 34.258118 -99.986687 28,000 314 415 0
2019-01-10 07:12:41 GMT 34.250389 -99.977013 28,000 314 415 0
2019-01-10 07:12:37 GMT 34.245457 -99.970840 28,000 315 415 0
2019-01-10 07:12:34 GMT 34.240723 -99.964935 28,000 314 415 64
2019-01-10 07:12:31 GMT 34.236099 -99.959167 28,000 315 415 0
2019-01-10 07:12:28 GMT 34.232025 -99.954063 28,000 314 416 0
2019-01-10 07:12:23 GMT 34.227219 -99.948067 28,000 315 415 64
2019-01-10 07:12:20 GMT 34.222321 -99.941940 28,000 314 416 0
2019-01-10 07:12:17 GMT 34.217896 -99.936447 28,000 314 416 0
2019-01-10 07:12:10 GMT 34.208450 -99.924637 28,000 315 416 -64
2019-01-10 07:12:07 GMT 34.203697 -99.918762 28,000 315 415 0
2019-01-10 07:12:04 GMT 34.201721 -99.916336 28,000 315 415 64
2019-01-10 07:11:59 GMT 34.194077 -99.906807 28,000 315 415 0
2019-01-10 07:11:55 GMT 34.187668 -99.898849 28,000 315 415 0
2019-01-10 07:11:46 GMT 34.175533 -99.883743 28,000 315 415 -64
2019-01-10 07:11:43 GMT 34.173531 -99.881287 28,000 315 415 0
2019-01-10 07:11:38 GMT 34.166107 -99.872055 28,000 315 415 0
2019-01-10 07:11:34 GMT 34.159698 -99.864044 28,000 315 415 0
2019-01-10 07:11:28 GMT 34.152466 -99.855019 28,000 315 414 0
2019-01-10 07:11:25 GMT 34.147743 -99.849129 28,000 315 414 0
2019-01-10 07:11:22 GMT 34.145554 -99.846382 28,000 315 414 0
2019-01-10 07:11:18 GMT 34.138523 -99.837685 28,000 315 414 0
2019-01-10 07:11:13 GMT 34.131588 -99.829102 28,000 315 414 0
2019-01-10 07:11:07 GMT 34.124512 -99.820290 28,000 315 415 0
2019-01-10 07:11:02 GMT 34.117905 -99.812080 28,000 315 415 -64
2019-01-10 07:10:57 GMT 34.110455 -99.802834 28,000 315 415 0
2019-01-10 07:10:52 GMT 34.104031 -99.794884 28,000 315 415 0
2019-01-10 07:10:46 GMT 34.096394 -99.785385 28,000 315 416 0
2019-01-10 07:10:43 GMT 34.091125 -99.778839 28,000 315 416 0
2019-01-10 07:10:39 GMT 34.087234 -99.774017 28,000 315 416 64
2019-01-10 07:10:34 GMT 34.079956 -99.765053 28,000 315 416 0
2019-01-10 07:10:30 GMT 34.075726 -99.759811 28,000 315 416 0
2019-01-10 07:10:25 GMT 34.062881 -99.743919 28,000 315 416 0
2019-01-10 07:10:22 GMT 34.062881 -99.743919 28,000 315 417 0
2019-01-10 07:10:19 GMT 34.060089 -99.740387 28,000 315 417 0
2019-01-10 07:10:13 GMT 34.051800 -99.730164 28,000 315 417 0
2019-01-10 07:10:10 GMT 34.047958 -99.725426 28,000 315 417 0
2019-01-10 07:10:03 GMT 34.037785 -99.712830 28,000 315 417 0
2019-01-10 07:09:59 GMT 34.032852 -99.706757 28,000 315 417 0
2019-01-10 07:09:51 GMT 34.023331 -99.694931 28,000 315 416 0
2019-01-10 07:09:48 GMT 34.019489 -99.690170 28,000 315 415 0
2019-01-10 07:09:44 GMT 34.012135 -99.681015 28,000 315 415 0
2019-01-10 07:09:39 GMT 34.005993 -99.673409 28,000 315 415 0
2019-01-10 07:09:31 GMT 33.995235 -99.660133 28,000 315 415 0
2019-01-10 07:09:27 GMT 33.991287 -99.655243 28,000 315 415 0
2019-01-10 07:09:23 GMT 33.984390 -99.646683 28,000 315 415 0
2019-01-10 07:09:20 GMT 33.979549 -99.640732 28,000 315 415 0
2019-01-10 07:09:17 GMT 33.977688 -99.638390 28,000 315 415 0
2019-01-10 07:09:10 GMT 33.967804 -99.626205 28,000 315 415 0
2019-01-10 07:09:07 GMT 33.963444 -99.620819 28,000 315 415 0
2019-01-10 07:09:02 GMT 33.953751 -99.608780 28,000 315 415 0
2019-01-10 07:08:56 GMT 33.949585 -99.603622 28,000 315 415 0
2019-01-10 07:08:50 GMT 33.939514 -99.591232 28,000 315 416 0
2019-01-10 07:08:47 GMT 33.936172 -99.587082 28,000 315 417 0
2019-01-10 07:08:38 GMT 33.921982 -99.569649 28,000 315 417 0
2019-01-10 07:08:34 GMT 33.919418 -99.566460 28,000 315 417 0
2019-01-10 07:08:30 GMT 33.913956 -99.559708 28,000 315 417 0
2019-01-10 07:08:25 GMT 33.907486 -99.551697 28,000 315 417 0
2019-01-10 07:08:19 GMT 33.899803 -99.542198 28,000 315 418 0
2019-01-10 07:08:16 GMT 33.894547 -99.535728 28,000 315 418 0
2019-01-10 07:08:13 GMT 33.891632 -99.532150 28,000 315 418 0
2019-01-10 07:08:10 GMT 33.886093 -99.525314 28,000 315 418 -64
2019-01-10 07:08:04 GMT 33.879227 -99.516792 28,000 315 417 0
2019-01-10 07:07:59 GMT 33.872154 -99.508041 28,000 315 418 0
2019-01-10 07:07:54 GMT 33.865173 -99.499474 28,000 315 418 0
2019-01-10 07:07:49 GMT 33.857758 -99.490341 28,000 315 418 0
2019-01-10 07:07:43 GMT 33.850647 -99.481606 28,000 315 418 64
2019-01-10 07:07:37 GMT 33.842880 -99.472008 28,000 315 420 0
2019-01-10 07:07:33 GMT 33.836472 -99.464165 28,000 315 420 0
2019-01-10 07:07:27 GMT 33.829231 -99.455223 28,000 315 420 0
2019-01-10 07:07:23 GMT 33.822235 -99.446617 28,000 315 420 0
2019-01-10 07:07:17 GMT 33.815128 -99.437881 28,000 315 420 0
2019-01-10 07:07:12 GMT 33.807121 -99.428040 28,000 315 419 0
2019-01-10 07:07:07 GMT 33.802372 -99.422211 28,000 315 418 0
2019-01-10 07:07:04 GMT 33.797344 -99.416023 28,000 315 417 0
2019-01-10 07:07:01 GMT 33.792984 -99.410629 28,000 315 417 0
2019-01-10 07:06:56 GMT 33.786682 -99.402924 28,000 315 416 0
2019-01-10 07:06:51 GMT 33.778908 -99.393372 28,000 315 415 0
2019-01-10 07:06:45 GMT 33.772858 -99.385925 28,000 315 414 0
2019-01-10 07:06:40 GMT 33.765564 -99.376999 28,000 315 413 0
2019-01-10 07:06:36 GMT 33.758881 -99.368759 28,000 315 412 0
2019-01-10 07:06:30 GMT 33.750732 -99.358780 28,000 315 412 0
2019-01-10 07:06:24 GMT 33.744736 -99.351379 28,000 315 412 0
2019-01-10 07:06:21 GMT 33.740204 -99.345833 28,000 315 412 0
2019-01-10 07:06:18 GMT 33.736221 -99.341011 28,000 315 412 0
2019-01-10 07:06:15 GMT 33.730820 -99.334396 28,000 315 412 0
2019-01-10 07:06:12 GMT 33.727421 -99.330193 28,000 315 412 0
2019-01-10 07:06:09 GMT 33.722206 -99.323845 28,000 315 412 0
2019-01-10 07:06:04 GMT 33.716629 -99.317078 28,000 315 412 0
2019-01-10 07:06:01 GMT 33.713974 -99.313774 28,000 315 412 0
2019-01-10 07:05:58 GMT 33.708481 -99.307098 28,000 315 412 0
2019-01-10 07:05:52 GMT 33.700607 -99.297462 28,000 315 411 64
2019-01-10 07:05:48 GMT 33.694649 -99.290260 28,000 315 411 0
2019-01-10 07:05:41 GMT 33.686417 -99.280251 28,000 315 412 0
2019-01-10 07:05:37 GMT 33.680786 -99.273415 28,000 315 412 0
2019-01-10 07:05:30 GMT 33.671558 -99.262337 28,000 315 412 0
2019-01-10 07:05:27 GMT 33.666019 -99.255692 28,000 316 412 -64
2019-01-10 07:05:21 GMT 33.658768 -99.247070 28,000 316 412 0
2019-01-10 07:05:16 GMT 33.652771 -99.240005 28,000 316 412 0
2019-01-10 07:05:10 GMT 33.642517 -99.228065 28,000 317 413 0
2019-01-10 07:05:06 GMT 33.637203 -99.221931 28,000 317 413 0
2019-01-10 07:04:59 GMT 33.627914 -99.211479 28,000 318 414 64
2019-01-10 07:04:55 GMT 33.623566 -99.206657 28,000 318 414 0
2019-01-10 07:04:50 GMT 33.615143 -99.197578 28,000 319 415 0
2019-01-10 07:04:45 GMT 33.607643 -99.189835 28,000 321 415 64
2019-01-10 07:04:41 GMT 33.602188 -99.184456 28,000 322 416 0
2019-01-10 07:04:37 GMT 33.596050 -99.178680 28,000 324 417 -64
2019-01-10 07:04:34 GMT 33.592438 -99.175377 28,000 325 418 0
2019-01-10 07:04:30 GMT 33.585983 -99.169830 28,000 327 419 -64
2019-01-10 07:04:27 GMT 33.581203 -99.165977 28,000 328 421 -64
2019-01-10 07:04:24 GMT 33.574585 -99.160919 28,000 329 421 0
2019-01-10 07:04:20 GMT 33.568771 -99.156654 28,000 329 421 64
2019-01-10 07:04:17 GMT 33.563652 -99.152924 28,000 328 421 64
2019-01-10 07:04:13 GMT 33.557411 -99.148232 28,000 326 420 64
2019-01-10 07:04:08 GMT 33.550198 -99.142227 28,000 321 419 -64
2019-01-10 07:04:03 GMT 33.541771 -99.133759 28,000 317 416 0
2019-01-10 07:03:57 GMT 33.535442 -99.126389 28,000 315 418 -64
2019-01-10 07:03:54 GMT 33.530182 -99.119942 28,000 315 417 -64
2019-01-10 07:03:51 GMT 33.526688 -99.115685 28,000 315 417 -64
2019-01-10 07:03:48 GMT 33.521103 -99.108902 28,000 315 419 -64
2019-01-10 07:03:42 GMT 33.512630 -99.098640 28,000 315 419 64
2019-01-10 07:03:36 GMT 33.506973 -99.091789 28,000 306 418 0
2019-01-10 07:03:31 GMT 33.498871 -99.081467 28,000 311 419 0
2019-01-10 07:03:26 GMT 33.493683 -99.074150 28,000 309 419 0
2019-01-10 07:03:23 GMT 33.489029 -99.067024 28,000 306 418 0
2019-01-10 07:03:20 GMT 33.485767 -99.061592 28,000 305 416 64
2019-01-10 07:03:17 GMT 33.482346 -99.055588 28,000 303 417 0
2019-01-10 07:03:12 GMT 33.477901 -99.047127 28,000 301 416 0
2019-01-10 07:03:09 GMT 33.474968 -99.041191 28,000 299 416 0
2019-01-10 07:03:06 GMT 33.472130 -99.034912 28,000 297 415 0
2019-01-10 07:03:02 GMT 33.466404 -99.020897 28,000 294 414 0
2019-01-10 07:02:55 GMT 33.462982 -99.011589 28,000 294 414 0
2019-01-10 07:02:51 GMT 33.459915 -99.003189 28,000 294 414 0
2019-01-10 07:02:48 GMT 33.457947 -98.997749 28,000 294 414 0
2019-01-10 07:02:45 GMT 33.455509 -98.991135 28,000 294 414 0
2019-01-10 07:02:42 GMT 33.452995 -98.984238 28,000 294 413 0
2019-01-10 07:02:38 GMT 33.449982 -98.975937 28,000 294 413 -64
2019-01-10 07:02:34 GMT 33.447502 -98.969101 28,000 294 413 0
2019-01-10 07:02:30 GMT 33.444351 -98.960449 28,000 294 413 0
2019-01-10 07:02:25 GMT 33.439449 -98.946907 28,000 294 413 0
2019-01-10 07:02:20 GMT 33.436340 -98.938477 28,000 294 413 0
2019-01-10 07:02:17 GMT 33.433399 -98.930428 28,000 294 412 0
2019-01-10 07:02:14 GMT 33.431442 -98.924988 28,000 294 412 64
2019-01-10 07:02:10 GMT 33.428055 -98.915680 28,000 294 412 0
2019-01-10 07:02:04 GMT 33.423531 -98.903244 28,000 294 412 0
2019-01-10 07:01:58 GMT 33.420132 -98.893822 28,000 294 412 0
2019-01-10 07:01:53 GMT 33.415707 -98.881660 28,000 294 413 0
2019-01-10 07:01:49 GMT 33.412403 -98.872696 28,000 294 413 0
2019-01-10 07:01:45 GMT 33.409283 -98.864120 28,000 294 413 0
2019-01-10 07:01:42 GMT 33.408096 -98.860855 28,000 294 413 0
2019-01-10 07:01:38 GMT 33.404209 -98.850327 28,000 294 413 0
2019-01-10 07:01:33 GMT 33.400223 -98.839325 28,000 294 413 0
2019-01-10 07:01:28 GMT 33.396297 -98.828583 28,000 294 412 0
2019-01-10 07:01:24 GMT 33.393269 -98.820175 28,000 294 412 0
2019-01-10 07:01:21 GMT 33.391983 -98.816750 28,000 294 412 0
2019-01-10 07:01:16 GMT 33.387543 -98.804390 28,000 294 412 0
2019-01-10 07:01:12 GMT 33.384109 -98.794998 28,000 294 412 0
2019-01-10 07:01:06 GMT 33.379761 -98.783127 28,000 294 412 0
2019-01-10 07:01:03 GMT 33.377243 -98.776207 28,000 294 412 0
2019-01-10 07:01:00 GMT 33.375767 -98.772133 28,000 294 412 0
2019-01-10 07:00:55 GMT 33.371429 -98.760391 28,000 294 412 0
2019-01-10 07:00:51 GMT 33.368134 -98.751381 28,000 294 412 0
2019-01-10 07:00:45 GMT 33.364361 -98.741081 28,000 294 409 0
2019-01-10 07:00:40 GMT 33.360126 -98.729424 28,000 294 409 0
2019-01-10 07:00:36 GMT 33.356506 -98.719627 28,000 294 408 0
2019-01-10 07:00:29 GMT 33.352211 -98.707954 28,000 294 406 0
2019-01-10 07:00:24 GMT 33.348495 -98.697823 28,000 294 403 0
2019-01-10 07:00:21 GMT 33.345928 -98.690742 28,000 294 402 0
2019-01-10 07:00:18 GMT 33.343414 -98.683922 28,000 294 401 0
2019-01-10 07:00:14 GMT 33.340347 -98.675629 28,000 294 400 0
2019-01-10 07:00:10 GMT 33.337780 -98.668663 28,000 294 398 0
2019-01-10 07:00:07 GMT 33.335175 -98.661514 28,000 294 397 0
2019-01-10 07:00:04 GMT 33.333309 -98.656387 28,000 294 396 0
2019-01-10 06:59:58 GMT 33.328903 -98.644485 28,000 294 393 64
2019-01-10 06:59:54 GMT 33.325302 -98.634689 28,000 294 391 64
2019-01-10 06:59:49 GMT 33.319813 -98.619675 27,975 294 389 192
2019-01-10 06:59:40 GMT 33.315536 -98.608009 27,950 294 386 448
2019-01-10 06:59:37 GMT 33.312973 -98.600975 27,925 294 385 384
2019-01-10 06:59:33 GMT 33.310406 -98.594055 27,900 294 384 448
2019-01-10 06:59:29 GMT 33.307892 -98.587135 27,850 294 383 384
2019-01-10 06:59:26 GMT 33.305565 -98.580879 27,850 294 382 384
2019-01-10 06:59:22 GMT 33.303040 -98.574005 27,825 294 382 448
2019-01-10 06:59:17 GMT 33.299004 -98.563110 27,750 294 380 448
2019-01-10 06:59:11 GMT 33.295696 -98.554092 27,750 294 379 448
2019-01-10 06:59:08 GMT 33.292625 -98.545906 27,700 294 377 448
2019-01-10 06:59:05 GMT 33.290157 -98.539177 27,675 294 377 448
2019-01-10 06:59:01 GMT 33.288342 -98.534248 27,650 294 376 448
2019-01-10 06:58:58 GMT 33.283173 -98.520233 27,625 294 374 448
2019-01-10 06:58:55 GMT 33.283173 -98.520233 27,600 294 374 384
2019-01-10 06:58:48 GMT 33.278938 -98.508690 27,575 294 372 384
2019-01-10 06:58:44 GMT 33.275894 -98.500504 27,525 294 370 384
2019-01-10 06:58:41 GMT 33.273651 -98.494301 27,525 294 370 384
2019-01-10 06:58:34 GMT 33.269070 -98.481895 27,475 294 368 384
2019-01-10 06:58:30 GMT 33.266602 -98.475220 27,450 294 367 320
2019-01-10 06:58:27 GMT 33.264725 -98.470131 27,425 294 365 384
2019-01-10 06:58:23 GMT 33.261841 -98.462387 27,425 294 365 384
2019-01-10 06:58:20 GMT 33.259434 -98.455826 27,375 294 363 512
2019-01-10 06:58:14 GMT 33.255524 -98.445297 27,350 294 362 832
2019-01-10 06:58:07 GMT 33.250443 -98.431564 27,225 294 362 832
2019-01-10 06:58:03 GMT 33.248428 -98.426071 27,175 294 362 896
2019-01-10 06:57:56 GMT 33.243668 -98.413330 27,050 294 361 1024
2019-01-10 06:57:53 GMT 33.241325 -98.407005 27,000 294 361 960
2019-01-10 06:57:47 GMT 33.236984 -98.395256 26,800 294 360 960
2019-01-10 06:57:43 GMT 33.233967 -98.387161 26,825 294 360 1024
2019-01-10 06:57:36 GMT 33.229523 -98.375099 26,700 294 360 960
2019-01-10 06:57:32 GMT 33.227173 -98.368835 26,650 294 359 1024
2019-01-10 06:57:25 GMT 33.222378 -98.355942 26,550 294 359 832
2019-01-10 06:57:22 GMT 33.219955 -98.349442 26,500 294 358 576
2019-01-10 06:57:14 GMT 33.214691 -98.335220 26,450 294 357 512
2019-01-10 06:57:11 GMT 33.213299 -98.331390 26,400 294 356 576
2019-01-10 06:57:04 GMT 33.207870 -98.316757 26,275 294 355 1152
2019-01-10 06:57:01 GMT 33.206177 -98.312225 26,225 294 355 1344
2019-01-10 06:56:54 GMT 33.201660 -98.300003 26,050 294 355 1536
2019-01-10 06:56:50 GMT 33.199219 -98.293472 25,950 294 356 1600
2019-01-10 06:56:43 GMT 33.194046 -98.279465 25,750 294 357 1600
2019-01-10 06:56:40 GMT 33.192307 -98.274734 25,675 294 358 1600
2019-01-10 06:56:35 GMT 33.188721 -98.265083 25,500 294 358 1280
2019-01-10 06:56:32 GMT 33.187138 -98.260933 25,500 294 358 1280
2019-01-10 06:56:29 GMT 33.185413 -98.256226 25,450 294 358 1344
2019-01-10 06:56:24 GMT 33.181961 -98.246941 25,300 294 359 1280
2019-01-10 06:56:21 GMT 33.180267 -98.242386 25,300 294 359 1280
2019-01-10 06:56:18 GMT 33.178070 -98.236618 25,200 294 359 1216
2019-01-10 06:56:14 GMT 33.174614 -98.227303 25,100 294 359 1216
2019-01-10 06:56:11 GMT 33.172054 -98.220467 25,025 294 358 1216
2019-01-10 06:56:08 GMT 33.171310 -98.218498 25,000 294 358 1216
2019-01-10 06:56:03 GMT 33.166992 -98.206841 24,875 294 357 896
2019-01-10 06:56:00 GMT 33.164978 -98.201462 24,850 294 357 1024
2019-01-10 06:55:57 GMT 33.163879 -98.198547 24,825 294 356 1088
2019-01-10 06:55:52 GMT 33.160324 -98.188965 24,700 294 356 1216
2019-01-10 06:55:48 GMT 33.157249 -98.180664 24,625 294 356 1088
2019-01-10 06:55:42 GMT 33.153618 -98.170860 24,525 294 355 960
2019-01-10 06:55:39 GMT 33.151012 -98.163849 24,475 294 353 1024
2019-01-10 06:55:36 GMT 33.150036 -98.161163 24,450 294 353 1024
2019-01-10 06:55:32 GMT 33.146713 -98.152184 24,350 294 352 1088
2019-01-10 06:55:27 GMT 33.143417 -98.143288 24,275 294 351 1152
2019-01-10 06:55:21 GMT 33.139702 -98.133247 24,175 294 351 1088
2019-01-10 06:55:16 GMT 33.136368 -98.124336 24,075 294 351 1024
2019-01-10 06:55:10 GMT 33.132809 -98.114693 23,975 294 350 1024
2019-01-10 06:55:06 GMT 33.129272 -98.105164 23,875 294 348 1024
2019-01-10 06:55:00 GMT 33.126160 -98.096817 23,800 294 348 1216
2019-01-10 06:54:57 GMT 33.124199 -98.091652 23,725 294 348 1344
2019-01-10 06:54:50 GMT 33.119339 -98.078575 23,525 294 348 1664
2019-01-10 06:54:45 GMT 33.116051 -98.069740 23,375 294 350 2048
2019-01-10 06:54:40 GMT 33.112747 -98.060837 23,200 294 351 2560
2019-01-10 06:54:35 GMT 33.109543 -98.052322 22,800 294 357 3328
2019-01-10 06:54:29 GMT 33.105743 -98.042099 22,650 294 358 3392
2019-01-10 06:54:24 GMT 33.101990 -98.031937 22,325 294 363 3648
2019-01-10 06:54:19 GMT 33.098499 -98.022652 22,000 294 369 3968
2019-01-10 06:54:14 GMT 33.095215 -98.013809 21,675 294 375 4032
2019-01-10 06:54:09 GMT 33.091427 -98.003654 21,325 295 380 4096
2019-01-10 06:54:05 GMT 33.088943 -97.997055 20,950 294 386 4096
2019-01-10 06:54:02 GMT 33.087376 -97.992889 20,950 295 387 4096
2019-01-10 06:53:58 GMT 33.083908 -97.983597 20,625 294 393 3968
2019-01-10 06:53:55 GMT 33.080624 -97.974785 20,400 294 396 3840
2019-01-10 06:53:52 GMT 33.079556 -97.971985 20,250 294 399 3712
2019-01-10 06:53:48 GMT 33.075783 -97.961723 19,950 294 402 3520
2019-01-10 06:53:44 GMT 33.071220 -97.949509 19,675 294 407 3072
2019-01-10 06:53:37 GMT 33.068104 -97.941040 19,450 295 410 2240
2019-01-10 06:53:32 GMT 33.063538 -97.929001 19,275 294 411 1344
2019-01-10 06:53:27 GMT 33.059784 -97.918839 19,175 295 410 960
2019-01-10 06:53:22 GMT 33.055813 -97.908249 19,125 294 408 576
2019-01-10 06:53:16 GMT 33.051811 -97.897598 19,050 295 405 768
2019-01-10 06:53:11 GMT 33.047287 -97.885490 18,950 294 403 1344
2019-01-10 06:53:06 GMT 33.043755 -97.876076 18,825 295 402 1472
2019-01-10 06:53:03 GMT 33.041199 -97.869232 18,775 295 402 1536
2019-01-10 06:53:00 GMT 33.039520 -97.864700 18,700 295 402 1536
2019-01-10 06:52:55 GMT 33.035889 -97.855057 18,575 295 401 1472
2019-01-10 06:52:52 GMT 33.033516 -97.848724 18,500 295 401 1088
2019-01-10 06:52:49 GMT 33.031265 -97.842758 18,450 295 401 1024
2019-01-10 06:52:45 GMT 33.028114 -97.834427 18,375 295 399 1216
2019-01-10 06:52:42 GMT 33.025177 -97.826714 18,300 295 397 1216
2019-01-10 06:52:36 GMT 33.019730 -97.812325 18,125 295 397 1664
2019-01-10 06:52:30 GMT 33.017624 -97.806778 18,050 295 397 1536
2019-01-10 06:52:27 GMT 33.015060 -97.799965 17,975 295 397 1728
2019-01-10 06:52:24 GMT 33.011902 -97.791611 17,850 295 397 1600
2019-01-10 06:52:20 GMT 33.009705 -97.785843 17,775 295 396 1408
2019-01-10 06:52:17 GMT 33.007233 -97.779312 17,700 295 394 1216
2019-01-10 06:52:14 GMT 33.005444 -97.774620 17,650 295 394 1088
2019-01-10 06:52:11 GMT 33.002060 -97.765633 17,600 295 393 832
2019-01-10 06:52:08 GMT 32.999718 -97.759430 17,550 294 390 640
2019-01-10 06:52:03 GMT 32.996227 -97.750015 17,525 294 388 576
2019-01-10 06:52:00 GMT 32.994324 -97.744812 17,450 294 386 576
2019-01-10 06:51:54 GMT 32.990360 -97.733810 17,425 294 383 640
2019-01-10 06:51:50 GMT 32.987045 -97.724655 17,375 294 379 704
2019-01-10 06:51:47 GMT 32.985008 -97.719017 17,325 294 377 704
2019-01-10 06:51:43 GMT 32.983383 -97.714493 17,300 294 376 768
2019-01-10 06:51:39 GMT 32.980259 -97.705902 17,225 294 374 960
2019-01-10 06:51:35 GMT 32.977512 -97.698334 17,100 294 372 1600
2019-01-10 06:51:32 GMT 32.974720 -97.690598 17,050 294 372 1728
2019-01-10 06:51:26 GMT 32.970623 -97.679329 16,875 294 370 1600
2019-01-10 06:51:23 GMT 32.969284 -97.675705 16,825 294 370 1664
2019-01-10 06:51:19 GMT 32.965687 -97.665710 16,675 294 370 1856
2019-01-10 06:51:14 GMT 32.963562 -97.659836 16,575 294 369 2048
2019-01-10 06:51:11 GMT 32.960472 -97.651306 16,400 294 369 2048
2019-01-10 06:51:08 GMT 32.958984 -97.647217 16,325 294 369 2048
2019-01-10 06:51:03 GMT 32.955048 -97.636322 16,150 294 368 1792
2019-01-10 06:50:58 GMT 32.951935 -97.627754 16,000 294 367 1664
2019-01-10 06:50:53 GMT 32.949303 -97.620422 15,850 294 366 1664
2019-01-10 06:50:50 GMT 32.946304 -97.612152 15,650 294 366 1536
2019-01-10 06:50:47 GMT 32.944599 -97.607414 15,700 294 365 1408
2019-01-10 06:50:44 GMT 32.942230 -97.600891 15,625 294 363 1408
2019-01-10 06:50:41 GMT 32.941315 -97.598312 15,600 294 363 1408
2019-01-10 06:50:37 GMT 32.938175 -97.589592 15,475 294 361 1728
2019-01-10 06:50:31 GMT 32.934631 -97.579849 15,300 294 361 2112
2019-01-10 06:50:26 GMT 32.930866 -97.569527 15,075 294 361 2752
2019-01-10 06:50:20 GMT 32.927330 -97.559883 14,800 294 363 3264
2019-01-10 06:50:16 GMT 32.924255 -97.551422 14,550 294 365 3200
2019-01-10 06:50:10 GMT 32.917042 -97.531631 14,150 294 368 2752
2019-01-10 06:50:06 GMT 32.917042 -97.531631 14,050 294 369 2560
2019-01-10 06:49:58 GMT 32.911469 -97.516243 13,750 294 369 1792
2019-01-10 06:49:55 GMT 32.910049 -97.512344 13,675 294 367 1600
2019-01-10 06:49:50 GMT 32.906891 -97.503609 13,550 294 365 1664
2019-01-10 06:49:44 GMT 32.903046 -97.492897 13,375 294 364 1792
2019-01-10 06:49:37 GMT 32.897675 -97.478104 13,100 294 363 2496
2019-01-10 06:49:34 GMT 32.896362 -97.474548 13,000 294 363 2688
2019-01-10 06:49:29 GMT 32.892742 -97.464539 12,775 294 364 2560
2019-01-10 06:49:26 GMT 32.890686 -97.458946 12,600 294 364 2432
2019-01-10 06:49:23 GMT 32.888969 -97.454224 12,525 294 365 2432
2019-01-10 06:49:19 GMT 32.886017 -97.446037 12,375 294 365 2304
2019-01-10 06:49:14 GMT 32.882309 -97.435928 12,150 294 364 2112
2019-01-10 06:49:08 GMT 32.879009 -97.426872 12,000 294 362 1920
2019-01-10 06:49:05 GMT 32.876541 -97.420219 11,875 294 361 1920
2019-01-10 06:49:02 GMT 32.875076 -97.416214 11,825 294 360 1920
2019-01-10 06:48:58 GMT 32.872257 -97.408485 11,675 294 359 1984
2019-01-10 06:48:53 GMT 32.868118 -97.397148 11,475 294 357 1792
2019-01-10 06:48:48 GMT 32.865459 -97.389877 11,375 294 355 1664
2019-01-10 06:48:42 GMT 32.861412 -97.378777 11,225 294 352 1152
2019-01-10 06:48:37 GMT 32.858433 -97.370590 11,150 294 349 896
2019-01-10 06:48:33 GMT 32.855072 -97.361610 11,075 294 343 896
2019-01-10 06:48:30 GMT 32.853745 -97.357925 11,050 294 342 896
2019-01-10 06:48:27 GMT 32.851822 -97.352715 11,000 294 340 896
2019-01-10 06:48:21 GMT 32.847538 -97.341164 10,900 294 332 896
2019-01-10 06:48:17 GMT 32.845551 -97.335678 10,825 294 330 896
2019-01-10 06:48:11 GMT 32.841797 -97.325409 10,750 294 324 960
2019-01-10 06:48:07 GMT 32.839279 -97.318542 10,675 294 320 960
2019-01-10 06:48:02 GMT 32.836739 -97.311569 10,575 294 315 1024
2019-01-10 06:47:59 GMT 32.835155 -97.307251 10,575 294 315 1024
2019-01-10 06:47:55 GMT 32.832733 -97.300690 10,475 294 310 1088
2019-01-10 06:47:50 GMT 32.828705 -97.289650 10,350 294 303 1024
2019-01-10 06:47:46 GMT 32.827469 -97.286301 10,325 294 301 1024
2019-01-10 06:47:39 GMT 32.823441 -97.275421 10,200 294 295 1024
2019-01-10 06:47:36 GMT 32.821655 -97.270653 10,125 294 291 1024
2019-01-10 06:47:29 GMT 32.817398 -97.259048 9,975 294 285 1344
2019-01-10 06:47:25 GMT 32.816025 -97.255318 9,925 294 282 1728
2019-01-10 06:47:21 GMT 32.813416 -97.248283 9,750 294 281 2624
2019-01-10 06:47:17 GMT 32.811539 -97.243286 9,600 294 281 2368
2019-01-10 06:47:14 GMT 32.810482 -97.240379 9,500 294 281 2240
2019-01-10 06:47:09 GMT 32.807365 -97.231918 9,300 294 278 1792
2019-01-10 06:47:05 GMT 32.805363 -97.226425 9,200 294 276 1536
2019-01-10 06:47:00 GMT 32.802616 -97.218803 9,050 294 272 1408
2019-01-10 06:46:57 GMT 32.801357 -97.215218 9,025 294 270 1344
2019-01-10 06:46:54 GMT 32.800056 -97.211685 8,950 294 267 1216
2019-01-10 06:46:48 GMT 32.796936 -97.202995 8,800 294 262 1408
2019-01-10 06:46:44 GMT 32.795216 -97.198235 8,725 294 259 1472
2019-01-10 06:46:39 GMT 32.792606 -97.191223 8,575 294 255 1664
2019-01-10 06:46:36 GMT 32.791489 -97.188141 8,525 294 254 1728
2019-01-10 06:46:33 GMT 32.790024 -97.184235 8,450 294 253 2240
2019-01-10 06:46:26 GMT 32.786865 -97.175888 8,100 295 252 3264
2019-01-10 06:46:23 GMT 32.785355 -97.171928 7,900 295 255 3520
2019-01-10 06:46:17 GMT 32.781967 -97.163139 7,500 295 259 3392
2019-01-10 06:46:12 GMT 32.779945 -97.157875 7,275 295 260 3392
2019-01-10 06:46:06 GMT 32.776688 -97.149406 6,800 295 264 3264
2019-01-10 06:46:03 GMT 32.774963 -97.144981 6,725 295 265 3136
2019-01-10 06:45:55 GMT 32.771378 -97.135567 6,450 293 265 2688
2019-01-10 06:45:52 GMT 32.769791 -97.131058 6,225 288 266 2688
2019-01-10 06:45:47 GMT 32.767914 -97.123589 5,950 278 268 3456
2019-01-10 06:45:41 GMT 32.767097 -97.116173 5,650 269 270 3264
2019-01-10 06:45:34 GMT 32.767887 -97.106133 5,325 255 271 2880
2019-01-10 06:45:31 GMT 32.769096 -97.101151 5,150 248 270 2816
2019-01-10 06:45:26 GMT 32.772034 -97.094093 4,850 233 270 2112
2019-01-10 06:45:23 GMT 32.774963 -97.089378 4,775 229 268 1728
2019-01-10 06:45:20 GMT 32.775757 -97.088257 4,750 225 267 1536
2019-01-10 06:45:14 GMT 32.781693 -97.082062 4,625 214 258 1280
2019-01-10 06:45:10 GMT 32.785763 -97.078896 4,525 209 255 1344
2019-01-10 06:45:03 GMT 32.792747 -97.074860 4,300 200 246 1344
2019-01-10 06:45:00 GMT 32.796478 -97.073219 4,300 199 244 1344
2019-01-10 06:44:53 GMT 32.804260 -97.070305 4,150 197 234 960
2019-01-10 06:44:49 GMT 32.808064 -97.068970 4,100 197 231 1024
2019-01-10 06:44:43 GMT 32.814423 -97.066788 3,975 196 218 1728
2019-01-10 06:44:40 GMT 32.818222 -97.065475 3,875 196 215 1728
2019-01-10 06:44:33 GMT 32.824493 -97.063332 3,675 196 207 1920
2019-01-10 06:44:28 GMT 32.828545 -97.061966 3,575 197 205 2112
2019-01-10 06:44:22 GMT 32.834015 -97.060036 3,325 198 198 1984
2019-01-10 06:44:18 GMT 32.837204 -97.058884 3,225 198 196 1920
2019-01-10 06:44:11 GMT 32.842804 -97.056686 3,025 199 189 1984
2019-01-10 06:44:08 GMT 32.846466 -97.055199 2,825 199 185 2368
2019-01-10 06:44:01 GMT 32.851456 -97.053329 2,575 193 181 2240
2019-01-10 06:43:58 GMT 32.855484 -97.052292 2,425 188 177 2304
2019-01-10 06:43:51 GMT 32.859970 -97.051682 2,175 182 176 2752
2019-01-10 06:43:46 GMT 32.863678 -97.051575 1,975 181 176 2624
2019-01-10 06:43:41 GMT 32.868713 -97.051468 1,725 182 174 2560
2019-01-10 06:43:37 GMT 32.872398 -97.051315 1,500 182 173 2944
2019-01-10 06:43:29 GMT 32.877502 -97.051132 1,150 182 176 3136
2019-01-10 06:43:25 GMT 32.880478 -97.051025 950 182 177 3264
We lost coverage of the aircraft here for a total of 33 minutes
2019-01-10 06:10:30 GMT 32.894920 -97.036659 0 329 0
2019-01-10 06:07:23 GMT 32.894928 -97.036659 0 329 0
2019-01-10 06:07:12 GMT 32.894932 -97.036659 0 329 0
2019-01-10 06:05:42 GMT 32.894928 -97.036659 0 329 0
2019-01-10 06:05:32 GMT 32.894932 -97.036659 0 329 0
2019-01-10 06:04:01 GMT 32.894928 -97.036659 0 329 0
2019-01-10 06:03:47 GMT 32.894920 -97.036659 0 329 0
2019-01-10 06:03:27 GMT 32.894928 -97.036659 0 329 0
2019-01-10 06:02:16 GMT 32.894932 -97.036659 0 329 0
2019-01-10 06:01:42 GMT 32.894928 -97.036674 0 329 0
2019-01-10 06:01:07 GMT 32.894920 -97.036674 0 329 0
2019-01-10 06:00:36 GMT 32.894932 -97.036674 0 329 0
2019-01-10 05:58:08 GMT 32.894928 -97.036674 0 329 0
2019-01-10 05:57:48 GMT 32.894932 -97.036674 0 329 0
2019-01-10 05:57:32 GMT 32.894928 -97.036674 0 329 0
2019-01-10 05:57:17 GMT 32.894932 -97.036659 0 329 0
2019-01-10 05:57:08 GMT 32.894928 -97.036674 0 329 0
2019-01-10 05:56:32 GMT 32.894920 -97.036659 0 329 0
2019-01-10 05:56:17 GMT 32.894932 -97.036659 0 329 0
2019-01-10 05:54:46 GMT 32.894928 -97.036659 0 329 0
2019-01-10 05:54:37 GMT 32.894920 -97.036659 0 329 0
2019-01-10 05:52:01 GMT 32.894928 -97.036659 0 329 0
2019-01-10 05:48:02 GMT 32.894920 -97.036659 0 329 0
We lost coverage of the aircraft here for a total of 57 minutes
2019-01-10 04:51:22 GMT 32.894939 -97.036674 0 329 0
2019-01-10 04:51:09 GMT 32.894932 -97.036674 0 329 0
2019-01-10 04:50:59 GMT 32.894928 -97.036690 0 329 0
2019-01-10 04:50:49 GMT 32.895000 -97.036636 0 329 0
2019-01-10 04:50:36 GMT 32.895000 -97.036644 0 329 0
2019-01-10 04:50:29 GMT 32.894997 -97.036644 0 329 0
2019-01-10 04:48:40 GMT 32.894932 -97.036674 0 329 0
2019-01-10 04:48:19 GMT 32.894939 -97.036674 0 329 0
2019-01-10 04:48:00 GMT 32.894932 -97.036674 0 329 0
2019-01-10 04:46:45 GMT 32.894932 -97.036674 0 329 0
2019-01-10 04:46:14 GMT 32.894928 -97.036674 0 329 0
We lost coverage of the aircraft here for a total of 18 minutes
2019-01-10 04:28:33 GMT 32.876820 -97.030128 175 0 146 -768
2019-01-10 04:28:29 GMT 32.874119 -97.030128 225 0 144 -704
2019-01-10 04:28:26 GMT 32.872055 -97.030098 275 0 144 -768
2019-01-10 04:28:15 GMT 32.865189 -97.030205 400 0 144 -768
2019-01-10 04:28:07 GMT 32.859875 -97.030182 500 0 145 -832
2019-01-10 04:28:04 GMT 32.857872 -97.030182 550 0 146 -832
2019-01-10 04:27:57 GMT 32.852566 -97.030182 650 0 149 -768
2019-01-10 04:27:54 GMT 32.850449 -97.030205 675 0 149 -832
2019-01-10 04:27:46 GMT 32.845779 -97.030258 825 0 150 -832
2019-01-10 04:27:43 GMT 32.843304 -97.030296 825 0 150 -832
2019-01-10 04:27:34 GMT 32.837112 -97.030296 950 0 150 -768
2019-01-10 04:27:31 GMT 32.835251 -97.030350 975 0 151 -768
2019-01-10 04:27:25 GMT 32.830948 -97.030319 1,075 0 151 -704
2019-01-10 04:27:22 GMT 32.828403 -97.030350 1,100 0 152 -768
2019-01-10 04:27:15 GMT 32.823841 -97.030350 1,175 0 154 -960
2019-01-10 04:27:11 GMT 32.820923 -97.030426 1,250 0 153 -960
2019-01-10 04:27:03 GMT 32.814880 -97.030533 1,375 1 153 -704
2019-01-10 04:27:00 GMT 32.813091 -97.030579 1,400 0 153 -704
2019-01-10 04:26:57 GMT 32.811321 -97.030579 1,450 0 153 -704
2019-01-10 04:26:53 GMT 32.807510 -97.030594 1,500 0 154 -768
2019-01-10 04:26:50 GMT 32.805408 -97.030579 1,550 0 155 -832
2019-01-10 04:26:46 GMT 32.803173 -97.030518 1,575 0 155 -896
2019-01-10 04:26:42 GMT 32.798859 -97.030479 1,700 0 157 -832
2019-01-10 04:26:39 GMT 32.795773 -97.030518 1,725 0 158 -832
2019-01-10 04:26:30 GMT 32.791721 -97.030518 1,900 1 164 -960
2019-01-10 04:26:26 GMT 32.788742 -97.030579 1,875 1 163 -960
2019-01-10 04:26:20 GMT 32.783482 -97.030685 1,975 0 166 -960
2019-01-10 04:26:17 GMT 32.781898 -97.030685 2,050 0 166 -960
2019-01-10 04:26:14 GMT 32.778442 -97.030754 2,075 1 168 -832
2019-01-10 04:26:09 GMT 32.775520 -97.030800 2,150 1 170 -960
2019-01-10 04:26:06 GMT 32.772545 -97.030861 2,200 1 171 -960
2019-01-10 04:26:01 GMT 32.769379 -97.030914 2,250 0 174 -960
2019-01-10 04:25:58 GMT 32.766724 -97.030975 2,300 2 180 -1088
2019-01-10 04:25:55 GMT 32.764351 -97.031029 2,350 1 179 -1088
2019-01-10 04:25:52 GMT 32.760818 -97.031143 2,425 3 180 -1088
2019-01-10 04:25:48 GMT 32.758671 -97.031250 2,475 6 181 -832
2019-01-10 04:25:44 GMT 32.755692 -97.031578 2,525 9 180 -576
2019-01-10 04:25:41 GMT 32.752571 -97.032257 2,525 17 178 64
2019-01-10 04:25:38 GMT 32.749454 -97.033379 2,550 28 178 128
2019-01-10 04:25:35 GMT 32.747639 -97.034500 2,550 33 178 -64
2019-01-10 04:25:31 GMT 32.744797 -97.036858 2,550 38 178 0
2019-01-10 04:25:27 GMT 32.742783 -97.038666 2,550 38 179 0
2019-01-10 04:25:24 GMT 32.740654 -97.040665 2,550 37 178 0
2019-01-10 04:25:19 GMT 32.737381 -97.043716 2,550 37 179 0
2019-01-10 04:25:14 GMT 32.733810 -97.046959 2,550 37 180 -64
2019-01-10 04:25:08 GMT 32.730553 -97.049973 2,550 37 180 -64
2019-01-10 04:25:05 GMT 32.728592 -97.051743 2,550 37 181 -64
2019-01-10 04:25:02 GMT 32.726532 -97.053665 2,550 37 182 -64
2019-01-10 04:24:58 GMT 32.723923 -97.056023 2,575 39 182 -128
2019-01-10 04:24:55 GMT 32.721893 -97.057930 2,575 39 181 -192
2019-01-10 04:24:52 GMT 32.719574 -97.060196 2,575 40 178 -128
2019-01-10 04:24:48 GMT 32.717056 -97.062782 2,600 46 176 -448
2019-01-10 04:24:45 GMT 32.715424 -97.064774 2,625 51 175 -704
2019-01-10 04:24:42 GMT 32.713512 -97.067795 2,675 61 175 -960
2019-01-10 04:24:38 GMT 32.711979 -97.071442 2,750 72 174 -1408
2019-01-10 04:24:33 GMT 32.711048 -97.075699 2,850 83 175 -1280
2019-01-10 04:24:28 GMT 32.710648 -97.080032 3,000 90 176 -1344
2019-01-10 04:24:25 GMT 32.710556 -97.082558 3,000 90 176 -1344
2019-01-10 04:24:22 GMT 32.710583 -97.086014 3,100 92 176 -1344
2019-01-10 04:24:19 GMT 32.710674 -97.088028 3,150 94 176 -1280
2019-01-10 04:24:16 GMT 32.710907 -97.091728 3,225 95 176 -1152
2019-01-10 04:24:12 GMT 32.711334 -97.096512 3,300 97 178 -832
2019-01-10 04:24:09 GMT 32.711559 -97.098625 3,325 98 179 -768
2019-01-10 04:24:04 GMT 32.712296 -97.104034 3,400 103 181 -640
2019-01-10 04:24:01 GMT 32.712677 -97.106133 3,400 106 183 -512
2019-01-10 04:23:57 GMT 32.713745 -97.110336 3,450 117 187 -640
2019-01-10 04:23:54 GMT 32.714539 -97.112274 3,475 120 188 -640
2019-01-10 04:23:51 GMT 32.716446 -97.115837 3,525 132 191 -320
2019-01-10 04:23:47 GMT 32.718201 -97.118263 3,550 146 195 -64
2019-01-10 04:23:43 GMT 32.721909 -97.121834 3,550 151 196 -64
2019-01-10 04:23:40 GMT 32.723431 -97.122894 3,550 155 197 -64
2019-01-10 04:23:37 GMT 32.726086 -97.124352 3,550 163 199 -128
2019-01-10 04:23:31 GMT 32.731251 -97.126091 3,575 167 199 -128
2019-01-10 04:23:27 GMT 32.735733 -97.127274 3,575 167 200 256
2019-01-10 04:23:23 GMT 32.738934 -97.128113 3,525 167 203 64
2019-01-10 04:23:20 GMT 32.742237 -97.129005 3,550 167 204 -128
2019-01-10 04:23:13 GMT 32.748707 -97.130684 3,550 167 208 0
2019-01-10 04:23:09 GMT 32.752106 -97.131584 3,550 167 212 0
2019-01-10 04:23:05 GMT 32.755692 -97.132545 3,550 167 216 0
2019-01-10 04:23:02 GMT 32.761929 -97.134216 3,550 167 218 0
2019-01-10 04:22:59 GMT 32.761929 -97.134216 3,550 167 220 0
2019-01-10 04:22:55 GMT 32.766541 -97.135452 3,525 167 224 0
2019-01-10 04:22:52 GMT 32.769516 -97.136223 3,525 167 227 0
2019-01-10 04:22:49 GMT 32.771530 -97.136826 3,525 167 228 0
2019-01-10 04:22:43 GMT 32.777390 -97.138367 3,525 167 233 0
2019-01-10 04:22:40 GMT 32.780548 -97.139244 3,550 167 236 0
2019-01-10 04:22:37 GMT 32.784164 -97.140236 3,550 167 236 0
2019-01-10 04:22:33 GMT 32.788788 -97.141502 3,550 167 237 0
2019-01-10 04:22:28 GMT 32.794933 -97.143127 3,525 167 239 64
2019-01-10 04:22:23 GMT 32.800049 -97.144516 3,525 167 242 64
2019-01-10 04:22:19 GMT 32.804852 -97.145821 3,525 167 245 0
2019-01-10 04:22:16 GMT 32.806480 -97.146271 3,525 166 249 0
2019-01-10 04:22:12 GMT 32.812298 -97.147896 3,525 166 250 -64
2019-01-10 04:22:07 GMT 32.816628 -97.149071 3,550 166 254 -128
2019-01-10 04:22:01 GMT 32.824127 -97.151329 3,575 164 259 -512
2019-01-10 04:21:58 GMT 32.827801 -97.152550 3,600 165 259 -640
2019-01-10 04:21:55 GMT 32.830536 -97.153419 3,625 165 260 -768
2019-01-10 04:21:50 GMT 32.836643 -97.155235 3,700 166 259 -960
2019-01-10 04:21:46 GMT 32.842136 -97.156860 3,800 166 260 -1472
2019-01-10 04:21:40 GMT 32.849487 -97.159019 3,975 165 261 -1600
2019-01-10 04:21:37 GMT 32.852325 -97.159843 4,025 165 263 -1536
2019-01-10 04:21:34 GMT 32.855221 -97.160728 4,075 165 264 -1472
2019-01-10 04:21:30 GMT 32.860748 -97.162430 4,225 165 266 -1344
2019-01-10 04:21:27 GMT 32.864777 -97.163635 4,275 165 267 -1344
2019-01-10 04:21:24 GMT 32.868210 -97.164711 4,325 165 267 -1280
2019-01-10 04:21:19 GMT 32.874802 -97.166763 4,450 165 271 -1408
2019-01-10 04:21:14 GMT 32.879707 -97.168297 4,550 164 271 -1472
2019-01-10 04:21:10 GMT 32.884686 -97.169922 4,650 164 272 -1600
2019-01-10 04:21:06 GMT 32.889999 -97.171707 4,825 163 273 -1664
2019-01-10 04:21:03 GMT 32.893066 -97.172783 4,825 163 273 -1664
2019-01-10 04:20:57 GMT 32.900284 -97.175247 5,025 163 274 -1792
2019-01-10 04:20:54 GMT 32.903778 -97.176491 5,100 163 274 -1856
2019-01-10 04:20:49 GMT 32.910431 -97.178780 5,275 163 274 -1984
2019-01-10 04:20:46 GMT 32.913025 -97.179733 5,425 163 274 -2048
2019-01-10 04:20:43 GMT 32.918949 -97.181747 5,525 163 273 -1984
2019-01-10 04:20:39 GMT 32.923279 -97.183243 5,625 163 273 -2048
2019-01-10 04:20:35 GMT 32.926350 -97.184334 5,725 163 273 -1984
2019-01-10 04:20:32 GMT 32.931290 -97.186104 5,850 162 272 -1984
2019-01-10 04:20:26 GMT 32.938934 -97.188850 6,050 162 273 -1728
2019-01-10 04:20:22 GMT 32.944473 -97.190994 6,175 160 284 -1408
2019-01-10 04:20:18 GMT 32.949020 -97.192741 6,275 161 275 -1536
2019-01-10 04:20:13 GMT 32.953724 -97.194641 6,400 160 277 -1408
2019-01-10 04:20:10 GMT 32.957401 -97.196098 6,625 160 284 -1408
2019-01-10 04:20:07 GMT 32.961090 -97.197639 6,525 160 279 -1280
2019-01-10 04:20:04 GMT 32.964851 -97.199181 6,625 160 281 -1408
2019-01-10 04:20:01 GMT 32.969646 -97.201202 6,950 160 284 -1408
2019-01-10 04:19:56 GMT 32.975143 -97.203514 6,775 160 284 -1408
2019-01-10 04:19:52 GMT 32.980728 -97.205765 6,875 161 286 -1408
2019-01-10 04:19:49 GMT 32.983383 -97.206863 6,950 161 286 -1664
2019-01-10 04:19:46 GMT 32.987274 -97.208405 7,025 161 287 -1792
2019-01-10 04:19:42 GMT 32.992500 -97.210510 7,150 161 286 -1728
2019-01-10 04:19:39 GMT 32.995388 -97.211685 7,225 161 287 -1600
2019-01-10 04:19:33 GMT 33.004417 -97.215218 7,425 162 289 -1664
2019-01-10 04:19:30 GMT 33.007690 -97.216476 7,475 162 289 -1792
2019-01-10 04:19:24 GMT 33.014465 -97.219063 7,650 162 289 -2112
2019-01-10 04:19:21 GMT 33.019180 -97.220871 7,775 162 289 -1984
2019-01-10 04:19:18 GMT 33.022888 -97.222244 8,000 162 289 -1984
2019-01-10 04:19:14 GMT 33.027100 -97.223839 7,975 162 289 -1984
2019-01-10 04:19:09 GMT 33.035294 -97.226913 8,200 162 289 -1920
2019-01-10 04:19:04 GMT 33.040588 -97.228836 8,325 162 288 -1920
2019-01-10 04:18:58 GMT 33.050125 -97.232300 8,550 163 289 -1920
2019-01-10 04:18:53 GMT 33.054657 -97.233948 8,675 163 289 -1920
2019-01-10 04:18:49 GMT 33.059586 -97.235672 8,800 163 289 -1984
2019-01-10 04:18:46 GMT 33.063450 -97.237076 8,875 163 289 -2048
2019-01-10 04:18:43 GMT 33.067886 -97.238670 9,025 163 289 -1984
2019-01-10 04:18:39 GMT 33.072372 -97.240265 9,125 163 288 -2048
2019-01-10 04:18:36 GMT 33.076900 -97.241951 9,250 162 289 -1920
2019-01-10 04:18:32 GMT 33.081276 -97.243523 9,350 162 290 -1728
2019-01-10 04:18:27 GMT 33.089172 -97.246475 9,500 162 293 -1472
2019-01-10 04:18:22 GMT 33.094826 -97.248566 9,625 162 296 -1408
2019-01-10 04:18:19 GMT 33.100021 -97.250534 9,700 162 297 -1152
2019-01-10 04:18:15 GMT 33.103249 -97.251762 9,750 162 298 -1088
2019-01-10 04:18:12 GMT 33.108032 -97.253616 9,825 162 299 -1344
2019-01-10 04:18:08 GMT 33.113434 -97.255699 9,925 162 299 -1472
2019-01-10 04:18:05 GMT 33.116867 -97.257019 10,075 161 299 -1536
2019-01-10 04:18:02 GMT 33.122040 -97.258995 10,075 161 299 -1536
2019-01-10 04:17:58 GMT 33.127304 -97.261032 10,175 161 299 -1408
2019-01-10 04:17:55 GMT 33.130875 -97.262405 10,225 161 299 -1344
2019-01-10 04:17:50 GMT 33.135910 -97.264381 10,300 161 301 -1152
2019-01-10 04:17:47 GMT 33.141281 -97.266502 10,400 161 302 -960
2019-01-10 04:17:44 GMT 33.146530 -97.268555 10,450 161 303 -832
2019-01-10 04:17:41 GMT 33.150009 -97.269928 10,475 161 303 -768
2019-01-10 04:17:36 GMT 33.154877 -97.271828 10,525 161 303 -576
2019-01-10 04:17:33 GMT 33.160229 -97.273956 10,525 161 303 -512
2019-01-10 04:17:29 GMT 33.164093 -97.275528 10,575 161 304 -256
2019-01-10 04:17:24 GMT 33.171078 -97.278275 10,575 161 304 0
2019-01-10 04:17:20 GMT 33.178200 -97.281075 10,575 161 305 0
2019-01-10 04:17:15 GMT 33.184845 -97.283661 10,575 161 306 0
2019-01-10 04:17:11 GMT 33.189697 -97.285583 10,575 161 306 0
2019-01-10 04:17:08 GMT 33.192261 -97.286575 10,575 161 307 0
2019-01-10 04:17:05 GMT 33.197388 -97.288605 10,575 161 307 0
2019-01-10 04:17:02 GMT 33.202835 -97.290749 10,575 161 309 0
2019-01-10 04:16:59 GMT 33.206268 -97.292122 10,575 161 310 0
2019-01-10 04:16:54 GMT 33.212742 -97.294640 10,575 161 312 0
2019-01-10 04:16:51 GMT 33.216339 -97.296074 10,575 161 313 0
2019-01-10 04:16:48 GMT 33.220699 -97.297836 10,575 160 314 0
2019-01-10 04:16:45 GMT 33.231594 -97.302605 10,575 159 318 0
2019-01-10 04:16:41 GMT 33.231594 -97.302605 10,575 157 321 0
2019-01-10 04:16:37 GMT 33.234898 -97.304169 10,575 155 322 0
2019-01-10 04:16:33 GMT 33.240967 -97.307556 10,575 151 328 0
2019-01-10 04:16:30 GMT 33.245819 -97.310577 10,575 148 334 0
2019-01-10 04:16:27 GMT 33.249161 -97.312881 10,575 147 336 0
2019-01-10 04:16:22 GMT 33.255753 -97.317886 10,575 146 341 64
2019-01-10 04:16:16 GMT 33.262970 -97.323624 10,550 146 347 64
2019-01-10 04:16:12 GMT 33.269024 -97.328438 10,550 146 353 -64
2019-01-10 04:16:09 GMT 33.274246 -97.332603 10,575 146 356 -128
2019-01-10 04:16:06 GMT 33.277130 -97.334915 10,575 146 357 -128
2019-01-10 04:16:02 GMT 33.283546 -97.339989 10,600 146 359 -256
2019-01-10 04:15:55 GMT 33.291779 -97.346504 10,625 146 358 -512
2019-01-10 04:15:51 GMT 33.298210 -97.351532 10,700 146 357 -896
2019-01-10 04:15:45 GMT 33.305878 -97.357597 10,800 146 358 -1344
2019-01-10 04:15:40 GMT 33.313152 -97.363304 10,875 146 358 -1600
2019-01-10 04:15:37 GMT 33.318275 -97.367340 11,100 146 358 -1984
2019-01-10 04:15:34 GMT 33.320984 -97.369461 11,100 146 358 -1984
2019-01-10 04:15:30 GMT 33.328217 -97.375122 11,275 146 359 -1728
2019-01-10 04:15:24 GMT 33.335175 -97.380615 11,400 146 360 -1600
2019-01-10 04:15:21 GMT 33.339272 -97.383881 11,500 146 361 -1536
2019-01-10 04:15:18 GMT 33.343414 -97.387100 11,575 146 362 -1600
2019-01-10 04:15:14 GMT 33.349930 -97.392227 11,700 146 363 -1920
2019-01-10 04:15:11 GMT 33.353897 -97.395393 11,800 146 363 -1920
2019-01-10 04:15:08 GMT 33.358028 -97.398621 11,900 146 363 -1792
2019-01-10 04:15:04 GMT 33.364502 -97.403717 12,025 146 364 -1728
2019-01-10 04:15:00 GMT 33.368599 -97.406914 12,125 146 364 -1728
2019-01-10 04:14:57 GMT 33.373951 -97.411179 12,225 146 365 -1728
2019-01-10 04:14:53 GMT 33.378937 -97.415115 12,325 146 366 -1664
2019-01-10 04:14:49 GMT 33.383961 -97.419136 12,450 146 368 -1728
2019-01-10 04:14:46 GMT 33.388382 -97.422607 12,500 146 368 -1664
2019-01-10 04:14:43 GMT 33.394482 -97.427429 12,625 146 368 -1792
2019-01-10 04:14:39 GMT 33.398987 -97.430984 12,725 146 369 -1792
2019-01-10 04:14:35 GMT 33.404072 -97.434944 12,825 146 370 -1792
2019-01-10 04:14:32 GMT 33.408829 -97.438736 12,925 146 371 -1728
2019-01-10 04:14:28 GMT 33.413727 -97.442581 13,025 146 371 -1728
2019-01-10 04:14:22 GMT 33.423855 -97.450523 13,250 146 372 -1920
2019-01-10 04:14:18 GMT 33.430847 -97.456039 13,400 146 372 -1920
2019-01-10 04:14:11 GMT 33.438892 -97.462349 13,575 146 373 -2048
2019-01-10 04:14:07 GMT 33.443920 -97.466331 13,725 146 373 -2048
2019-01-10 04:14:02 GMT 33.452438 -97.473061 13,900 146 374 -1920
2019-01-10 04:13:58 GMT 33.458954 -97.478210 14,050 146 374 -1792
2019-01-10 04:13:53 GMT 33.464169 -97.482361 14,225 146 376 -1728
2019-01-10 04:13:50 GMT 33.469105 -97.486282 14,225 146 376 -1728
2019-01-10 04:13:46 GMT 33.474319 -97.490433 14,350 146 377 -1728
2019-01-10 04:13:40 GMT 33.484093 -97.498222 14,625 146 379 -1792
2019-01-10 04:13:37 GMT 33.489216 -97.502319 14,650 146 379 -1856
2019-01-10 04:13:30 GMT 33.499969 -97.510857 14,900 146 380 -2112
2019-01-10 04:13:26 GMT 33.504436 -97.514427 15,000 146 380 -2048
2019-01-10 04:13:19 GMT 33.515076 -97.522835 15,375 146 381 -2048
2019-01-10 04:13:15 GMT 33.520111 -97.526787 15,350 146 381 -2048
2019-01-10 04:13:09 GMT 33.530548 -97.535080 15,600 146 382 -1920
2019-01-10 04:13:05 GMT 33.535721 -97.539200 15,675 146 382 -1856
2019-01-10 04:12:58 GMT 33.545746 -97.547157 15,900 146 384 -1600
2019-01-10 04:12:55 GMT 33.551037 -97.551384 16,000 146 385 -1536
2019-01-10 04:12:48 GMT 33.560997 -97.559280 16,175 146 387 -1728
2019-01-10 04:12:43 GMT 33.567215 -97.564201 16,300 146 388 -1728
2019-01-10 04:12:40 GMT 33.574032 -97.569633 16,425 146 390 -1664
2019-01-10 04:12:37 GMT 33.583740 -97.577316 16,550 146 391 -1600
2019-01-10 04:12:32 GMT 33.583740 -97.577316 16,600 146 391 -1600
2019-01-10 04:12:28 GMT 33.589722 -97.582054 16,700 146 392 -1856
2019-01-10 04:12:25 GMT 33.595493 -97.586632 16,825 146 393 -1920
2019-01-10 04:12:17 GMT 33.608322 -97.596764 17,100 146 394 -1920
2019-01-10 04:12:13 GMT 33.614674 -97.601791 17,250 146 395 -1856
2019-01-10 04:12:04 GMT 33.626816 -97.611450 17,425 146 396 -1792
2019-01-10 04:12:01 GMT 33.630688 -97.614555 17,550 146 397 -1856
2019-01-10 04:11:56 GMT 33.640511 -97.622398 17,750 146 399 -1792
2019-01-10 04:11:51 GMT 33.646515 -97.627197 17,850 146 400 -1728
2019-01-10 04:11:44 GMT 33.659363 -97.637444 18,075 146 402 -1600
2019-01-10 04:11:40 GMT 33.663414 -97.640648 18,150 146 404 -1600
2019-01-10 04:11:34 GMT 33.673374 -97.648605 18,375 146 407 -1408
2019-01-10 04:11:30 GMT 33.679688 -97.653717 18,400 146 407 -1344
2019-01-10 04:11:23 GMT 33.691223 -97.662910 18,550 146 412 -1280
2019-01-10 04:11:19 GMT 33.697025 -97.667542 18,650 146 413 -1280
2019-01-10 04:11:13 GMT 33.705822 -97.674522 18,775 146 416 -1536
2019-01-10 04:11:09 GMT 33.712524 -97.679901 18,900 146 417 -1664
2019-01-10 04:11:03 GMT 33.722721 -97.687912 19,075 146 418 -1856
2019-01-10 04:10:59 GMT 33.729469 -97.693352 19,225 146 418 -2176
2019-01-10 04:10:52 GMT 33.741295 -97.702675 19,500 146 418 -2304
2019-01-10 04:10:48 GMT 33.747162 -97.707359 19,625 146 418 -2304
2019-01-10 04:10:41 GMT 33.758659 -97.716576 19,850 146 418 -2240
2019-01-10 04:10:38 GMT 33.764420 -97.721146 20,025 146 418 -2304
2019-01-10 04:10:33 GMT 33.775040 -97.729668 20,225 146 418 -2048
2019-01-10 04:10:30 GMT 33.775040 -97.729668 20,275 146 419 -1984
2019-01-10 04:10:27 GMT 33.780212 -97.733810 20,400 146 419 -1984
2019-01-10 04:10:24 GMT 33.787056 -97.739296 20,525 146 419 -2112
2019-01-10 04:10:21 GMT 33.791840 -97.743118 20,625 146 420 -2048
2019-01-10 04:10:16 GMT 33.798935 -97.748840 20,775 146 420 -2112
2019-01-10 04:10:10 GMT 33.808563 -97.756577 20,975 146 420 -2048
2019-01-10 04:10:06 GMT 33.815964 -97.762512 21,125 146 422 -1792
2019-01-10 04:09:59 GMT 33.826355 -97.770866 21,300 146 423 -1856
2019-01-10 04:09:55 GMT 33.833748 -97.776833 21,475 146 424 -1920
2019-01-10 04:09:50 GMT 33.842731 -97.784103 21,650 146 426 -1856
2019-01-10 04:09:44 GMT 33.850845 -97.790649 21,775 146 427 -1728
2019-01-10 04:09:39 GMT 33.859165 -97.797318 21,925 146 429 -1536
2019-01-10 04:09:34 GMT 33.868103 -97.804527 22,050 146 431 -1408
2019-01-10 04:09:31 GMT 33.872433 -97.807961 22,150 146 433 -1344
2019-01-10 04:09:28 GMT 33.876846 -97.811562 22,200 145 434 -1216
2019-01-10 04:09:22 GMT 33.886909 -97.819748 22,300 144 437 -1088
2019-01-10 04:09:18 GMT 33.894241 -97.826134 22,375 142 442 -1088
2019-01-10 04:09:14 GMT 33.900642 -97.832108 22,450 139 445 -1216
2019-01-10 04:09:10 GMT 33.906975 -97.838455 22,550 137 448 -1408
2019-01-10 04:09:07 GMT 33.910976 -97.842812 22,600 136 449 -1664
2019-01-10 04:09:02 GMT 33.920197 -97.853485 22,775 133 452 -1728
2019-01-10 04:08:58 GMT 33.924271 -97.858589 22,900 131 454 -1600
2019-01-10 04:08:54 GMT 33.930588 -97.866997 22,975 129 456 -1728
2019-01-10 04:08:51 GMT 33.934299 -97.872337 23,075 129 457 -1792
2019-01-10 04:08:47 GMT 33.940586 -97.881950 23,225 124 459 -1856
2019-01-10 04:08:43 GMT 33.944275 -97.888069 23,300 124 460 -1856
2019-01-10 04:08:39 GMT 33.948639 -97.895737 23,650 122 461 -2048
2019-01-10 04:08:36 GMT 33.953568 -97.905228 23,575 120 462 -1856
2019-01-10 04:08:31 GMT 33.962311 -97.924171 23,825 115 466 -1792
2019-01-10 04:08:27 GMT 33.962311 -97.924171 23,825 115 466 -1856
2019-01-10 04:08:24 GMT 33.964645 -97.930000 23,900 114 467 -1920
2019-01-10 04:08:20 GMT 33.968330 -97.939857 24,125 110 469 -1984
2019-01-10 04:08:15 GMT 33.972198 -97.951576 24,250 108 471 -1920
2019-01-10 04:08:12 GMT 33.974754 -97.960052 24,300 107 471 -1920
2019-01-10 04:08:08 GMT 33.977222 -97.969551 24,425 104 473 -1920
2019-01-10 04:08:05 GMT 33.979065 -97.977531 24,525 103 474 -1920
2019-01-10 04:08:02 GMT 33.981125 -97.987450 24,650 102 474 -1856
2019-01-10 04:07:56 GMT 33.983555 -98.001823 24,775 100 476 -1984
2019-01-10 04:07:53 GMT 33.984375 -98.007965 24,900 97 476 -2048
2019-01-10 04:07:49 GMT 33.985565 -98.018730 25,050 95 477 -1984
2019-01-10 04:07:45 GMT 33.986393 -98.029404 25,125 94 478 -1984
2019-01-10 04:07:42 GMT 33.987030 -98.047600 25,375 90 479 -2048
2019-01-10 04:07:38 GMT 33.987030 -98.047600 25,425 89 479 -2112
2019-01-10 04:07:35 GMT 33.986938 -98.057968 25,550 87 478 -2304
2019-01-10 04:07:29 GMT 33.986393 -98.070602 25,750 84 479 -2432
2019-01-10 04:07:26 GMT 33.985645 -98.079872 25,900 82 478 -2368
2019-01-10 04:07:23 GMT 33.984970 -98.086891 26,000 81 478 -2304
2019-01-10 04:07:17 GMT 33.982807 -98.102470 26,225 78 478 -2176
2019-01-10 04:07:13 GMT 33.980942 -98.113014 26,350 75 478 -1984
2019-01-10 04:07:09 GMT 33.975685 -98.135658 26,550 72 479 -1600
2019-01-10 04:07:04 GMT 33.975685 -98.135658 26,600 71 480 -1472
2019-01-10 04:06:59 GMT 33.971146 -98.151131 26,725 68 482 -1024
2019-01-10 04:06:54 GMT 33.967632 -98.161469 26,800 67 484 -832
2019-01-10 04:06:51 GMT 33.964874 -98.168953 26,850 65 486 -768
2019-01-10 04:06:48 GMT 33.961624 -98.177147 27,050 59 487 -1984
2019-01-10 04:06:44 GMT 33.957390 -98.186707 27,175 58 486 -2432
2019-01-10 04:06:41 GMT 33.953293 -98.195114 27,175 58 486 -2432
2019-01-10 04:06:35 GMT 33.942169 -98.215141 27,500 54 483 -2880
2019-01-10 04:06:31 GMT 33.942169 -98.215141 27,600 52 481 -2816
2019-01-10 04:06:27 GMT 33.936256 -98.224358 27,800 50 480 -2624
2019-01-10 04:06:24 GMT 33.930855 -98.232140 27,950 48 478 -2304
2019-01-10 04:06:17 GMT 33.921066 -98.245018 28,175 44 478 -1984
2019-01-10 04:06:14 GMT 33.912827 -98.254654 28,300 42 477 -1920
2019-01-10 04:06:11 GMT 33.912827 -98.254654 28,350 41 477 -1920
2019-01-10 04:06:04 GMT 33.900650 -98.267265 28,550 37 476 -1536
2019-01-10 04:06:01 GMT 33.895065 -98.272537 28,625 36 477 -1344
2019-01-10 04:05:55 GMT 33.885838 -98.280487 28,725 33 476 -1152
2019-01-10 04:05:50 GMT 33.874714 -98.289070 28,825 31 476 -960
2019-01-10 04:05:45 GMT 33.866055 -98.294907 28,900 27 476 -576
2019-01-10 04:05:42 GMT 33.858234 -98.299828 28,925 24 476 -512
2019-01-10 04:05:39 GMT 33.855255 -98.301544 28,950 24 475 -512
2019-01-10 04:05:35 GMT 33.840080 -98.309380 29,000 19 473 -256
2019-01-10 04:05:32 GMT 33.831116 -98.313339 29,000 19 473 -256
2019-01-10 04:05:28 GMT 33.831116 -98.313339 29,000 19 472 -192
2019-01-10 04:05:24 GMT 33.822716 -98.316589 29,025 15 469 0
2019-01-10 04:05:19 GMT 33.812759 -98.319901 29,050 14 467 -256
2019-01-10 04:05:14 GMT 33.801487 -98.323059 29,100 10 461 -704
2019-01-10 04:05:08 GMT 33.778908 -98.327232 29,300 4 460 -1536
2019-01-10 04:05:03 GMT 33.778908 -98.327232 29,300 4 460 -1536
2019-01-10 04:04:58 GMT 33.768768 -98.328255 29,425 2 460 -1984
2019-01-10 04:04:53 GMT 33.755680 -98.328781 29,625 0 460 -1728
2019-01-10 04:04:50 GMT 33.751209 -98.328781 29,700 359 459 -1856
2019-01-10 04:04:47 GMT 33.744598 -98.328667 29,950 355 457 -2112
2019-01-10 04:04:42 GMT 33.734116 -98.327858 30,075 354 456 -2240
2019-01-10 04:04:38 GMT 33.727001 -98.327065 30,100 353 455 -2560
2019-01-10 04:04:32 GMT 33.711914 -98.324333 30,475 349 449 -3648
2019-01-10 04:04:29 GMT 33.701111 -98.321587 30,825 346 446 -3776
2019-01-10 04:04:21 GMT 33.691017 -98.318420 31,225 343 441 -3456
2019-01-10 04:04:17 GMT 33.681519 -98.314972 31,400 341 438 -3328
2019-01-10 04:04:11 GMT 33.670074 -98.310036 31,750 338 434 -3520
2019-01-10 04:04:08 GMT 33.666439 -98.308243 31,875 337 432 -3648
2019-01-10 04:04:05 GMT 33.661644 -98.305840 32,025 336 429 -3776
2019-01-10 04:04:00 GMT 33.651169 -98.299889 32,400 333 424 -3840
2019-01-10 04:03:56 GMT 33.643349 -98.294792 32,675 330 419 -3712
2019-01-10 04:03:47 GMT 33.629475 -98.284721 33,125 326 413 -2944
2019-01-10 04:03:38 GMT 33.615555 -98.272873 33,475 323 409 -2176
2019-01-10 04:03:35 GMT 33.610390 -98.268013 33,625 321 408 -1728
2019-01-10 04:03:28 GMT 33.599442 -98.257118 33,800 319 407 -1152
2019-01-10 04:03:25 GMT 33.595230 -98.252579 33,850 318 406 -1024
2019-01-10 04:03:18 GMT 33.587208 -98.243584 33,925 315 405 -640
2019-01-10 04:03:15 GMT 33.583111 -98.238602 33,975 312 402 -384
2019-01-10 04:03:08 GMT 33.573612 -98.225441 33,975 308 400 -64
2019-01-10 04:03:03 GMT 33.569798 -98.219437 33,975 305 398 -64
2019-01-10 04:02:55 GMT 33.560299 -98.201866 33,975 301 397 0
2019-01-10 04:02:47 GMT 33.553253 -98.187843 33,975 302 397 0
2019-01-10 04:02:43 GMT 33.549820 -98.181061 33,975 302 397 0
2019-01-10 04:02:37 GMT 33.543541 -98.168510 34,000 302 397 0
2019-01-10 04:02:34 GMT 33.540794 -98.163071 34,000 302 397 0
2019-01-10 04:02:26 GMT 33.533524 -98.148666 34,000 302 397 0
2019-01-10 04:02:22 GMT 33.530228 -98.142159 34,000 302 397 -64
2019-01-10 04:02:19 GMT 33.527069 -98.135818 34,000 302 397 0
2019-01-10 04:02:16 GMT 33.523197 -98.128204 34,000 302 397 0
2019-01-10 04:02:13 GMT 33.520359 -98.122543 34,000 302 397 -64
2019-01-10 04:02:10 GMT 33.518543 -98.118950 34,000 302 397 0
2019-01-10 04:02:05 GMT 33.511139 -98.104263 34,000 301 398 0
2019-01-10 04:01:59 GMT 33.508209 -98.098381 34,000 301 398 0
2019-01-10 04:01:55 GMT 33.503769 -98.089615 34,000 302 399 0
2019-01-10 04:01:52 GMT 33.500107 -98.082352 34,000 302 399 0
2019-01-10 04:01:49 GMT 33.498138 -98.078468 34,000 302 399 0
2019-01-10 04:01:42 GMT 33.491592 -98.065392 34,000 302 399 64
2019-01-10 04:01:39 GMT 33.488342 -98.058968 34,000 302 399 64
2019-01-10 04:01:32 GMT 33.481579 -98.045639 33,975 302 399 0
2019-01-10 04:01:28 GMT 33.477905 -98.038368 34,000 302 400 0
2019-01-10 04:01:21 GMT 33.471588 -98.025894 34,000 302 400 0
2019-01-10 04:01:16 GMT 33.467243 -98.017273 34,000 302 400 0
2019-01-10 04:01:11 GMT 33.461609 -98.006180 34,000 302 400 0
2019-01-10 04:01:07 GMT 33.457809 -97.998596 34,000 302 401 0
2019-01-10 04:01:00 GMT 33.451584 -97.986237 34,000 302 401 0
2019-01-10 04:00:56 GMT 33.447647 -97.978439 34,000 302 401 0
2019-01-10 04:00:50 GMT 33.441730 -97.966766 34,000 302 401 0
2019-01-10 04:00:47 GMT 33.438766 -97.961021 34,000 302 401 0
2019-01-10 04:00:41 GMT 33.433258 -97.950119 34,000 302 401 -64
2019-01-10 04:00:37 GMT 33.428791 -97.941376 34,000 302 401 -64
2019-01-10 04:00:34 GMT 33.426323 -97.936447 34,000 302 401 -64
2019-01-10 04:00:29 GMT 33.421761 -97.927536 34,000 302 401 -64
2019-01-10 04:00:26 GMT 33.415649 -97.915428 34,025 302 401 0
2019-01-10 04:00:20 GMT 33.412766 -97.909714 34,025 302 401 0
2019-01-10 04:00:14 GMT 33.406071 -97.896538 34,025 302 401 0
2019-01-10 04:00:08 GMT 33.401276 -97.887138 34,000 302 402 0
2019-01-10 04:00:03 GMT 33.396378 -97.877472 34,000 302 402 0
2019-01-10 03:59:57 GMT 33.390896 -97.866714 34,025 302 402 -64
2019-01-10 03:59:53 GMT 33.385963 -97.857018 34,025 302 402 0
2019-01-10 03:59:47 GMT 33.380936 -97.847153 34,025 302 403 0
2019-01-10 03:59:41 GMT 33.375732 -97.836929 34,025 302 403 0
2019-01-10 03:59:37 GMT 33.370739 -97.827141 34,025 302 403 0
2019-01-10 03:59:34 GMT 33.367992 -97.821815 34,025 302 403 0
2019-01-10 03:59:30 GMT 33.363785 -97.813530 34,000 302 403 0
2019-01-10 03:59:26 GMT 33.359940 -97.806068 34,000 302 403 0
2019-01-10 03:59:20 GMT 33.354118 -97.794632 34,000 302 404 0
2019-01-10 03:59:16 GMT 33.351196 -97.788811 34,025 302 404 0
2019-01-10 03:59:13 GMT 33.347279 -97.781067 34,000 302 404 0
2019-01-10 03:59:08 GMT 33.343826 -97.774307 34,000 302 404 0
2019-01-10 03:59:05 GMT 33.339596 -97.765991 34,000 302 405 0
2019-01-10 03:59:02 GMT 33.337219 -97.761452 34,000 303 405 0
2019-01-10 03:58:56 GMT 33.330414 -97.748985 34,025 305 406 0
2019-01-10 03:58:52 GMT 33.326294 -97.741737 34,000 306 406 0
2019-01-10 03:58:48 GMT 33.322327 -97.735107 34,025 307 407 -64
2019-01-10 03:58:43 GMT 33.317688 -97.727562 34,025 308 408 0
2019-01-10 03:58:40 GMT 33.314255 -97.722237 34,025 309 408 0
2019-01-10 03:58:36 GMT 33.309010 -97.714363 34,025 310 409 0
2019-01-10 03:58:33 GMT 33.304230 -97.707512 34,000 311 410 0
2019-01-10 03:58:29 GMT 33.301098 -97.703094 34,025 312 411 0
2019-01-10 03:58:26 GMT 33.295990 -97.696251 34,025 313 411 0
2019-01-10 03:58:23 GMT 33.293510 -97.692955 34,025 313 411 0
2019-01-10 03:58:20 GMT 33.288715 -97.686783 34,025 314 411 0
2019-01-10 03:58:14 GMT 33.275024 -97.669281 34,025 314 411 0
2019-01-10 03:58:10 GMT 33.275024 -97.669281 34,025 314 411 0
2019-01-10 03:58:04 GMT 33.268799 -97.661316 34,000 313 412 0
2019-01-10 03:58:01 GMT 33.263077 -97.654007 34,000 313 412 0
2019-01-10 03:57:53 GMT 33.251999 -97.639839 34,000 314 411 0
2019-01-10 03:57:49 GMT 33.247654 -97.634323 34,000 314 411 0
2019-01-10 03:57:43 GMT 33.241745 -97.626762 34,000 314 411 0
2019-01-10 03:57:40 GMT 33.235657 -97.618965 34,000 314 411 0
2019-01-10 03:57:34 GMT 33.228661 -97.610046 34,000 314 411 0
2019-01-10 03:57:31 GMT 33.225357 -97.605835 34,000 314 411 0
2019-01-10 03:57:28 GMT 33.219910 -97.598862 34,000 314 411 0
2019-01-10 03:57:24 GMT 33.210739 -97.587128 34,000 313 412 0
2019-01-10 03:57:20 GMT 33.210739 -97.587128 34,000 313 412 0
2019-01-10 03:57:17 GMT 33.206863 -97.582268 34,000 313 412 0
2019-01-10 03:57:13 GMT 33.201614 -97.575523 34,000 313 412 0
2019-01-10 03:57:10 GMT 33.197800 -97.570625 34,000 313 412 0
2019-01-10 03:57:07 GMT 33.193188 -97.564705 34,000 313 412 0
2019-01-10 03:57:02 GMT 33.187325 -97.557251 34,000 313 412 0
2019-01-10 03:56:59 GMT 33.183414 -97.552261 34,000 313 412 0
2019-01-10 03:56:56 GMT 33.179581 -97.547333 34,000 313 412 0
2019-01-10 03:56:53 GMT 33.174500 -97.540848 34,000 314 411 0
2019-01-10 03:56:49 GMT 33.170425 -97.535614 34,000 314 411 -64
2019-01-10 03:56:45 GMT 33.165527 -97.529427 34,000 314 411 64
2019-01-10 03:56:41 GMT 33.156555 -97.517944 34,000 313 412 -64
2019-01-10 03:56:38 GMT 33.156555 -97.517944 34,000 313 412 0
2019-01-10 03:56:35 GMT 33.152596 -97.512909 34,000 314 411 0
2019-01-10 03:56:31 GMT 33.147995 -97.507011 34,000 313 412 0
2019-01-10 03:56:28 GMT 33.142914 -97.500534 34,000 314 411 0
2019-01-10 03:56:25 GMT 33.139252 -97.495865 34,000 314 411 0
2019-01-10 03:56:22 GMT 33.134445 -97.489761 34,000 313 411 0
2019-01-10 03:56:18 GMT 33.129177 -97.483032 34,000 313 411 0
2019-01-10 03:56:15 GMT 33.125175 -97.477875 34,000 313 411 -64
2019-01-10 03:56:10 GMT 33.119217 -97.470253 34,000 313 411 0
2019-01-10 03:56:07 GMT 33.116238 -97.466446 34,000 313 411 0
2019-01-10 03:56:03 GMT 33.111740 -97.460709 34,000 314 411 -64
2019-01-10 03:56:00 GMT 33.107574 -97.455429 34,000 314 411 0
2019-01-10 03:55:57 GMT 33.101948 -97.448227 34,000 314 411 0
2019-01-10 03:55:54 GMT 33.098099 -97.443344 34,000 314 411 0
2019-01-10 03:55:49 GMT 33.091427 -97.434830 34,000 314 411 0
2019-01-10 03:55:46 GMT 33.088852 -97.431595 34,000 314 411 0
2019-01-10 03:55:43 GMT 33.084538 -97.426025 34,000 313 411 0
2019-01-10 03:55:38 GMT 33.078094 -97.417862 34,025 313 411 64
2019-01-10 03:55:35 GMT 33.074898 -97.413811 34,025 313 411 64
2019-01-10 03:55:32 GMT 33.070816 -97.408577 34,000 313 411 0
2019-01-10 03:55:28 GMT 33.064728 -97.400833 34,000 313 411 0
2019-01-10 03:55:25 GMT 33.061249 -97.396378 34,025 313 411 0
2019-01-10 03:55:22 GMT 33.056671 -97.390556 34,000 313 411 0
2019-01-10 03:55:17 GMT 33.050926 -97.383202 34,000 314 410 0
2019-01-10 03:55:14 GMT 33.047241 -97.378525 34,000 314 410 0
2019-01-10 03:55:11 GMT 33.043350 -97.373581 34,000 314 410 0
2019-01-10 03:55:06 GMT 33.036774 -97.365211 34,000 314 410 0
2019-01-10 03:55:03 GMT 33.033600 -97.361168 34,000 314 410 0
2019-01-10 03:54:59 GMT 33.027088 -97.352821 34,000 314 410 0
2019-01-10 03:54:54 GMT 33.020645 -97.344688 34,000 314 410 0
2019-01-10 03:54:48 GMT 33.013687 -97.335793 34,000 314 410 0
2019-01-10 03:54:45 GMT 33.009212 -97.330124 34,000 314 410 0
2019-01-10 03:54:41 GMT 33.003845 -97.323265 34,000 314 408 0
2019-01-10 03:54:38 GMT 33.000458 -97.318985 34,000 314 408 0
2019-01-10 03:54:35 GMT 32.996784 -97.314316 34,000 314 408 0
2019-01-10 03:54:32 GMT 32.992859 -97.309311 34,000 314 408 0
2019-01-10 03:54:28 GMT 32.986824 -97.301651 34,000 314 408 0
2019-01-10 03:54:24 GMT 32.982880 -97.296623 34,000 314 408 0
2019-01-10 03:54:21 GMT 32.979034 -97.291733 34,000 314 408 0
2019-01-10 03:54:17 GMT 32.973587 -97.284813 34,000 314 408 0
2019-01-10 03:54:14 GMT 32.969505 -97.279617 34,000 314 408 0
2019-01-10 03:54:10 GMT 32.964935 -97.273827 34,000 314 408 0
2019-01-10 03:54:07 GMT 32.960987 -97.268799 34,000 314 408 0
2019-01-10 03:54:04 GMT 32.956192 -97.262749 34,000 314 408 64
2019-01-10 03:53:59 GMT 32.949921 -97.254822 34,000 314 408 64
2019-01-10 03:53:56 GMT 32.946739 -97.250809 34,000 314 408 0
2019-01-10 03:53:53 GMT 32.942596 -97.245598 34,000 314 408 0
2019-01-10 03:53:49 GMT 32.938084 -97.239876 34,000 313 407 -64
2019-01-10 03:53:46 GMT 32.933121 -97.233505 34,000 312 407 -64
2019-01-10 03:53:42 GMT 32.928028 -97.226707 34,000 312 406 -64
2019-01-10 03:53:38 GMT 32.923138 -97.219925 34,000 310 406 -64
2019-01-10 03:53:35 GMT 32.920345 -97.216003 34,000 310 406 0
2019-01-10 03:53:32 GMT 32.916321 -97.210220 34,000 309 406 0
2019-01-10 03:53:28 GMT 32.910988 -97.202271 34,000 308 405 0
2019-01-10 03:53:25 GMT 32.907871 -97.197502 34,000 307 405 -64
2019-01-10 03:53:22 GMT 32.904465 -97.192093 34,000 306 405 -64
2019-01-10 03:53:19 GMT 32.896317 -97.178741 34,025 304 404 0
2019-01-10 03:53:15 GMT 32.896317 -97.178741 34,025 305 404 0
2019-01-10 03:53:11 GMT 32.893021 -97.173080 34,025 304 404 0
2019-01-10 03:53:08 GMT 32.889202 -97.166336 34,000 304 403 0
2019-01-10 03:53:04 GMT 32.886063 -97.160667 34,000 303 403 0
2019-01-10 03:53:01 GMT 32.882221 -97.153503 34,000 302 403 0
2019-01-10 03:52:58 GMT 32.878647 -97.146606 34,000 301 403 0
2019-01-10 03:52:54 GMT 32.874939 -97.139137 34,000 300 402 64
2019-01-10 03:52:50 GMT 32.872536 -97.134277 34,000 300 402 64
2019-01-10 03:52:47 GMT 32.866158 -97.120483 34,000 299 402 0
2019-01-10 03:52:43 GMT 32.866158 -97.120483 34,000 298 402 0
2019-01-10 03:52:40 GMT 32.862900 -97.113091 34,000 297 402 0
2019-01-10 03:52:36 GMT 32.856617 -97.098007 34,000 296 402 0
2019-01-10 03:52:32 GMT 32.856617 -97.098007 34,000 296 402 0
2019-01-10 03:52:29 GMT 32.854065 -97.091728 34,000 296 402 0
2019-01-10 03:52:25 GMT 32.850796 -97.083717 34,000 296 402 0
2019-01-10 03:52:22 GMT 32.847977 -97.076843 34,000 296 402 64
2019-01-10 03:52:19 GMT 32.844372 -97.068024 34,000 296 402 64
2019-01-10 03:52:15 GMT 32.839462 -97.056023 34,000 296 402 64
2019-01-10 03:52:11 GMT 32.839462 -97.056023 34,000 296 402 64
2019-01-10 03:52:06 GMT 32.835846 -97.047073 33,975 296 402 64
2019-01-10 03:52:02 GMT 32.832642 -97.039207 33,975 296 402 64
2019-01-10 03:51:58 GMT 32.828888 -97.029984 33,975 296 402 0
2019-01-10 03:51:54 GMT 32.825100 -97.020767 33,975 296 402 0
2019-01-10 03:51:50 GMT 32.821976 -97.013069 33,975 296 402 0
2019-01-10 03:51:46 GMT 32.818771 -97.005157 33,975 296 402 -64
2019-01-10 03:51:42 GMT 32.815788 -96.997902 33,975 296 402 -64
2019-01-10 03:51:39 GMT 32.812775 -96.990494 33,975 296 402 -64
2019-01-10 03:51:36 GMT 32.811539 -96.987526 33,975 296 402 -64
2019-01-10 03:51:32 GMT 32.807831 -96.978409 33,975 296 401 -64
2019-01-10 03:51:27 GMT 32.803940 -96.968849 34,000 296 401 0
2019-01-10 03:51:24 GMT 32.801640 -96.963257 33,975 296 401 0
2019-01-10 03:51:21 GMT 32.794979 -96.947006 33,975 296 401 0
2019-01-10 03:51:16 GMT 32.794979 -96.947006 34,000 296 401 0
2019-01-10 03:51:11 GMT 32.790710 -96.936600 34,000 296 401 -64
2019-01-10 03:51:07 GMT 32.786880 -96.927216 34,000 296 401 -64
2019-01-10 03:51:03 GMT 32.784367 -96.921104 34,000 296 401 0
2019-01-10 03:51:00 GMT 32.782085 -96.915558 34,000 296 401 0
2019-01-10 03:50:56 GMT 32.778534 -96.906937 34,000 296 401 0
2019-01-10 03:50:53 GMT 32.775787 -96.900238 34,000 296 401 0
2019-01-10 03:50:50 GMT 32.774033 -96.895943 34,000 296 401 0
2019-01-10 03:50:47 GMT 32.771576 -96.889908 34,000 296 401 0
2019-01-10 03:50:44 GMT 32.769241 -96.884201 34,000 296 401 0
2019-01-10 03:50:39 GMT 32.764301 -96.872231 34,000 296 401 0
2019-01-10 03:50:34 GMT 32.761044 -96.864326 34,000 296 401 0
2019-01-10 03:50:30 GMT 32.757111 -96.854698 34,000 296 401 -64
2019-01-10 03:50:27 GMT 32.754272 -96.847778 34,000 296 401 -64
2019-01-10 03:50:24 GMT 32.752533 -96.843605 34,000 296 401 0
2019-01-10 03:50:19 GMT 32.748779 -96.834541 34,000 296 401 -64
2019-01-10 03:50:15 GMT 32.745621 -96.826797 34,000 296 401 0
2019-01-10 03:50:12 GMT 32.743469 -96.821686 34,000 296 401 0
2019-01-10 03:50:08 GMT 32.737255 -96.806534 34,000 296 401 0
2019-01-10 03:50:05 GMT 32.737255 -96.806534 34,000 296 401 0
2019-01-10 03:50:02 GMT 32.734909 -96.800865 34,000 296 402 0
2019-01-10 03:49:58 GMT 32.731625 -96.792854 34,000 297 402 0
2019-01-10 03:49:55 GMT 32.728363 -96.785049 34,000 297 402 0
2019-01-10 03:49:52 GMT 32.726669 -96.780869 34,000 297 402 0
2019-01-10 03:49:48 GMT 32.723328 -96.772743 34,000 297 402 0
2019-01-10 03:49:44 GMT 32.720032 -96.764832 34,000 297 402 0
2019-01-10 03:49:38 GMT 32.714352 -96.751045 34,000 297 402 0
2019-01-10 03:49:34 GMT 32.711002 -96.742912 34,000 297 402 0
2019-01-10 03:49:31 GMT 32.709503 -96.739235 34,000 297 402 0
2019-01-10 03:49:27 GMT 32.705414 -96.729408 34,000 297 402 0
2019-01-10 03:49:21 GMT 32.700851 -96.718307 34,000 297 402 0
2019-01-10 03:49:17 GMT 32.697052 -96.709076 34,000 297 402 0
2019-01-10 03:49:13 GMT 32.694901 -96.703911 34,000 297 402 0
2019-01-10 03:49:10 GMT 32.691589 -96.695885 34,000 297 402 0
2019-01-10 03:49:07 GMT 32.688995 -96.689629 34,000 297 402 0
2019-01-10 03:49:02 GMT 32.685120 -96.680191 34,000 296 403 0
2019-01-10 03:48:58 GMT 32.682907 -96.674911 34,000 296 403 0
2019-01-10 03:48:55 GMT 32.679565 -96.666779 34,000 296 403 0
2019-01-10 03:48:52 GMT 32.677780 -96.662384 34,000 297 404 0
2019-01-10 03:48:49 GMT 32.674484 -96.654472 34,000 297 404 0
2019-01-10 03:48:46 GMT 32.669128 -96.641563 34,000 297 404 0
2019-01-10 03:48:42 GMT 32.669128 -96.641563 34,000 297 404 0
2019-01-10 03:48:38 GMT 32.665924 -96.633820 34,000 297 404 0
2019-01-10 03:48:34 GMT 32.662125 -96.624702 34,000 297 404 0
2019-01-10 03:48:30 GMT 32.658817 -96.616631 34,000 297 404 0
2019-01-10 03:48:27 GMT 32.657234 -96.612869 34,000 297 404 0
2019-01-10 03:48:23 GMT 32.653603 -96.604126 34,000 296 403 0
2019-01-10 03:48:20 GMT 32.650772 -96.597290 34,000 297 404 0
2019-01-10 03:48:17 GMT 32.648666 -96.592125 34,000 297 404 0
2019-01-10 03:48:13 GMT 32.645222 -96.583839 34,000 297 404 0
2019-01-10 03:48:07 GMT 32.639961 -96.571167 34,000 297 404 0
2019-01-10 03:48:03 GMT 32.631912 -96.551804 34,000 297 404 0
2019-01-10 03:47:57 GMT 32.631912 -96.551804 34,000 297 404 0
2019-01-10 03:47:54 GMT 32.629581 -96.546112 34,000 297 404 0
2019-01-10 03:47:51 GMT 32.627159 -96.540398 34,000 297 404 0
2019-01-10 03:47:46 GMT 32.622551 -96.529243 34,000 297 404 0
2019-01-10 03:47:42 GMT 32.618687 -96.519936 34,000 297 404 0
2019-01-10 03:47:35 GMT 32.614197 -96.509071 34,000 297 404 0
2019-01-10 03:47:32 GMT 32.608841 -96.496162 34,000 297 404 0
2019-01-10 03:47:28 GMT 32.608841 -96.496162 34,000 297 405 0
2019-01-10 03:47:25 GMT 32.605042 -96.487045 34,000 297 405 0
2019-01-10 03:47:21 GMT 32.601471 -96.478470 34,000 297 405 0
2019-01-10 03:47:18 GMT 32.599823 -96.474464 34,000 297 405 0
2019-01-10 03:47:14 GMT 32.596893 -96.467323 34,000 297 405 0
2019-01-10 03:47:11 GMT 32.594109 -96.460632 34,000 297 405 0
2019-01-10 03:47:06 GMT 32.590530 -96.451996 34,000 297 405 0
2019-01-10 03:47:03 GMT 32.584167 -96.436668 34,000 297 405 0
2019-01-10 03:47:00 GMT 32.584167 -96.436668 34,000 297 405 0
2019-01-10 03:46:55 GMT 32.581539 -96.430420 34,000 297 405 0
2019-01-10 03:46:52 GMT 32.578033 -96.421951 34,000 297 405 0
2019-01-10 03:46:49 GMT 32.575562 -96.416016 34,000 297 405 64
2019-01-10 03:46:44 GMT 32.569427 -96.401291 34,000 297 405 0
2019-01-10 03:46:41 GMT 32.569427 -96.401291 34,000 297 405 0
2019-01-10 03:46:37 GMT 32.566177 -96.393425 34,000 297 405 0
2019-01-10 03:46:33 GMT 32.562035 -96.383446 34,000 297 405 0
2019-01-10 03:46:30 GMT 32.560730 -96.380363 34,000 297 405 0
2019-01-10 03:46:27 GMT 32.557564 -96.372688 34,000 297 405 0
2019-01-10 03:46:23 GMT 32.554550 -96.365425 34,000 297 405 0
2019-01-10 03:46:20 GMT 32.551281 -96.357613 34,000 297 405 0
2019-01-10 03:46:16 GMT 32.548859 -96.351837 34,000 297 405 0
2019-01-10 03:46:13 GMT 32.546391 -96.345840 34,000 297 405 0
2019-01-10 03:46:10 GMT 32.543930 -96.339989 33,975 297 405 0
2019-01-10 03:46:07 GMT 32.540482 -96.331711 33,975 297 405 0
2019-01-10 03:46:03 GMT 32.537918 -96.325546 34,000 297 405 0
2019-01-10 03:45:59 GMT 32.533401 -96.314720 33,975 297 406 0
2019-01-10 03:45:53 GMT 32.529541 -96.305481 33,975 297 405 0
2019-01-10 03:45:50 GMT 32.526581 -96.298462 33,975 297 405 0
2019-01-10 03:45:44 GMT 32.522644 -96.289070 34,000 297 405 0
2019-01-10 03:45:41 GMT 32.519299 -96.281044 34,000 297 405 0
2019-01-10 03:45:37 GMT 32.513805 -96.267921 34,000 297 405 0
2019-01-10 03:45:34 GMT 32.513805 -96.267921 34,000 297 405 0
2019-01-10 03:45:31 GMT 32.511612 -96.262650 34,000 297 405 0
2019-01-10 03:45:28 GMT 32.508636 -96.255508 34,000 297 405 0
2019-01-10 03:45:25 GMT 32.506683 -96.250832 34,000 297 406 0
2019-01-10 03:45:22 GMT 32.500763 -96.236610 34,000 297 406 0
2019-01-10 03:45:19 GMT 32.500763 -96.236610 34,000 297 406 0
2019-01-10 03:45:16 GMT 32.499069 -96.232597 34,000 297 406 0
2019-01-10 03:45:12 GMT 32.495556 -96.224144 34,000 297 406 0
2019-01-10 03:45:09 GMT 32.493027 -96.218094 34,000 297 406 0
2019-01-10 03:45:06 GMT 32.490005 -96.210953 34,000 297 406 0
2019-01-10 03:45:03 GMT 32.487991 -96.206177 34,000 297 406 0
2019-01-10 03:45:00 GMT 32.486115 -96.201614 34,000 297 406 -64
2019-01-10 03:44:57 GMT 32.482773 -96.193649 34,000 297 406 0
2019-01-10 03:44:53 GMT 32.478474 -96.183395 34,000 297 406 0
2019-01-10 03:44:49 GMT 32.476776 -96.179314 34,000 297 406 0
2019-01-10 03:44:46 GMT 32.473213 -96.170837 34,000 297 406 0
2019-01-10 03:44:42 GMT 32.470596 -96.164597 34,000 297 406 0
2019-01-10 03:44:37 GMT 32.466248 -96.154266 34,000 297 406 0
2019-01-10 03:44:34 GMT 32.464458 -96.149986 34,000 297 406 -64
2019-01-10 03:44:31 GMT 32.460411 -96.140236 34,000 297 406 0
2019-01-10 03:44:27 GMT 32.457916 -96.134323 34,025 297 406 0
2019-01-10 03:44:24 GMT 32.455353 -96.128174 34,000 297 406 0
2019-01-10 03:44:16 GMT 32.449142 -96.113335 34,025 297 406 0
2019-01-10 03:44:13 GMT 32.446976 -96.108292 34,025 297 406 0
2019-01-10 03:44:07 GMT 32.440346 -96.092422 34,025 297 406 0
2019-01-10 03:44:04 GMT 32.437958 -96.086754 34,025 297 407 0
2019-01-10 03:44:00 GMT 32.434898 -96.079529 34,025 297 407 0
2019-01-10 03:43:56 GMT 32.429546 -96.066750 34,025 297 407 0
2019-01-10 03:43:53 GMT 32.429546 -96.066750 34,025 297 407 0
2019-01-10 03:43:47 GMT 32.424797 -96.055428 34,025 297 407 0
2019-01-10 03:43:43 GMT 32.420513 -96.045227 34,000 297 407 0
2019-01-10 03:43:35 GMT 32.413998 -96.029640 34,000 297 408 0
2019-01-10 03:43:31 GMT 32.411297 -96.023308 34,000 297 408 0
2019-01-10 03:43:25 GMT 32.405823 -96.010178 34,000 297 408 0
2019-01-10 03:43:22 GMT 32.402802 -96.003036 34,000 297 408 0
2019-01-10 03:43:14 GMT 32.397053 -95.989342 34,000 297 408 0
2019-01-10 03:43:11 GMT 32.394352 -95.982956 34,000 297 408 64
2019-01-10 03:43:03 GMT 32.385223 -95.961235 34,000 297 408 0
2019-01-10 03:43:00 GMT 32.385223 -95.961235 34,000 297 408 64
2019-01-10 03:42:53 GMT 32.379456 -95.947525 34,000 297 409 0
2019-01-10 03:42:50 GMT 32.376617 -95.940857 34,000 297 409 0
2019-01-10 03:42:46 GMT 32.372753 -95.931778 34,000 297 410 0
2019-01-10 03:42:42 GMT 32.370564 -95.926559 34,000 297 410 0
2019-01-10 03:42:39 GMT 32.367447 -95.919167 34,000 297 410 0
2019-01-10 03:42:34 GMT 32.363487 -95.909744 34,000 297 409 0
2019-01-10 03:42:31 GMT 32.360367 -95.902405 34,000 297 409 0
2019-01-10 03:42:28 GMT 32.358555 -95.898087 34,000 297 410 0
2019-01-10 03:42:24 GMT 32.354736 -95.889000 34,000 297 410 -64
2019-01-10 03:42:20 GMT 32.351383 -95.881104 34,000 297 410 0
2019-01-10 03:42:14 GMT 32.345856 -95.868019 34,000 297 410 0
2019-01-10 03:42:10 GMT 32.342468 -95.860001 34,000 297 409 0
2019-01-10 03:42:07 GMT 32.340725 -95.855881 34,000 297 409 0
2019-01-10 03:42:01 GMT 32.335602 -95.843796 34,000 297 409 0
2019-01-10 03:41:58 GMT 32.333229 -95.838058 34,000 297 410 0
2019-01-10 03:41:55 GMT 32.330669 -95.832062 34,000 297 410 0
2019-01-10 03:41:49 GMT 32.321411 -95.810173 34,000 297 410 0
2019-01-10 03:41:38 GMT 32.315735 -95.796768 34,000 297 410 0
2019-01-10 03:41:35 GMT 32.313950 -95.792542 34,000 297 410 0
2019-01-10 03:41:29 GMT 32.308929 -95.780655 34,000 297 410 0
2019-01-10 03:41:26 GMT 32.304691 -95.770622 34,000 297 410 0
2019-01-10 03:41:20 GMT 32.300400 -95.760513 34,000 297 410 0
2019-01-10 03:41:17 GMT 32.297382 -95.753418 34,000 297 410 0
2019-01-10 03:41:14 GMT 32.296051 -95.750298 34,000 297 410 0
2019-01-10 03:41:08 GMT 32.291004 -95.738396 34,025 297 410 0
2019-01-10 03:41:04 GMT 32.287216 -95.729477 34,000 297 410 -64
2019-01-10 03:40:59 GMT 32.282860 -95.719170 34,000 297 410 -64
2019-01-10 03:40:56 GMT 32.279972 -95.712387 34,000 297 410 -64
2019-01-10 03:40:53 GMT 32.277508 -95.706558 34,000 297 410 0
2019-01-10 03:40:47 GMT 32.273178 -95.696358 34,000 297 410 0
2019-01-10 03:40:43 GMT 32.269135 -95.686798 34,000 297 410 0
2019-01-10 03:40:35 GMT 32.261353 -95.668495 34,000 297 410 0
2019-01-10 03:40:31 GMT 32.259583 -95.664291 34,000 297 411 0
2019-01-10 03:40:27 GMT 32.255447 -95.654556 34,000 297 410 0
2019-01-10 03:40:24 GMT 32.252972 -95.648651 34,000 297 410 0
2019-01-10 03:40:21 GMT 32.250229 -95.642204 34,000 297 411 0
2019-01-10 03:40:17 GMT 32.247108 -95.634811 34,000 297 411 0
2019-01-10 03:40:14 GMT 32.243801 -95.626961 34,000 297 411 0
2019-01-10 03:40:10 GMT 32.241753 -95.622139 34,000 297 411 0
2019-01-10 03:40:05 GMT 32.236954 -95.610825 34,000 297 411 0
2019-01-10 03:40:02 GMT 32.232304 -95.599892 34,000 297 411 0
2019-01-10 03:39:55 GMT 32.228851 -95.591766 34,000 297 411 0
2019-01-10 03:39:50 GMT 32.223366 -95.578873 34,000 297 411 0
2019-01-10 03:39:44 GMT 32.219650 -95.570122 34,000 297 411 0
2019-01-10 03:39:41 GMT 32.215687 -95.560822 34,000 297 411 0
2019-01-10 03:39:35 GMT 32.210861 -95.549522 34,000 297 411 0
2019-01-10 03:39:31 GMT 32.207912 -95.542603 34,000 297 411 0
2019-01-10 03:39:28 GMT 32.205231 -95.536285 34,000 297 411 0
2019-01-10 03:39:24 GMT 32.202187 -95.529205 34,000 297 411 0
2019-01-10 03:39:21 GMT 32.198975 -95.521584 34,000 297 410 0
2019-01-10 03:39:18 GMT 32.195992 -95.514519 34,000 297 410 0
2019-01-10 03:39:13 GMT 32.192551 -95.506401 34,000 297 411 0
2019-01-10 03:39:10 GMT 32.186874 -95.492996 34,000 297 411 0
2019-01-10 03:39:06 GMT 32.186874 -95.492996 34,000 297 411 0
2019-01-10 03:39:03 GMT 32.184219 -95.486794 34,000 297 411 0
2019-01-10 03:38:59 GMT 32.180237 -95.477402 34,000 297 411 0
2019-01-10 03:38:56 GMT 32.178024 -95.472260 34,000 297 411 0
2019-01-10 03:38:52 GMT 32.174927 -95.464928 34,000 297 411 0
2019-01-10 03:38:49 GMT 32.172043 -95.458115 34,000 297 411 0
2019-01-10 03:38:46 GMT 32.169178 -95.451462 34,000 297 411 0
2019-01-10 03:38:42 GMT 32.166367 -95.444931 34,000 297 410 0
2019-01-10 03:38:38 GMT 32.159821 -95.429657 34,000 297 412 0
2019-01-10 03:38:35 GMT 32.159821 -95.429657 34,025 297 410 0
2019-01-10 03:38:32 GMT 32.158173 -95.425766 34,000 297 411 0
2019-01-10 03:38:26 GMT 32.152817 -95.413345 34,000 297 411 0
2019-01-10 03:38:23 GMT 32.143856 -95.392441 34,000 297 410 0
2019-01-10 03:38:16 GMT 32.143856 -95.392441 34,025 297 411 0
2019-01-10 03:38:13 GMT 32.141621 -95.387222 34,000 297 411 0
2019-01-10 03:38:10 GMT 32.139294 -95.381844 34,000 297 411 0
2019-01-10 03:38:05 GMT 32.135056 -95.371933 34,025 297 411 0
2019-01-10 03:38:02 GMT 32.130798 -95.361931 34,025 297 411 0
2019-01-10 03:37:59 GMT 32.129837 -95.359734 34,025 297 411 0
2019-01-10 03:37:55 GMT 32.125698 -95.350006 34,025 297 411 0
2019-01-10 03:37:49 GMT 32.121277 -95.339684 34,025 297 411 0
2019-01-10 03:37:45 GMT 32.117020 -95.329689 34,025 297 411 0
2019-01-10 03:37:42 GMT 32.111221 -95.316147 34,000 297 411 0
2019-01-10 03:37:38 GMT 32.111221 -95.316147 34,025 297 411 0
2019-01-10 03:37:34 GMT 32.107635 -95.307823 34,000 297 412 0
2019-01-10 03:37:30 GMT 32.102600 -95.296013 34,000 297 412 0
2019-01-10 03:37:24 GMT 32.099396 -95.288597 34,000 297 412 0
2019-01-10 03:37:20 GMT 32.095871 -95.280411 34,000 297 412 0
2019-01-10 03:37:14 GMT 32.089901 -95.266487 34,000 297 412 0
2019-01-10 03:37:09 GMT 32.081196 -95.246254 34,000 297 413 0
2019-01-10 03:37:03 GMT 32.081196 -95.246254 34,000 297 413 0
2019-01-10 03:36:57 GMT 32.076324 -95.234932 34,000 297 413 0
2019-01-10 03:36:53 GMT 32.071697 -95.224167 34,000 297 413 0
2019-01-10 03:36:47 GMT 32.067352 -95.214058 34,000 297 412 0
2019-01-10 03:36:42 GMT 32.062992 -95.203934 34,000 297 412 0
2019-01-10 03:36:38 GMT 32.059662 -95.196205 34,000 297 412 0
2019-01-10 03:36:35 GMT 32.057007 -95.189995 34,000 297 412 0
2019-01-10 03:36:31 GMT 32.052750 -95.180222 34,000 297 412 0
2019-01-10 03:36:26 GMT 32.049454 -95.172585 34,000 297 412 0
2019-01-10 03:36:20 GMT 32.044281 -95.160553 34,000 297 412 0
2019-01-10 03:36:16 GMT 32.040665 -95.152145 34,000 297 412 0
2019-01-10 03:36:09 GMT 32.035126 -95.139351 34,000 297 412 0
2019-01-10 03:36:05 GMT 32.031616 -95.131233 34,000 297 412 0
2019-01-10 03:36:00 GMT 32.026173 -95.118622 34,000 297 412 0
2019-01-10 03:35:54 GMT 32.021988 -95.108917 34,000 297 412 0
2019-01-10 03:35:48 GMT 32.016678 -95.096725 34,000 297 412 0
2019-01-10 03:35:44 GMT 32.013245 -95.088699 34,000 297 412 0
2019-01-10 03:35:38 GMT 32.007202 -95.074692 34,000 297 412 0
2019-01-10 03:35:35 GMT 32.004684 -95.068871 34,000 297 413 0
2019-01-10 03:35:27 GMT 31.998642 -95.054863 34,000 297 413 0
2019-01-10 03:35:23 GMT 31.995117 -95.046623 34,000 297 413 0
2019-01-10 03:35:18 GMT 31.990265 -95.035416 34,000 297 412 0
2019-01-10 03:35:13 GMT 31.986374 -95.026413 34,000 297 412 0
2019-01-10 03:35:07 GMT 31.981480 -95.015091 34,000 297 412 0
2019-01-10 03:35:02 GMT 31.977036 -95.004822 34,000 297 412 0
2019-01-10 03:34:56 GMT 31.971268 -94.991417 34,000 297 412 0
2019-01-10 03:34:52 GMT 31.967749 -94.983307 34,000 297 412 0
2019-01-10 03:34:45 GMT 31.962479 -94.970985 34,000 297 412 0
2019-01-10 03:34:42 GMT 31.958715 -94.962288 34,000 297 412 0
2019-01-10 03:34:36 GMT 31.953781 -94.950912 34,000 297 412 0
2019-01-10 03:34:30 GMT 31.949203 -94.940384 34,000 297 414 0
2019-01-10 03:34:24 GMT 31.944284 -94.929108 34,000 297 414 0
2019-01-10 03:34:21 GMT 31.940561 -94.920471 34,000 297 414 0
2019-01-10 03:34:14 GMT 31.934137 -94.905617 34,000 297 415 0
2019-01-10 03:34:09 GMT 31.930939 -94.898308 34,000 297 415 0
2019-01-10 03:34:04 GMT 31.926773 -94.888641 34,000 298 415 64
2019-01-10 03:34:00 GMT 31.922195 -94.878204 34,000 298 415 0
2019-01-10 03:33:54 GMT 31.916702 -94.865570 34,000 297 416 0
2019-01-10 03:33:48 GMT 31.911467 -94.853546 34,000 297 416 64
2019-01-10 03:33:43 GMT 31.907881 -94.845306 33,975 298 416 64
2019-01-10 03:33:37 GMT 31.902807 -94.833595 33,975 298 416 128
2019-01-10 03:33:34 GMT 31.899170 -94.825249 33,925 298 416 320
2019-01-10 03:33:27 GMT 31.893915 -94.813248 33,925 298 416 576
2019-01-10 03:33:22 GMT 31.889557 -94.803276 33,875 298 417 704
2019-01-10 03:33:17 GMT 31.884279 -94.791046 33,800 298 417 704
2019-01-10 03:33:11 GMT 31.879211 -94.779434 33,750 298 417 640
2019-01-10 03:33:08 GMT 31.877668 -94.775917 33,725 298 417 512
2019-01-10 03:33:03 GMT 31.872253 -94.763451 33,675 298 417 512
2019-01-10 03:33:00 GMT 31.870453 -94.759323 33,650 297 417 512
2019-01-10 03:32:50 GMT 31.861816 -94.739449 33,575 298 417 512
2019-01-10 03:32:40 GMT 31.851883 -94.716652 33,475 298 416 512
2019-01-10 03:32:30 GMT 31.843035 -94.696434 33,375 298 416 768
2019-01-10 03:32:24 GMT 31.838379 -94.685783 33,300 298 417 960
2019-01-10 03:32:17 GMT 31.832520 -94.672318 33,200 297 418 896
2019-01-10 03:32:07 GMT 31.823111 -94.650803 33,050 298 419 704
2019-01-10 03:31:57 GMT 31.814917 -94.631973 32,875 298 420 960
2019-01-10 03:31:53 GMT 31.810726 -94.622444 32,875 298 419 768
2019-01-10 03:31:48 GMT 31.806538 -94.612915 32,750 298 420 960
2019-01-10 03:31:44 GMT 31.803698 -94.606468 32,750 298 420 960
2019-01-10 03:31:40 GMT 31.799694 -94.597328 32,675 298 421 1024
2019-01-10 03:31:34 GMT 31.794754 -94.586021 32,600 298 422 896
2019-01-10 03:31:24 GMT 31.785868 -94.565773 32,450 298 422 704
2019-01-10 03:31:17 GMT 31.778839 -94.549683 32,375 298 422 576
2019-01-10 03:31:14 GMT 31.776138 -94.543571 32,350 298 422 576
2019-01-10 03:31:08 GMT 31.771225 -94.532288 32,300 298 421 512
2019-01-10 03:31:03 GMT 31.767197 -94.523132 32,250 298 421 512
2019-01-10 03:30:58 GMT 31.762173 -94.511642 32,200 298 421 576
2019-01-10 03:30:53 GMT 31.757675 -94.501381 32,175 298 420 576
2019-01-10 03:30:43 GMT 31.748020 -94.479401 32,050 298 420 576
2019-01-10 03:30:34 GMT 31.739777 -94.460663 31,975 298 420 192
2019-01-10 03:30:31 GMT 31.737030 -94.454361 31,975 298 420 192
2019-01-10 03:30:21 GMT 31.729065 -94.436157 31,975 298 420 0
2019-01-10 03:30:12 GMT 31.721283 -94.418549 32,000 298 420 0
2019-01-10 03:30:04 GMT 31.714554 -94.403145 32,000 298 420 0
2019-01-10 03:30:01 GMT 31.706730 -94.385414 32,000 298 420 0
2019-01-10 03:29:56 GMT 31.706730 -94.385414 32,000 298 420 0
2019-01-10 03:29:51 GMT 31.702515 -94.375793 32,000 298 420 0
2019-01-10 03:29:46 GMT 31.697279 -94.363991 32,000 298 420 0
2019-01-10 03:29:40 GMT 31.692717 -94.353661 32,000 298 420 0
2019-01-10 03:29:35 GMT 31.688015 -94.342896 32,000 298 420 0
2019-01-10 03:29:30 GMT 31.684105 -94.334000 31,975 298 420 0
2019-01-10 03:29:25 GMT 31.678751 -94.321854 32,000 298 420 0
2019-01-10 03:29:19 GMT 31.667067 -94.295273 32,000 298 420 0
2019-01-10 03:29:11 GMT 31.667067 -94.295273 32,000 298 420 0
2019-01-10 03:29:08 GMT 31.664520 -94.289513 32,000 298 420 0
2019-01-10 03:29:01 GMT 31.658249 -94.275352 32,000 298 420 0
2019-01-10 03:28:58 GMT 31.655521 -94.269180 32,000 298 421 0
2019-01-10 03:28:53 GMT 31.650167 -94.256981 32,000 298 420 0
2019-01-10 03:28:47 GMT 31.646025 -94.247643 32,000 298 422 0
2019-01-10 03:28:41 GMT 31.640577 -94.235283 32,000 298 421 0
2019-01-10 03:28:37 GMT 31.636341 -94.225784 32,000 298 421 0
2019-01-10 03:28:31 GMT 31.631268 -94.214188 32,000 298 423 0
2019-01-10 03:28:26 GMT 31.627167 -94.204964 32,000 298 421 0
2019-01-10 03:28:21 GMT 31.621262 -94.191551 32,000 298 422 0
2019-01-10 03:28:15 GMT 31.617325 -94.182671 32,000 298 422 0
2019-01-10 03:28:10 GMT 31.612198 -94.171089 32,000 298 422 0
2019-01-10 03:28:05 GMT 31.608271 -94.162224 32,025 298 423 0
2019-01-10 03:28:00 GMT 31.602451 -94.149040 32,025 298 422 0
2019-01-10 03:27:57 GMT 31.600250 -94.144051 32,025 298 423 0
2019-01-10 03:27:53 GMT 31.596817 -94.136353 32,025 298 423 0
2019-01-10 03:27:48 GMT 31.592697 -94.127037 32,025 298 423 0
2019-01-10 03:27:43 GMT 31.588579 -94.117783 32,025 298 423 0
2019-01-10 03:27:38 GMT 31.583313 -94.105873 32,025 298 423 0
2019-01-10 03:27:34 GMT 31.580013 -94.098450 32,025 298 423 0
2019-01-10 03:27:28 GMT 31.573929 -94.084709 32,025 298 423 0
2019-01-10 03:27:23 GMT 31.569901 -94.075554 32,025 298 423 0
2019-01-10 03:27:20 GMT 31.566284 -94.067421 32,025 298 423 0
2019-01-10 03:27:16 GMT 31.563538 -94.061333 32,025 298 423 0
2019-01-10 03:27:12 GMT 31.559998 -94.053299 32,025 298 423 0
2019-01-10 03:27:06 GMT 31.554428 -94.040817 32,025 298 423 0
2019-01-10 03:27:02 GMT 31.550903 -94.032845 32,025 298 423 0
2019-01-10 03:26:56 GMT 31.545181 -94.020027 32,025 298 424 0
2019-01-10 03:26:52 GMT 31.540911 -94.010338 32,025 298 424 0
2019-01-10 03:26:44 GMT 31.535339 -93.997841 32,025 298 424 0
2019-01-10 03:26:41 GMT 31.532206 -93.990784 32,025 298 424 0
2019-01-10 03:26:34 GMT 31.525726 -93.976242 32,025 298 424 0
2019-01-10 03:26:29 GMT 31.521498 -93.966782 32,025 298 424 0
2019-01-10 03:26:23 GMT 31.515839 -93.954056 32,025 298 424 0
2019-01-10 03:26:20 GMT 31.513138 -93.947914 32,025 298 424 0
2019-01-10 03:26:13 GMT 31.506592 -93.933266 32,025 298 424 0
2019-01-10 03:26:08 GMT 31.502335 -93.923683 32,025 298 424 0
2019-01-10 03:26:03 GMT 31.497011 -93.911789 32,025 298 424 0
2019-01-10 03:25:58 GMT 31.493195 -93.903221 32,025 298 424 64
2019-01-10 03:25:52 GMT 31.487234 -93.889763 32,025 298 425 0
2019-01-10 03:25:48 GMT 31.484116 -93.882843 32,000 298 425 0
2019-01-10 03:25:44 GMT 31.478855 -93.871033 32,000 298 425 0
2019-01-10 03:25:41 GMT 31.477365 -93.867737 32,000 298 425 0
2019-01-10 03:25:37 GMT 31.474201 -93.860649 32,025 298 425 0
2019-01-10 03:25:31 GMT 31.468010 -93.846809 32,000 298 425 0
2019-01-10 03:25:27 GMT 31.465118 -93.840370 32,000 298 424 0
2019-01-10 03:25:17 GMT 31.455673 -93.819344 32,000 298 425 0
2019-01-10 03:25:13 GMT 31.451670 -93.810387 32,000 298 424 0
2019-01-10 03:25:10 GMT 31.448364 -93.802940 32,000 298 425 64
2019-01-10 03:25:06 GMT 31.446131 -93.797974 32,000 298 424 0
2019-01-10 03:24:56 GMT 31.436600 -93.776711 32,000 298 424 0
2019-01-10 03:24:51 GMT 31.431559 -93.765457 32,000 298 424 0
2019-01-10 03:24:48 GMT 31.429371 -93.760567 32,000 298 424 0
2019-01-10 03:24:45 GMT 31.422363 -93.744774 31,975 298 423 0
2019-01-10 03:24:40 GMT 31.422363 -93.744774 32,000 298 424 0
2019-01-10 03:24:34 GMT 31.417034 -93.732880 31,975 298 424 0
2019-01-10 03:24:24 GMT 31.407352 -93.711128 31,975 298 423 0
2019-01-10 03:24:17 GMT 31.400089 -93.694870 31,975 298 424 -64
2019-01-10 03:24:14 GMT 31.397873 -93.689896 31,975 298 424 0
2019-01-10 03:24:09 GMT 31.393665 -93.680473 31,975 298 423 0
2019-01-10 03:24:06 GMT 31.390869 -93.674278 31,975 298 423 0
2019-01-10 03:24:03 GMT 31.388266 -93.668503 31,975 298 423 0
2019-01-10 03:23:59 GMT 31.383682 -93.658287 31,975 298 423 -64
2019-01-10 03:23:53 GMT 31.378601 -93.646919 32,000 298 424 -64
2019-01-10 03:23:48 GMT 31.374710 -93.638199 32,000 298 423 0
2019-01-10 03:23:45 GMT 31.371323 -93.630714 32,000 298 423 0
2019-01-10 03:23:40 GMT 31.368256 -93.623817 32,000 298 423 0
2019-01-10 03:23:31 GMT 31.359421 -93.604164 32,000 298 423 -64
2019-01-10 03:23:26 GMT 31.354609 -93.593521 32,000 298 423 0
2019-01-10 03:23:20 GMT 31.349762 -93.582726 32,000 298 423 0
2019-01-10 03:23:13 GMT 31.342133 -93.565781 32,000 298 423 0
2019-01-10 03:23:10 GMT 31.339783 -93.560646 32,000 298 423 0
2019-01-10 03:22:59 GMT 31.330820 -93.540672 32,000 298 424 0
2019-01-10 03:22:49 GMT 31.321198 -93.519073 32,000 298 424 0
2019-01-10 03:22:41 GMT 31.313644 -93.502266 32,000 298 424 0
2019-01-10 03:22:38 GMT 31.311356 -93.497208 32,000 298 424 0
2019-01-10 03:22:31 GMT 31.303959 -93.480690 32,000 298 423 0
2019-01-10 03:22:27 GMT 31.301584 -93.475418 32,000 298 423 0
2019-01-10 03:22:18 GMT 31.292313 -93.454880 32,000 298 424 0
2019-01-10 03:22:07 GMT 31.282791 -93.433876 32,000 298 424 0
2019-01-10 03:21:59 GMT 31.274368 -93.415237 32,000 298 423 0
2019-01-10 03:21:56 GMT 31.272955 -93.412132 32,000 298 423 0
2019-01-10 03:21:46 GMT 31.263319 -93.390877 32,000 298 424 0
2019-01-10 03:21:35 GMT 31.253357 -93.368927 32,000 298 424 0
2019-01-10 03:21:25 GMT 31.243534 -93.347153 32,000 298 424 0
2019-01-10 03:21:14 GMT 31.234085 -93.326218 32,000 298 424 0
2019-01-10 03:21:08 GMT 31.228916 -93.314743 32,000 298 424 0
2019-01-10 03:21:03 GMT 31.224356 -93.304634 32,000 298 424 0
2019-01-10 03:20:53 GMT 31.214767 -93.283508 32,000 298 424 0
2019-01-10 03:20:43 GMT 31.206619 -93.265526 32,000 298 424 64
2019-01-10 03:20:40 GMT 31.203735 -93.259224 32,000 298 424 0
2019-01-10 03:20:32 GMT 31.194794 -93.239540 32,000 298 424 0
2019-01-10 03:20:21 GMT 31.185562 -93.219261 32,000 298 424 0
2019-01-10 03:20:15 GMT 31.180298 -93.207741 32,000 298 424 0
2019-01-10 03:20:11 GMT 31.175629 -93.197449 32,000 298 424 0
2019-01-10 03:20:06 GMT 31.171143 -93.187546 32,000 298 424 0
2019-01-10 03:20:02 GMT 31.166107 -93.176453 32,000 298 423 0
2019-01-10 03:19:55 GMT 31.161896 -93.167130 32,000 298 423 0
2019-01-10 03:19:52 GMT 31.158142 -93.158836 32,000 298 423 0
2019-01-10 03:19:49 GMT 31.156296 -93.154724 32,000 298 423 -64
2019-01-10 03:19:45 GMT 31.151827 -93.144836 32,000 298 424 0
2019-01-10 03:19:39 GMT 31.146660 -93.133522 32,000 298 424 0
2019-01-10 03:19:35 GMT 31.142670 -93.124748 32,000 298 424 -64
2019-01-10 03:19:30 GMT 31.139099 -93.116882 32,000 298 423 0
2019-01-10 03:19:27 GMT 31.136139 -93.110336 32,000 298 423 0
2019-01-10 03:19:23 GMT 31.132647 -93.102646 32,000 299 423 0
2019-01-10 03:19:17 GMT 31.126785 -93.089851 32,000 298 424 64
2019-01-10 03:19:09 GMT 31.119690 -93.074341 32,000 298 424 -64
2019-01-10 03:19:06 GMT 31.116760 -93.067879 32,000 298 424 -64
2019-01-10 03:19:02 GMT 31.112915 -93.059372 32,000 298 424 0
2019-01-10 03:18:55 GMT 31.107101 -93.046661 32,000 298 424 -64
2019-01-10 03:18:49 GMT 31.100666 -93.032669 32,000 299 424 -64
2019-01-10 03:18:46 GMT 31.097872 -93.026627 32,000 299 424 0
2019-01-10 03:18:38 GMT 31.090471 -93.010475 32,000 298 424 0
2019-01-10 03:18:35 GMT 31.088150 -93.005302 32,000 298 424 0
2019-01-10 03:18:29 GMT 31.083021 -92.994156 32,025 298 424 -64
2019-01-10 03:18:25 GMT 31.078135 -92.983444 32,025 298 424 -64
2019-01-10 03:18:18 GMT 31.072968 -92.972130 32,025 299 424 0
2019-01-10 03:18:14 GMT 31.068731 -92.962906 32,000 299 424 0
2019-01-10 03:18:06 GMT 31.058443 -92.940544 32,025 299 425 0
2019-01-10 03:17:55 GMT 31.051300 -92.924896 32,025 299 424 0
2019-01-10 03:17:52 GMT 31.048874 -92.919670 32,025 299 424 0
2019-01-10 03:17:45 GMT 31.041275 -92.903137 32,025 299 425 0
2019-01-10 03:17:42 GMT 31.039310 -92.898796 32,025 299 424 0
2019-01-10 03:17:36 GMT 31.033401 -92.886009 32,025 299 425 0
2019-01-10 03:17:32 GMT 31.029144 -92.876747 32,025 299 425 -64
2019-01-10 03:17:24 GMT 31.022829 -92.862930 32,025 298 424 0
2019-01-10 03:17:21 GMT 31.019623 -92.855965 32,025 298 424 0
2019-01-10 03:17:14 GMT 31.013241 -92.841942 32,025 298 424 0
2019-01-10 03:17:11 GMT 31.009689 -92.834206 32,025 298 424 0
2019-01-10 03:17:05 GMT 31.000168 -92.813416 32,025 299 425 0
2019-01-10 03:17:00 GMT 31.000168 -92.813416 32,025 298 424 0
2019-01-10 03:16:52 GMT 30.992523 -92.796669 32,025 298 424 0
2019-01-10 03:16:48 GMT 30.989498 -92.790146 32,025 298 424 0
2019-01-10 03:16:44 GMT 30.984741 -92.779755 32,025 299 425 0
2019-01-10 03:16:41 GMT 30.979294 -92.767853 32,025 299 425 0
2019-01-10 03:16:31 GMT 30.972879 -92.753830 32,025 299 425 0
2019-01-10 03:16:28 GMT 30.970924 -92.749603 32,025 299 425 0
2019-01-10 03:16:21 GMT 30.963593 -92.733604 32,025 298 424 64
2019-01-10 03:16:18 GMT 30.960846 -92.727516 32,025 299 425 64
2019-01-10 03:16:08 GMT 30.943087 -92.689011 32,000 299 424 64
2019-01-10 03:15:59 GMT 30.943087 -92.689011 32,000 299 424 64
2019-01-10 03:15:47 GMT 30.933472 -92.668167 32,000 299 424 64
2019-01-10 03:15:38 GMT 30.923628 -92.646774 32,000 299 424 0
2019-01-10 03:15:26 GMT 30.913898 -92.625732 32,000 299 424 0
2019-01-10 03:15:16 GMT 30.904129 -92.604568 32,000 299 423 0
2019-01-10 03:15:06 GMT 30.894020 -92.582832 32,000 299 423 0
2019-01-10 03:14:54 GMT 30.884245 -92.561569 32,000 299 422 0
2019-01-10 03:14:46 GMT 30.876471 -92.544762 32,000 299 422 0
2019-01-10 03:14:41 GMT 30.872177 -92.535416 32,000 299 423 0
2019-01-10 03:14:34 GMT 30.864506 -92.518944 32,000 299 423 0
2019-01-10 03:14:25 GMT 30.857103 -92.502907 32,000 299 423 0
2019-01-10 03:14:22 GMT 30.854450 -92.497139 32,000 299 423 0
2019-01-10 03:14:12 GMT 30.844299 -92.475212 32,000 299 421 0
2019-01-10 03:14:02 GMT 30.835505 -92.456100 32,000 299 421 0
2019-01-10 03:13:57 GMT 30.830894 -92.446106 32,000 299 421 0
2019-01-10 03:13:51 GMT 30.825668 -92.434814 32,000 299 421 0
2019-01-10 03:13:48 GMT 30.822842 -92.428749 32,000 299 422 0
2019-01-10 03:13:43 GMT 30.818605 -92.419518 32,000 299 422 0
2019-01-10 03:13:39 GMT 30.813812 -92.409241 32,000 299 421 0
2019-01-10 03:13:30 GMT 30.806175 -92.392822 32,000 299 421 0
2019-01-10 03:13:20 GMT 30.792164 -92.362717 32,000 299 421 -64
2019-01-10 03:13:12 GMT 30.789368 -92.356621 32,000 299 421 -64
2019-01-10 03:13:07 GMT 30.783924 -92.344978 32,000 299 421 0
2019-01-10 03:13:01 GMT 30.779688 -92.335800 32,000 299 421 0
2019-01-10 03:12:58 GMT 30.776522 -92.329048 32,000 299 421 0
2019-01-10 03:12:54 GMT 30.772984 -92.321518 32,000 299 421 0
2019-01-10 03:12:51 GMT 30.769730 -92.314400 32,000 299 421 64
2019-01-10 03:12:48 GMT 30.766937 -92.308472 32,000 299 421 0
2019-01-10 03:12:40 GMT 30.760136 -92.293839 32,000 299 421 0
2019-01-10 03:12:37 GMT 30.756691 -92.286476 32,000 299 421 0
2019-01-10 03:12:32 GMT 30.752838 -92.278206 32,000 299 421 0
2019-01-10 03:12:29 GMT 30.750267 -92.272743 32,000 299 421 0
2019-01-10 03:12:25 GMT 30.745331 -92.262054 32,000 299 421 0
2019-01-10 03:12:19 GMT 30.740538 -92.251816 32,000 299 421 0
2019-01-10 03:12:13 GMT 30.735138 -92.240280 32,000 299 421 0
2019-01-10 03:12:09 GMT 30.730902 -92.231155 32,000 299 421 0
2019-01-10 03:12:05 GMT 30.727112 -92.223061 32,000 299 421 0
2019-01-10 03:12:02 GMT 30.724941 -92.218414 32,000 299 421 0
2019-01-10 03:11:58 GMT 30.720840 -92.209541 32,000 299 421 0
2019-01-10 03:11:53 GMT 30.715586 -92.198311 32,000 299 421 0
2019-01-10 03:11:46 GMT 30.709488 -92.185234 32,000 299 421 64
2019-01-10 03:11:42 GMT 30.705763 -92.177269 31,975 299 421 0
2019-01-10 03:11:37 GMT 30.701061 -92.167160 31,975 299 421 0
2019-01-10 03:11:34 GMT 30.697895 -92.160408 31,975 299 420 0
2019-01-10 03:11:31 GMT 30.694822 -92.153816 31,975 299 420 0
2019-01-10 03:11:26 GMT 30.691910 -92.147560 31,975 299 421 0
2019-01-10 03:11:21 GMT 30.686304 -92.135574 32,000 299 421 0
2019-01-10 03:11:16 GMT 30.681931 -92.126122 32,000 299 421 -64
2019-01-10 03:11:10 GMT 30.676155 -92.113716 32,000 299 421 -64
2019-01-10 03:11:04 GMT 30.670761 -92.102051 32,000 299 421 0
2019-01-10 03:11:00 GMT 30.666870 -92.093758 32,000 299 420 0
2019-01-10 03:10:55 GMT 30.662109 -92.083633 32,000 299 420 0
2019-01-10 03:10:49 GMT 30.656696 -92.072021 32,000 299 421 0
2019-01-10 03:10:45 GMT 30.652634 -92.063438 32,000 299 421 0
2019-01-10 03:10:39 GMT 30.646408 -92.050133 32,000 299 420 0
2019-01-10 03:10:34 GMT 30.643150 -92.043129 32,000 299 420 0
2019-01-10 03:10:27 GMT 30.636726 -92.029396 32,000 299 420 0
2019-01-10 03:10:23 GMT 30.633373 -92.022255 32,000 299 420 0
2019-01-10 03:10:17 GMT 30.627228 -92.009094 32,000 299 421 0
2019-01-10 03:10:13 GMT 30.623552 -92.001266 32,000 299 421 0
2019-01-10 03:10:06 GMT 30.617594 -91.988579 32,000 299 421 0
2019-01-10 03:10:02 GMT 30.613724 -91.980339 32,000 299 420 0
2019-01-10 03:09:56 GMT 30.607590 -91.967255 32,000 299 421 0
2019-01-10 03:09:51 GMT 30.603535 -91.958641 32,000 299 421 64
2019-01-10 03:09:46 GMT 30.597473 -91.945656 32,000 299 421 0
2019-01-10 03:09:41 GMT 30.593990 -91.938210 32,000 299 421 0
2019-01-10 03:09:34 GMT 30.587566 -91.924530 32,000 299 421 64
2019-01-10 03:09:30 GMT 30.584215 -91.917389 32,000 299 421 0
2019-01-10 03:09:25 GMT 30.578257 -91.904701 32,000 299 421 -64
2019-01-10 03:09:20 GMT 30.574127 -91.895897 32,000 299 421 0
2019-01-10 03:09:13 GMT 30.567947 -91.882812 32,000 299 421 0
2019-01-10 03:09:09 GMT 30.564606 -91.875648 32,000 299 421 0
2019-01-10 03:09:03 GMT 30.558611 -91.862839 32,000 299 421 0
2019-01-10 03:08:59 GMT 30.554888 -91.854935 32,000 299 421 0
2019-01-10 03:08:51 GMT 30.547531 -91.839279 32,000 299 421 0
2019-01-10 03:08:48 GMT 30.544281 -91.832458 32,000 299 421 0
2019-01-10 03:08:42 GMT 30.539013 -91.821259 32,000 299 421 0
2019-01-10 03:08:38 GMT 30.535126 -91.813065 32,000 299 421 0
2019-01-10 03:08:31 GMT 30.527981 -91.797859 32,000 299 421 64
2019-01-10 03:08:27 GMT 30.525055 -91.791634 32,025 299 421 128
2019-01-10 03:08:21 GMT 30.519104 -91.778976 32,000 299 421 0
2019-01-10 03:08:17 GMT 30.515318 -91.770943 32,000 299 421 -64
2019-01-10 03:08:10 GMT 30.508474 -91.756493 32,000 299 421 64
2019-01-10 03:08:06 GMT 30.505692 -91.750648 32,000 299 421 64
2019-01-10 03:07:59 GMT 30.499146 -91.736809 32,000 299 421 0
2019-01-10 03:07:55 GMT 30.494934 -91.727867 32,000 299 421 0
2019-01-10 03:07:46 GMT 30.485596 -91.708107 32,000 299 421 0
2019-01-10 03:07:38 GMT 30.478588 -91.693321 32,000 299 422 0
2019-01-10 03:07:34 GMT 30.475189 -91.686180 32,000 299 422 0
2019-01-10 03:07:25 GMT 30.465227 -91.665253 32,000 299 422 0
2019-01-10 03:07:18 GMT 30.459129 -91.652344 32,000 299 422 0
2019-01-10 03:07:15 GMT 30.456896 -91.647621 32,000 299 422 0
2019-01-10 03:07:04 GMT 30.446503 -91.625710 32,000 299 422 0
2019-01-10 03:06:56 GMT 30.438446 -91.608688 32,000 299 421 0
2019-01-10 03:06:52 GMT 30.436132 -91.603836 32,000 299 422 64
2019-01-10 03:06:48 GMT 30.425858 -91.582191 32,000 299 421 0
2019-01-10 03:06:43 GMT 30.425858 -91.582191 32,000 299 421 0
2019-01-10 03:06:35 GMT 30.419653 -91.569016 32,000 299 422 0
2019-01-10 03:06:32 GMT 30.416580 -91.562477 32,000 299 422 0
2019-01-10 03:06:21 GMT 30.406219 -91.540619 32,000 299 421 0
2019-01-10 03:06:12 GMT 30.397865 -91.522873 31,975 299 421 0
2019-01-10 03:06:00 GMT 30.386719 -91.499420 31,975 299 422 0
2019-01-10 03:05:49 GMT 30.376511 -91.477875 31,975 299 422 0
2019-01-10 03:05:40 GMT 30.368444 -91.460960 32,000 299 422 0
2019-01-10 03:05:33 GMT 30.361084 -91.445457 32,000 299 422 0
2019-01-10 03:05:29 GMT 30.356714 -91.436241 32,000 299 422 0
2019-01-10 03:05:18 GMT 30.348175 -91.418365 32,000 299 422 0
2019-01-10 03:05:07 GMT 30.337280 -91.395424 32,000 299 421 0
2019-01-10 03:04:57 GMT 30.327759 -91.375381 32,000 299 422 0
2019-01-10 03:04:46 GMT 30.316586 -91.351868 32,000 299 422 0
2019-01-10 03:04:36 GMT 30.300888 -91.319008 32,000 300 422 0
2019-01-10 03:04:29 GMT 30.300888 -91.319008 32,000 299 421 0
2019-01-10 03:04:26 GMT 30.299103 -91.315239 32,000 300 422 0
2019-01-10 03:04:16 GMT 30.289352 -91.294930 32,000 299 422 0
2019-01-10 03:04:04 GMT 30.277575 -91.270401 32,000 299 422 0
2019-01-10 03:03:57 GMT 30.271057 -91.256783 32,000 299 422 0
2019-01-10 03:03:54 GMT 30.268217 -91.250847 32,000 299 422 0
2019-01-10 03:03:47 GMT 30.260651 -91.234940 32,025 299 423 0
2019-01-10 03:03:44 GMT 30.256626 -91.226517 32,025 299 422 0
2019-01-10 03:03:36 GMT 30.251226 -91.215256 32,025 299 422 0
2019-01-10 03:03:32 GMT 30.246990 -91.206352 32,025 299 422 0
2019-01-10 03:03:24 GMT 30.239639 -91.191048 32,025 299 422 0
2019-01-10 03:03:15 GMT 30.230530 -91.172089 32,025 299 422 0
2019-01-10 03:03:11 GMT 30.227600 -91.165955 32,025 299 422 0
2019-01-10 03:03:04 GMT 30.221237 -91.152702 32,025 299 423 0
2019-01-10 03:03:01 GMT 30.217117 -91.144035 32,025 299 423 0
2019-01-10 03:02:54 GMT 30.211006 -91.131264 32,025 299 422 0
2019-01-10 03:02:50 GMT 30.207596 -91.124268 32,025 299 422 0
2019-01-10 03:02:41 GMT 30.196062 -91.100281 32,025 299 422 0
2019-01-10 03:02:32 GMT 30.189777 -91.087265 32,025 299 422 -64
2019-01-10 03:02:29 GMT 30.187405 -91.082321 32,025 299 422 0
2019-01-10 03:02:21 GMT 30.179855 -91.066643 32,025 299 422 0
2019-01-10 03:02:18 GMT 30.177017 -91.060722 32,025 299 422 0
2019-01-10 03:02:08 GMT 30.166922 -91.039688 32,025 299 422 0
2019-01-10 03:02:00 GMT 30.159939 -91.025078 32,025 299 422 0
2019-01-10 03:01:56 GMT 30.156912 -91.018761 32,025 299 422 0
2019-01-10 03:01:49 GMT 30.150513 -91.005463 32,025 299 422 0
2019-01-10 03:01:46 GMT 30.147043 -90.998276 32,025 299 422 0
2019-01-10 03:01:39 GMT 30.140060 -90.983719 32,025 299 422 0
2019-01-10 03:01:36 GMT 30.136688 -90.976707 32,025 299 422 0
2019-01-10 03:01:27 GMT 30.129168 -90.961029 32,025 299 421 0
2019-01-10 03:01:24 GMT 30.126389 -90.955215 32,025 299 421 0
2019-01-10 03:01:17 GMT 30.119843 -90.941650 32,025 299 421 0
2019-01-10 03:01:13 GMT 30.116039 -90.933670 32,025 299 421 0
2019-01-10 03:01:07 GMT 30.109800 -90.920708 32,000 300 420 0
2019-01-10 03:01:02 GMT 30.105984 -90.912857 32,000 300 420 0
2019-01-10 03:00:56 GMT 30.099653 -90.899727 32,000 300 420 64
2019-01-10 03:00:52 GMT 30.096348 -90.892860 32,000 300 420 64
2019-01-10 03:00:47 GMT 30.090296 -90.880280 32,000 300 420 64
2019-01-10 03:00:41 GMT 30.086060 -90.871490 32,000 300 420 64
2019-01-10 03:00:35 GMT 30.079193 -90.857307 32,000 300 419 64
2019-01-10 03:00:31 GMT 30.075485 -90.849663 31,975 300 419 0
2019-01-10 03:00:23 GMT 30.069208 -90.836662 31,975 300 419 0
2019-01-10 03:00:20 GMT 30.065964 -90.829948 31,975 300 419 0
2019-01-10 03:00:14 GMT 30.059479 -90.816559 31,975 300 419 0
2019-01-10 03:00:10 GMT 30.055614 -90.808594 31,975 300 419 0
2019-01-10 03:00:00 GMT 30.045547 -90.787842 31,975 300 418 0
2019-01-10 02:59:48 GMT 30.035522 -90.767212 31,975 300 418 0
2019-01-10 02:59:41 GMT 30.028662 -90.753166 31,975 300 417 0
2019-01-10 02:59:38 GMT 30.025681 -90.747070 31,975 300 416 0
2019-01-10 02:59:28 GMT 30.016417 -90.727951 31,975 300 417 0
2019-01-10 02:59:20 GMT 30.009295 -90.713181 31,975 299 417 -64
2019-01-10 02:59:17 GMT 30.006088 -90.706467 31,975 299 417 -64
2019-01-10 02:59:07 GMT 29.995934 -90.685440 31,975 299 415 0
2019-01-10 02:58:59 GMT 29.989603 -90.672256 32,000 300 416 -64
2019-01-10 02:58:55 GMT 29.985971 -90.664726 32,000 300 416 -64
2019-01-10 02:58:49 GMT 29.979355 -90.651047 32,000 300 415 -64
2019-01-10 02:58:44 GMT 29.975964 -90.644020 32,000 300 415 -64
2019-01-10 02:58:38 GMT 29.970016 -90.631767 32,000 300 415 0
2019-01-10 02:58:35 GMT 29.966629 -90.624763 32,000 300 415 0
2019-01-10 02:58:28 GMT 29.959991 -90.611092 32,000 300 414 64
2019-01-10 02:58:21 GMT 29.953480 -90.597710 32,000 300 415 64
2019-01-10 02:58:16 GMT 29.949148 -90.588867 32,000 300 415 64
2019-01-10 02:58:13 GMT 29.945845 -90.582108 32,000 300 415 -64
2019-01-10 02:58:07 GMT 29.940445 -90.571022 32,000 300 415 0
2019-01-10 02:58:02 GMT 29.936508 -90.562943 32,000 300 415 0
2019-01-10 02:57:55 GMT 29.930248 -90.550140 32,000 300 414 0
2019-01-10 02:57:52 GMT 29.926437 -90.542366 32,000 300 414 0
2019-01-10 02:57:46 GMT 29.920578 -90.530464 32,000 300 414 0
2019-01-10 02:57:42 GMT 29.916609 -90.522232 32,000 300 414 0
2019-01-10 02:57:35 GMT 29.910789 -90.510323 32,000 300 414 0
2019-01-10 02:57:30 GMT 29.905930 -90.500198 32,000 299 414 0
2019-01-10 02:57:25 GMT 29.900921 -90.489861 32,000 300 414 0
2019-01-10 02:57:20 GMT 29.896545 -90.480919 32,000 300 414 0
2019-01-10 02:57:14 GMT 29.891006 -90.469452 32,000 300 414 0
2019-01-10 02:57:10 GMT 29.886211 -90.459648 32,000 300 415 0
2019-01-10 02:57:03 GMT 29.881138 -90.449257 32,000 300 414 0
2019-01-10 02:56:59 GMT 29.876129 -90.438980 32,000 300 414 0
2019-01-10 02:56:53 GMT 29.870708 -90.427925 32,000 300 414 0
2019-01-10 02:56:47 GMT 29.866381 -90.419098 32,000 300 414 -64
2019-01-10 02:56:41 GMT 29.860235 -90.406654 32,000 300 414 0
2019-01-10 02:56:38 GMT 29.856371 -90.398796 32,000 300 414 0
2019-01-10 02:56:31 GMT 29.850086 -90.385979 32,000 300 414 0
2019-01-10 02:56:27 GMT 29.846649 -90.378922 32,000 300 414 0
2019-01-10 02:56:20 GMT 29.840403 -90.366211 32,000 300 414 0
2019-01-10 02:56:16 GMT 29.836540 -90.358292 32,000 300 414 0
2019-01-10 02:56:11 GMT 29.831177 -90.347282 32,000 300 413 0
2019-01-10 02:56:05 GMT 29.826691 -90.338043 32,000 300 414 0
2019-01-10 02:55:59 GMT 29.821335 -90.327110 32,000 300 414 0
2019-01-10 02:55:55 GMT 29.816940 -90.318077 32,000 300 414 0
2019-01-10 02:55:49 GMT 29.810377 -90.304550 32,000 300 413 0
2019-01-10 02:55:45 GMT 29.806978 -90.297600 32,000 300 413 0
2019-01-10 02:55:38 GMT 29.801765 -90.286880 32,000 300 414 0
2019-01-10 02:55:33 GMT 29.796249 -90.275665 32,000 300 413 0
2019-01-10 02:55:27 GMT 29.791443 -90.265945 32,000 300 413 0
2019-01-10 02:55:23 GMT 29.786404 -90.255699 32,000 300 413 0
2019-01-10 02:55:18 GMT 29.781784 -90.246185 32,000 300 413 0
2019-01-10 02:55:12 GMT 29.776068 -90.234642 32,000 300 413 0
2019-01-10 02:55:07 GMT 29.771896 -90.226120 32,000 300 413 0
2019-01-10 02:55:00 GMT 29.765717 -90.213547 32,000 300 413 0
2019-01-10 02:54:57 GMT 29.762054 -90.206100 32,000 300 412 -64
2019-01-10 02:54:51 GMT 29.756104 -90.194054 32,000 300 412 0
2019-01-10 02:54:45 GMT 29.751163 -90.184021 32,000 300 411 0
2019-01-10 02:54:39 GMT 29.745529 -90.172508 32,000 300 411 0
2019-01-10 02:54:36 GMT 29.741776 -90.164848 32,000 300 411 0
2019-01-10 02:54:28 GMT 29.735962 -90.153015 32,025 300 411 0
2019-01-10 02:54:25 GMT 29.732391 -90.145782 32,025 300 411 0
2019-01-10 02:54:19 GMT 29.726257 -90.133293 32,025 300 411 0
2019-01-10 02:54:14 GMT 29.721601 -90.123756 32,025 300 411 -64
2019-01-10 02:54:07 GMT 29.716232 -90.112770 32,025 300 411 0
2019-01-10 02:54:03 GMT 29.712618 -90.105446 32,025 300 411 0
2019-01-10 02:53:58 GMT 29.706333 -90.092682 32,025 300 411 0
2019-01-10 02:53:53 GMT 29.702795 -90.085464 32,025 300 411 0
2019-01-10 02:53:46 GMT 29.696228 -90.072044 32,025 300 411 0
2019-01-10 02:53:42 GMT 29.693024 -90.065598 32,025 300 411 0
2019-01-10 02:53:34 GMT 29.684872 -90.048897 32,025 300 411 0
2019-01-10 02:53:31 GMT 29.682404 -90.043892 32,025 300 411 0
2019-01-10 02:53:26 GMT 29.676544 -90.031906 32,000 300 411 0
2019-01-10 02:53:21 GMT 29.672607 -90.023872 32,000 300 411 0
2019-01-10 02:53:09 GMT 29.662016 -90.002319 32,000 300 410 0
2019-01-10 02:53:00 GMT 29.652328 -89.982674 32,000 300 410 0
2019-01-10 02:52:53 GMT 29.645582 -89.969139 32,000 300 410 0
2019-01-10 02:52:50 GMT 29.643768 -89.965454 32,000 300 410 0
2019-01-10 02:52:42 GMT 29.636444 -89.950722 32,000 300 410 0
2019-01-10 02:52:39 GMT 29.633514 -89.944855 32,000 300 410 0
2019-01-10 02:52:33 GMT 29.627008 -89.931709 32,000 300 410 64
2019-01-10 02:52:28 GMT 29.623564 -89.924713 32,000 300 410 0
2019-01-10 02:52:20 GMT 29.615883 -89.909203 32,000 300 410 0
2019-01-10 02:52:17 GMT 29.613235 -89.903763 32,000 300 410 0
2019-01-10 02:52:10 GMT 29.606619 -89.890457 32,000 300 409 0
2019-01-10 02:52:01 GMT 29.597122 -89.871330 32,000 300 409 0
2019-01-10 02:51:58 GMT 29.594467 -89.865959 31,975 300 409 0
2019-01-10 02:51:47 GMT 29.576569 -89.829872 32,000 300 407 0
2019-01-10 02:51:39 GMT 29.576569 -89.829872 32,000 300 408 0
2019-01-10 02:51:34 GMT 29.572962 -89.822601 32,000 300 408 0
2019-01-10 02:51:26 GMT 29.565170 -89.806892 32,000 300 407 0
2019-01-10 02:51:17 GMT 29.556885 -89.790199 32,000 300 407 0
2019-01-10 02:51:14 GMT 29.554001 -89.784340 32,000 300 407 0
2019-01-10 02:51:05 GMT 29.545309 -89.766808 32,000 300 407 0
2019-01-10 02:50:57 GMT 29.537933 -89.751854 31,975 300 407 0
2019-01-10 02:50:47 GMT 29.528084 -89.732071 32,000 300 407 0
2019-01-10 02:50:35 GMT 29.517975 -89.711769 32,000 300 407 0
2019-01-10 02:50:27 GMT 29.508905 -89.693459 32,000 300 407 0
2019-01-10 02:50:23 GMT 29.506393 -89.688530 32,000 300 406 0
2019-01-10 02:50:13 GMT 29.496140 -89.667931 32,000 300 406 0
2019-01-10 02:50:04 GMT 29.488840 -89.653229 32,000 300 406 0
2019-01-10 02:49:57 GMT 29.482361 -89.640251 32,000 300 406 0
2019-01-10 02:49:54 GMT 29.475998 -89.627518 32,000 300 406 0
2019-01-10 02:49:42 GMT 29.468079 -89.611626 32,000 300 406 0
2019-01-10 02:49:39 GMT 29.465286 -89.606026 32,000 300 406 0
2019-01-10 02:49:33 GMT 29.459002 -89.593399 32,000 300 406 0
2019-01-10 02:49:22 GMT 29.449448 -89.574280 32,000 300 406 -64
2019-01-10 02:49:12 GMT 29.439356 -89.553978 32,000 300 406 0
2019-01-10 02:49:04 GMT 29.432510 -89.540260 32,000 300 406 0
2019-01-10 02:49:00 GMT 29.429113 -89.533455 32,000 300 405 64
2019-01-10 02:48:55 GMT 29.422970 -89.521126 32,000 300 405 64
2019-01-10 02:48:49 GMT 29.419281 -89.513748 32,000 300 405 64
2019-01-10 02:48:45 GMT 29.415482 -89.506142 32,000 300 405 64
2019-01-10 02:48:39 GMT 29.409897 -89.494949 32,000 300 405 0
2019-01-10 02:48:29 GMT 29.400251 -89.475670 32,000 300 405 0
2019-01-10 02:48:19 GMT 29.390213 -89.455650 32,000 300 405 0
2019-01-10 02:47:09 GMT 29.325583 -89.326607 32,000 300 404 0
2019-01-10 02:47:01 GMT 29.317657 -89.310928 32,000 300 404 0
We lost coverage of the aircraft here for a total of 34 minutes
2019-01-10 02:13:26 GMT 27.945354 -85.459038 32,000 289 383 0
2019-01-10 02:11:45 GMT 27.887398 -85.267059 32,000 287 384 0
2019-01-10 02:11:40 GMT 27.885315 -85.259293 32,000 287 383 -64
2019-01-10 02:11:31 GMT 27.880739 -85.240067 32,000 284 384 -64
2019-01-10 02:11:19 GMT 27.876205 -85.218307 32,000 284 384 0
2019-01-10 02:11:09 GMT 27.872175 -85.198662 32,000 284 384 0
2019-01-10 02:10:59 GMT 27.868149 -85.179230 32,000 284 384 0
2019-01-10 02:10:49 GMT 27.863842 -85.158409 32,000 284 384 0
2019-01-10 02:10:39 GMT 27.859467 -85.137123 32,000 284 384 0
2019-01-10 02:10:25 GMT 27.854187 -85.111549 32,025 284 384 0
2019-01-10 02:10:09 GMT 27.847689 -85.080399 32,000 284 385 0
2019-01-10 02:10:05 GMT 27.845640 -85.070572 32,025 284 385 0
2019-01-10 02:09:56 GMT 27.842056 -85.053253 32,025 284 385 0
2019-01-10 02:09:45 GMT 27.837912 -85.033600 32,025 284 385 -64
2019-01-10 02:09:35 GMT 27.833490 -85.012474 32,025 284 385 0
2019-01-10 02:09:23 GMT 27.829010 -84.991066 32,000 284 385 0
2019-01-10 02:09:13 GMT 27.824890 -84.971115 32,025 284 385 0
2019-01-10 02:09:03 GMT 27.820404 -84.949608 32,025 284 385 0
2019-01-10 02:08:52 GMT 27.816126 -84.929176 32,025 284 385 64
2019-01-10 02:08:41 GMT 27.811750 -84.908310 32,025 284 385 0
2019-01-10 02:08:31 GMT 27.807327 -84.887024 32,000 284 385 0
2019-01-10 02:08:19 GMT 27.802813 -84.865318 32,000 284 384 64
2019-01-10 02:08:09 GMT 27.798761 -84.846039 32,000 284 384 0
2019-01-10 02:07:59 GMT 27.794449 -84.825439 32,000 284 384 0
2019-01-10 02:07:47 GMT 27.789778 -84.803520 31,975 284 384 0
2019-01-10 02:07:38 GMT 27.785633 -84.783875 31,975 284 384 0
2019-01-10 02:07:30 GMT 27.782934 -84.770775 31,975 284 385 0
2019-01-10 02:07:26 GMT 27.781265 -84.762894 31,975 284 384 0
2019-01-10 02:07:17 GMT 27.777069 -84.742722 31,975 284 383 0
2019-01-10 02:07:05 GMT 27.772694 -84.721703 31,975 284 383 0
2019-01-10 02:06:55 GMT 27.768356 -84.701218 31,975 284 383 0
2019-01-10 02:06:45 GMT 27.764099 -84.681221 31,975 284 383 0
2019-01-10 02:06:34 GMT 27.759659 -84.660378 32,000 284 383 0
2019-01-10 02:06:24 GMT 27.755219 -84.639297 32,000 284 383 0
2019-01-10 02:06:12 GMT 27.750916 -84.618874 32,000 284 383 0
2019-01-10 02:06:02 GMT 27.746567 -84.598305 32,000 284 383 0
2019-01-10 02:05:52 GMT 27.742264 -84.577881 32,000 284 384 0
2019-01-10 02:05:41 GMT 27.737825 -84.556747 32,000 284 384 0
2019-01-10 02:05:28 GMT 27.732651 -84.532486 32,000 284 384 0
2019-01-10 02:05:17 GMT 27.727722 -84.509216 32,000 284 384 0
2019-01-10 02:05:09 GMT 27.724548 -84.494087 32,000 284 385 0
2019-01-10 02:05:05 GMT 27.723253 -84.488136 32,025 284 385 0
2019-01-10 02:04:56 GMT 27.719437 -84.469971 32,000 284 385 0
2019-01-10 02:04:46 GMT 27.715256 -84.450554 32,025 284 385 -64
2019-01-10 02:04:33 GMT 27.710312 -84.427338 32,025 284 385 0
2019-01-10 02:04:25 GMT 27.706263 -84.408279 32,000 284 385 0
2019-01-10 02:04:13 GMT 27.701569 -84.386139 32,025 284 385 0
2019-01-10 02:04:04 GMT 27.697838 -84.368607 32,000 284 386 0
2019-01-10 02:03:54 GMT 27.691727 -84.340019 32,000 284 386 0
2019-01-10 02:03:41 GMT 27.688387 -84.324455 32,000 284 386 0
2019-01-10 02:03:31 GMT 27.683853 -84.303223 32,000 284 386 0
2019-01-10 02:03:20 GMT 27.679634 -84.283569 32,000 284 386 64
2019-01-10 02:03:12 GMT 27.675751 -84.265450 32,000 284 386 64
2019-01-10 02:02:58 GMT 27.670137 -84.239151 32,000 284 386 0
2019-01-10 02:02:49 GMT 27.666273 -84.221138 32,000 284 386 0
2019-01-10 02:02:39 GMT 27.662085 -84.201546 32,000 284 386 0
2019-01-10 02:02:26 GMT 27.657057 -84.178040 32,000 284 386 0
2019-01-10 02:02:19 GMT 27.653458 -84.161285 32,000 284 387 0
2019-01-10 02:02:07 GMT 27.648743 -84.139107 32,000 284 387 -64
2019-01-10 02:01:56 GMT 27.644073 -84.117393 32,025 284 386 0
2019-01-10 02:01:45 GMT 27.639862 -84.097801 32,000 284 386 0
2019-01-10 02:01:36 GMT 27.634758 -84.073982 32,000 284 387 0
2019-01-10 02:01:24 GMT 27.630987 -84.056557 32,000 284 388 0
2019-01-10 02:01:13 GMT 27.626053 -84.033791 32,000 284 388 0
2019-01-10 02:01:04 GMT 27.621771 -84.013985 32,000 284 388 0
2019-01-10 02:00:52 GMT 27.617348 -83.993546 32,000 284 388 0
2019-01-10 02:00:41 GMT 27.612553 -83.971413 32,000 284 388 64
2019-01-10 02:00:32 GMT 27.608410 -83.952133 32,000 284 388 0
2019-01-10 02:00:20 GMT 27.603756 -83.930740 32,000 284 388 0
2019-01-10 02:00:10 GMT 27.599121 -83.909477 32,000 284 387 64
2019-01-10 02:00:00 GMT 27.594770 -83.889328 32,000 284 387 0
2019-01-10 01:59:48 GMT 27.590103 -83.867661 32,000 284 388 0
2019-01-10 01:59:44 GMT 27.587860 -83.857452 32,000 284 388 0
2019-01-10 01:59:38 GMT 27.585617 -83.847084 32,000 284 388 0
2019-01-10 01:59:34 GMT 27.584017 -83.839890 32,000 284 388 0
2019-01-10 01:59:28 GMT 27.581038 -83.826210 31,975 284 388 0
2019-01-10 01:59:24 GMT 27.579735 -83.820297 31,975 284 388 0
2019-01-10 01:59:16 GMT 27.576370 -83.804695 32,000 284 388 0
2019-01-10 01:59:06 GMT 27.572021 -83.784744 32,000 284 388 0
2019-01-10 01:59:02 GMT 27.570465 -83.777641 32,000 284 388 0
2019-01-10 01:58:56 GMT 27.567305 -83.763092 32,000 284 388 -64
2019-01-10 01:58:51 GMT 27.565750 -83.756142 32,000 284 388 0
2019-01-10 01:58:47 GMT 27.563534 -83.746033 32,000 284 388 0
2019-01-10 01:58:41 GMT 27.561539 -83.736702 32,000 284 388 0
2019-01-10 01:58:34 GMT 27.558289 -83.721832 32,000 284 388 0
2019-01-10 01:58:30 GMT 27.556738 -83.714714 32,000 284 388 0
2019-01-10 01:58:24 GMT 27.553619 -83.700478 32,000 284 388 0
2019-01-10 01:58:20 GMT 27.552034 -83.693321 32,000 284 388 0
2019-01-10 01:58:13 GMT 27.549179 -83.680115 32,000 284 388 0
2019-01-10 01:58:10 GMT 27.547798 -83.673775 32,000 284 388 0
2019-01-10 01:58:02 GMT 27.544510 -83.658768 32,000 284 388 0
2019-01-10 01:57:58 GMT 27.543228 -83.652908 32,000 284 387 0
2019-01-10 01:57:51 GMT 27.539886 -83.637825 32,000 284 387 0
2019-01-10 01:57:48 GMT 27.538721 -83.632469 32,000 284 387 0
2019-01-10 01:57:41 GMT 27.535400 -83.617310 32,000 284 387 0
2019-01-10 01:57:37 GMT 27.533787 -83.609917 32,000 284 388 0
2019-01-10 01:57:30 GMT 27.530869 -83.596527 32,000 284 388 0
2019-01-10 01:57:26 GMT 27.529505 -83.590378 32,000 284 388 0
2019-01-10 01:57:22 GMT 27.527176 -83.579811 32,000 284 388 0
2019-01-10 01:57:17 GMT 27.524780 -83.568901 32,000 284 388 0
2019-01-10 01:57:09 GMT 27.521635 -83.554512 32,000 284 388 0
2019-01-10 01:57:06 GMT 27.520523 -83.549522 32,000 284 388 0
2019-01-10 01:57:00 GMT 27.518145 -83.538666 32,000 284 388 0
2019-01-10 01:56:56 GMT 27.515991 -83.528999 32,000 284 387 0
2019-01-10 01:56:51 GMT 27.513954 -83.519707 32,000 284 387 0
2019-01-10 01:56:48 GMT 27.512466 -83.512840 32,000 284 387 0
2019-01-10 01:56:44 GMT 27.511349 -83.507980 32,000 284 387 0
2019-01-10 01:56:40 GMT 27.509207 -83.498207 32,000 284 387 0
2019-01-10 01:56:37 GMT 27.507530 -83.490547 32,000 284 387 0
2019-01-10 01:56:33 GMT 27.506653 -83.486557 32,000 284 387 0
2019-01-10 01:56:30 GMT 27.504831 -83.478455 31,975 284 387 0
2019-01-10 01:56:24 GMT 27.502224 -83.466515 32,000 284 387 0
2019-01-10 01:56:18 GMT 27.500130 -83.456955 31,975 284 387 0
2019-01-10 01:56:15 GMT 27.498453 -83.449295 31,975 284 387 0
2019-01-10 01:56:12 GMT 27.497543 -83.445099 31,975 284 387 0
2019-01-10 01:56:09 GMT 27.495661 -83.436623 31,975 284 387 0
2019-01-10 01:56:05 GMT 27.493008 -83.424683 31,975 284 387 0
2019-01-10 01:55:56 GMT 27.490679 -83.414169 31,975 284 387 0
2019-01-10 01:55:52 GMT 27.488434 -83.403900 31,975 284 387 0
2019-01-10 01:55:48 GMT 27.486675 -83.396004 31,975 284 387 0
2019-01-10 01:55:44 GMT 27.484859 -83.387817 31,975 284 387 0
2019-01-10 01:55:40 GMT 27.483696 -83.382530 31,975 284 387 0
2019-01-10 01:55:36 GMT 27.481888 -83.374413 31,975 285 387 0
2019-01-10 01:55:33 GMT 27.480331 -83.367416 31,975 285 387 0
2019-01-10 01:55:30 GMT 27.478901 -83.361092 31,975 284 387 0
2019-01-10 01:55:22 GMT 27.475737 -83.346619 31,975 284 387 0
2019-01-10 01:55:19 GMT 27.474609 -83.341660 31,975 284 387 0
2019-01-10 01:55:13 GMT 27.471594 -83.328079 31,975 284 387 0
2019-01-10 01:55:09 GMT 27.470057 -83.321053 31,975 284 387 0
2019-01-10 01:55:05 GMT 27.467880 -83.311195 31,975 284 387 0
2019-01-10 01:55:02 GMT 27.466644 -83.305542 31,975 284 387 0
2019-01-10 01:54:59 GMT 27.465363 -83.299896 31,975 284 387 0
2019-01-10 01:54:51 GMT 27.461838 -83.283882 31,975 284 387 0
2019-01-10 01:54:48 GMT 27.460968 -83.279945 31,975 284 387 0
2019-01-10 01:54:43 GMT 27.458588 -83.269005 31,975 284 387 0
2019-01-10 01:54:40 GMT 27.455978 -83.257294 31,975 284 387 0
2019-01-10 01:54:37 GMT 27.455978 -83.257294 31,975 284 387 0
2019-01-10 01:54:33 GMT 27.454285 -83.249680 31,975 284 387 0
2019-01-10 01:54:29 GMT 27.452368 -83.241028 31,975 285 387 0
2019-01-10 01:54:26 GMT 27.451715 -83.238075 31,975 285 387 0
2019-01-10 01:54:19 GMT 27.447235 -83.217857 31,975 285 387 0
2019-01-10 01:54:12 GMT 27.445105 -83.208389 31,975 285 387 0
2019-01-10 01:54:06 GMT 27.442497 -83.196449 31,975 285 387 -64
2019-01-10 01:54:01 GMT 27.440542 -83.187683 32,000 285 387 -64
2019-01-10 01:53:58 GMT 27.439098 -83.181236 32,000 285 387 -64
2019-01-10 01:53:52 GMT 27.436445 -83.169304 32,000 285 387 -64
2019-01-10 01:53:44 GMT 27.433281 -83.155251 32,000 285 387 0
2019-01-10 01:53:40 GMT 27.429649 -83.139198 32,000 285 387 0
2019-01-10 01:53:36 GMT 27.429649 -83.139198 32,000 285 388 0
2019-01-10 01:53:33 GMT 27.428284 -83.133026 32,000 285 388 0
2019-01-10 01:53:30 GMT 27.427094 -83.127739 32,000 285 388 0
2019-01-10 01:53:26 GMT 27.425135 -83.118858 32,000 285 389 0
2019-01-10 01:53:23 GMT 27.423923 -83.113579 32,000 285 388 0
2019-01-10 01:53:19 GMT 27.422295 -83.106293 32,000 285 388 0
2019-01-10 01:53:15 GMT 27.420364 -83.097580 32,000 285 388 0
2019-01-10 01:53:12 GMT 27.418850 -83.090813 32,000 285 389 0
2019-01-10 01:53:08 GMT 27.417267 -83.083794 32,000 285 389 0
2019-01-10 01:53:05 GMT 27.415833 -83.077217 32,000 285 389 0
2019-01-10 01:52:59 GMT 27.412903 -83.064262 32,025 285 389 0
2019-01-10 01:52:55 GMT 27.411774 -83.059227 32,000 285 389 -64
2019-01-10 01:52:52 GMT 27.410051 -83.051567 32,025 285 389 0
2019-01-10 01:52:48 GMT 27.408607 -83.045128 32,025 285 389 0
2019-01-10 01:52:43 GMT 27.406540 -83.035759 32,025 285 390 0
2019-01-10 01:52:38 GMT 27.403999 -83.024475 32,025 285 390 0
2019-01-10 01:52:33 GMT 27.401642 -83.013992 32,025 285 390 0
2019-01-10 01:52:26 GMT 27.398758 -83.000984 32,025 285 390 0
2019-01-10 01:52:22 GMT 27.397108 -82.993629 32,025 285 390 0
2019-01-10 01:52:17 GMT 27.394594 -82.982376 32,025 285 390 0
2019-01-10 01:52:10 GMT 27.392176 -82.971550 32,025 285 390 0
2019-01-10 01:52:04 GMT 27.389242 -82.958611 32,025 285 390 0
2019-01-10 01:51:59 GMT 27.387333 -82.949944 32,025 285 390 0
2019-01-10 01:51:54 GMT 27.384586 -82.937744 32,025 285 390 0
2019-01-10 01:51:50 GMT 27.382874 -82.930145 32,025 285 390 0
2019-01-10 01:51:45 GMT 27.380814 -82.921127 32,025 285 390 0
2019-01-10 01:51:41 GMT 27.377836 -82.907799 32,025 285 390 0
2019-01-10 01:51:35 GMT 27.376099 -82.900032 32,025 285 390 0
2019-01-10 01:51:32 GMT 27.375183 -82.896019 32,025 285 390 0
2019-01-10 01:51:28 GMT 27.373398 -82.888062 32,025 285 390 0
2019-01-10 01:51:24 GMT 27.371506 -82.879700 32,025 285 390 0
2019-01-10 01:51:21 GMT 27.370575 -82.875526 32,025 285 390 0
2019-01-10 01:51:18 GMT 27.368591 -82.866608 32,025 285 390 0
2019-01-10 01:51:12 GMT 27.366165 -82.855988 32,025 285 390 0
2019-01-10 01:51:09 GMT 27.364609 -82.849091 32,025 285 390 0
2019-01-10 01:51:06 GMT 27.363731 -82.845261 32,025 285 390 0
2019-01-10 01:51:03 GMT 27.362183 -82.838470 32,025 285 390 0
2019-01-10 01:50:59 GMT 27.359985 -82.828621 32,025 285 390 0
2019-01-10 01:50:56 GMT 27.359123 -82.824768 32,025 285 390 0
2019-01-10 01:50:50 GMT 27.356369 -82.812714 32,000 285 390 0
2019-01-10 01:50:46 GMT 27.354235 -82.803162 32,000 285 390 0
2019-01-10 01:50:40 GMT 27.351562 -82.791466 32,000 285 390 64
2019-01-10 01:50:34 GMT 27.349255 -82.781349 32,000 285 390 64
2019-01-10 01:50:31 GMT 27.348129 -82.776337 32,000 285 390 0
2019-01-10 01:50:28 GMT 27.346786 -82.770309 32,000 285 390 0
2019-01-10 01:50:25 GMT 27.344784 -82.761490 32,000 285 390 0
2019-01-10 01:50:21 GMT 27.343481 -82.755569 32,000 285 390 0
2019-01-10 01:50:17 GMT 27.341446 -82.746643 32,000 285 390 0
2019-01-10 01:50:14 GMT 27.340256 -82.741142 32,000 285 390 0
2019-01-10 01:50:09 GMT 27.338175 -82.732018 32,000 285 389 0
2019-01-10 01:50:06 GMT 27.337057 -82.727104 32,000 285 390 0
2019-01-10 01:50:02 GMT 27.335266 -82.719124 32,000 285 390 0
2019-01-10 01:49:57 GMT 27.332541 -82.707085 32,000 285 390 0
2019-01-10 01:49:53 GMT 27.331053 -82.700432 32,000 285 390 64
2019-01-10 01:49:50 GMT 27.329702 -82.694565 32,000 285 390 64
2019-01-10 01:49:45 GMT 27.327667 -82.685440 32,000 285 390 0
2019-01-10 01:49:41 GMT 27.325932 -82.677879 32,000 285 390 0
2019-01-10 01:49:35 GMT 27.323456 -82.666992 32,000 285 390 -64
2019-01-10 01:49:29 GMT 27.320251 -82.652893 32,000 285 389 0
2019-01-10 01:49:25 GMT 27.318649 -82.645844 32,000 285 389 0
2019-01-10 01:49:21 GMT 27.316589 -82.636879 32,000 285 389 0
2019-01-10 01:49:18 GMT 27.315491 -82.631958 32,000 285 389 0
2019-01-10 01:49:15 GMT 27.313797 -82.624542 32,000 285 389 0
2019-01-10 01:49:11 GMT 27.312199 -82.617401 32,000 285 388 0
2019-01-10 01:49:08 GMT 27.310822 -82.611435 32,000 285 388 0
2019-01-10 01:49:04 GMT 27.309172 -82.604141 32,000 285 387 0
2019-01-10 01:48:59 GMT 27.306793 -82.593506 32,000 285 387 0
2019-01-10 01:48:56 GMT 27.306152 -82.590813 32,000 285 387 0
2019-01-10 01:48:52 GMT 27.304331 -82.582695 32,000 285 387 0
2019-01-10 01:48:47 GMT 27.301666 -82.571114 32,000 285 387 0
2019-01-10 01:48:42 GMT 27.299629 -82.562309 32,000 285 387 0
2019-01-10 01:48:39 GMT 27.298050 -82.555367 32,000 285 387 0
2019-01-10 01:48:33 GMT 27.295067 -82.542236 32,000 285 388 0
2019-01-10 01:48:27 GMT 27.292553 -82.531143 32,000 285 388 0
2019-01-10 01:48:21 GMT 27.290224 -82.521004 32,000 285 388 0
2019-01-10 01:48:15 GMT 27.287842 -82.510590 32,000 285 389 64
2019-01-10 01:48:12 GMT 27.285782 -82.501572 32,000 285 389 128
2019-01-10 01:48:07 GMT 27.283585 -82.491982 31,975 285 389 320
2019-01-10 01:48:01 GMT 27.281334 -82.482285 31,925 285 389 640
2019-01-10 01:47:55 GMT 27.278412 -82.469498 31,850 285 390 896
2019-01-10 01:47:51 GMT 27.276491 -82.461159 31,775 285 392 960
2019-01-10 01:47:43 GMT 27.273466 -82.447800 31,700 285 391 640
2019-01-10 01:47:40 GMT 27.271774 -82.440422 31,650 285 391 704
2019-01-10 01:47:33 GMT 27.268707 -82.427048 31,550 285 392 1024
2019-01-10 01:47:28 GMT 27.266855 -82.419067 31,475 285 393 1152
2019-01-10 01:47:24 GMT 27.265087 -82.411140 31,400 285 394 1152
2019-01-10 01:47:21 GMT 27.263597 -82.404594 31,275 285 395 896
2019-01-10 01:47:18 GMT 27.262295 -82.398834 31,300 285 395 896
2019-01-10 01:47:14 GMT 27.260239 -82.389793 31,250 285 395 576
2019-01-10 01:47:11 GMT 27.259048 -82.384659 31,225 285 395 576
2019-01-10 01:47:08 GMT 27.257355 -82.377304 31,175 285 395 512
2019-01-10 01:47:01 GMT 27.254288 -82.363983 30,950 285 396 896
2019-01-10 01:46:57 GMT 27.252548 -82.356415 31,000 285 396 896
2019-01-10 01:46:53 GMT 27.250671 -82.348282 31,000 285 396 960
2019-01-10 01:46:50 GMT 27.249121 -82.341423 30,950 285 397 896
2019-01-10 01:46:46 GMT 27.247238 -82.333305 30,875 285 397 960
2019-01-10 01:46:41 GMT 27.244766 -82.322525 30,800 285 398 896
2019-01-10 01:46:37 GMT 27.243160 -82.315430 30,725 285 398 768
2019-01-10 01:46:34 GMT 27.242229 -82.311417 30,725 285 398 704
2019-01-10 01:46:30 GMT 27.239716 -82.300377 30,650 285 398 576
2019-01-10 01:46:27 GMT 27.238358 -82.294487 30,625 285 398 512
2019-01-10 01:46:22 GMT 27.236086 -82.284584 30,575 285 398 448
2019-01-10 01:46:18 GMT 27.234375 -82.277229 30,550 285 398 512
2019-01-10 01:46:13 GMT 27.231995 -82.266869 30,500 285 398 576
2019-01-10 01:46:09 GMT 27.229986 -82.258125 30,450 285 398 640
2019-01-10 01:46:06 GMT 27.228777 -82.252945 30,425 285 398 640
2019-01-10 01:46:01 GMT 27.226496 -82.242912 30,375 285 398 576
2019-01-10 01:45:58 GMT 27.224991 -82.236244 30,350 285 398 640
2019-01-10 01:45:55 GMT 27.223843 -82.231346 30,325 285 398 704
2019-01-10 01:45:50 GMT 27.221746 -82.222099 30,225 285 398 832
2019-01-10 01:45:47 GMT 27.219931 -82.214127 30,200 285 398 832
2019-01-10 01:45:40 GMT 27.216614 -82.199814 30,125 285 398 704
2019-01-10 01:45:37 GMT 27.215231 -82.193893 30,075 285 398 640
2019-01-10 01:45:34 GMT 27.214111 -82.188881 30,050 285 398 704
2019-01-10 01:45:29 GMT 27.211716 -82.178566 29,950 285 399 768
2019-01-10 01:45:26 GMT 27.209473 -82.168922 29,950 285 399 768
2019-01-10 01:45:20 GMT 27.207321 -82.159698 29,875 285 399 832
2019-01-10 01:45:17 GMT 27.206635 -82.156693 29,825 285 399 832
2019-01-10 01:45:13 GMT 27.204620 -82.148041 29,800 285 399 832
2019-01-10 01:45:08 GMT 27.201828 -82.136017 29,700 285 400 960
2019-01-10 01:45:03 GMT 27.199728 -82.126869 29,625 285 401 960
2019-01-10 01:44:59 GMT 27.198238 -82.120377 29,525 285 402 960
2019-01-10 01:44:56 GMT 27.196976 -82.115028 29,525 285 402 960
2019-01-10 01:44:53 GMT 27.194885 -82.105850 29,450 285 402 1088
2019-01-10 01:44:50 GMT 27.193628 -82.100410 29,400 285 403 1088
2019-01-10 01:44:46 GMT 27.191620 -82.091759 29,325 285 404 1024
2019-01-10 01:44:43 GMT 27.190231 -82.085777 29,275 285 404 1024
2019-01-10 01:44:39 GMT 27.188602 -82.078911 29,250 285 405 960
2019-01-10 01:44:35 GMT 27.186676 -82.070671 29,175 285 405 896
2019-01-10 01:44:32 GMT 27.185064 -82.063644 29,125 285 406 832
2019-01-10 01:44:29 GMT 27.183609 -82.057457 29,075 285 406 768
2019-01-10 01:44:25 GMT 27.181732 -82.049316 29,025 285 406 640
2019-01-10 01:44:20 GMT 27.179895 -82.041252 28,975 285 405 640
2019-01-10 01:44:14 GMT 27.177155 -82.029366 28,900 285 405 704
2019-01-10 01:44:11 GMT 27.175140 -82.020813 28,875 285 406 704
2019-01-10 01:44:08 GMT 27.173891 -82.015419 28,850 285 406 832
2019-01-10 01:44:04 GMT 27.171799 -82.006355 28,775 285 406 832
2019-01-10 01:44:00 GMT 27.170151 -81.999207 28,725 285 406 896
2019-01-10 01:43:57 GMT 27.168915 -81.993919 28,675 285 406 960
2019-01-10 01:43:53 GMT 27.167267 -81.986771 28,600 285 407 1024
2019-01-10 01:43:50 GMT 27.165373 -81.978714 28,550 285 407 960
2019-01-10 01:43:47 GMT 27.163788 -81.971893 28,525 285 407 896
2019-01-10 01:43:43 GMT 27.161774 -81.963295 28,450 285 408 896
2019-01-10 01:43:39 GMT 27.160080 -81.956139 28,400 285 408 960
2019-01-10 01:43:36 GMT 27.158615 -81.949821 28,350 285 408 768
2019-01-10 01:43:33 GMT 27.156921 -81.942459 28,275 285 408 704
2019-01-10 01:43:28 GMT 27.155039 -81.934555 28,250 285 408 704
2019-01-10 01:43:25 GMT 27.153671 -81.928520 28,225 285 408 768
2019-01-10 01:43:21 GMT 27.151405 -81.919029 28,150 285 408 832
2019-01-10 01:43:17 GMT 27.149637 -81.911209 28,100 285 408 960
2019-01-10 01:43:10 GMT 27.146473 -81.897690 28,000 285 409 1280
2019-01-10 01:43:06 GMT 27.143724 -81.886017 27,875 285 410 1408
2019-01-10 01:43:01 GMT 27.141769 -81.877686 27,750 285 411 1536
2019-01-10 01:42:56 GMT 27.139256 -81.867058 27,650 285 412 1408
2019-01-10 01:42:53 GMT 27.138046 -81.861877 27,600 285 413 1216
2019-01-10 01:42:50 GMT 27.136688 -81.856178 27,350 286 413 448
2019-01-10 01:42:47 GMT 27.134903 -81.848717 27,500 285 414 640
2019-01-10 01:42:40 GMT 27.131516 -81.834412 27,350 286 412 448
2019-01-10 01:42:35 GMT 27.128769 -81.823067 27,375 286 412 448
2019-01-10 01:42:29 GMT 27.126251 -81.812752 27,350 286 411 576
2019-01-10 01:42:25 GMT 27.122498 -81.797440 27,250 286 411 704
2019-01-10 01:42:22 GMT 27.122498 -81.797440 27,200 314 415 0
2019-01-10 01:42:18 GMT 27.120483 -81.789070 27,200 286 412 960
2019-01-10 01:42:14 GMT 27.118744 -81.781860 27,125 285 412 1088
2019-01-10 01:42:11 GMT 27.117331 -81.775780 27,025 314 415 0
2019-01-10 01:42:07 GMT 27.115677 -81.768646 27,025 285 412 1152
2019-01-10 01:42:04 GMT 27.113571 -81.759323 26,900 285 413 1088
2019-01-10 01:42:01 GMT 27.112349 -81.754021 26,875 285 413 1024
2019-01-10 01:41:56 GMT 27.110441 -81.745941 26,825 312 415 768
2019-01-10 01:41:53 GMT 27.106344 -81.732315 26,775 292 413 640
2019-01-10 01:41:50 GMT 27.106344 -81.732315 26,750 294 414 576
2019-01-10 01:41:46 GMT 27.104015 -81.726189 26,725 297 413 576
2019-01-10 01:41:43 GMT 27.099779 -81.716782 26,675 301 413 576
2019-01-10 01:41:40 GMT 27.097549 -81.712471 26,650 303 413 576
2019-01-10 01:41:36 GMT 27.093842 -81.705940 26,625 305 414 640
2019-01-10 01:41:32 GMT 27.088469 -81.697662 26,550 310 415 640
2019-01-10 01:41:29 GMT 27.085693 -81.693710 26,550 312 415 704
2019-01-10 01:41:23 GMT 27.079063 -81.685196 26,475 315 416 1088
2019-01-10 01:41:19 GMT 27.072733 -81.677910 26,300 316 417 1216
2019-01-10 01:41:15 GMT 27.066774 -81.671410 26,025 316 418 1088
2019-01-10 01:41:10 GMT 27.059420 -81.663437 26,200 316 418 960
2019-01-10 01:41:03 GMT 27.049622 -81.652771 26,100 316 417 768
2019-01-10 01:41:00 GMT 27.045500 -81.648331 26,075 316 417 768
2019-01-10 01:40:57 GMT 27.041565 -81.644066 26,025 316 417 768
2019-01-10 01:40:53 GMT 27.036850 -81.638939 25,975 316 417 832
2019-01-10 01:40:49 GMT 27.031210 -81.632858 25,925 316 417 960
2019-01-10 01:40:46 GMT 27.026089 -81.627258 25,875 316 417 960
2019-01-10 01:40:42 GMT 27.015148 -81.615372 25,725 316 417 1024
2019-01-10 01:40:38 GMT 27.015148 -81.615372 25,725 316 417 960
2019-01-10 01:40:33 GMT 27.007933 -81.607552 25,650 316 417 1088
2019-01-10 01:40:27 GMT 27.000113 -81.599106 25,550 316 417 1024
2019-01-10 01:40:24 GMT 26.994850 -81.593399 25,475 316 417 960
2019-01-10 01:40:21 GMT 26.992538 -81.590897 25,250 316 415 1344
2019-01-10 01:40:16 GMT 26.984283 -81.581940 25,375 316 417 704
2019-01-10 01:40:12 GMT 26.978668 -81.575867 25,325 316 417 704
2019-01-10 01:40:07 GMT 26.971756 -81.568359 25,250 316 416 768
2019-01-10 01:40:04 GMT 26.969572 -81.566040 25,250 316 416 768
2019-01-10 01:40:00 GMT 26.963562 -81.559494 25,150 316 415 1152
2019-01-10 01:39:55 GMT 26.955887 -81.551193 25,075 316 415 1216
2019-01-10 01:39:52 GMT 26.952347 -81.547371 25,025 316 415 1280
2019-01-10 01:39:45 GMT 26.942688 -81.536850 24,850 316 416 1408
2019-01-10 01:39:42 GMT 26.936939 -81.530594 24,775 316 417 1472
2019-01-10 01:39:33 GMT 26.920303 -81.512596 24,600 316 417 960
2019-01-10 01:39:30 GMT 26.920303 -81.512596 24,550 316 417 896
2019-01-10 01:39:24 GMT 26.912521 -81.504204 24,475 316 417 768
2019-01-10 01:39:20 GMT 26.906845 -81.498032 24,350 316 416 896
2019-01-10 01:39:12 GMT 26.895836 -81.486122 24,300 316 415 896
2019-01-10 01:39:09 GMT 26.891739 -81.481712 24,275 316 415 896
2019-01-10 01:39:01 GMT 26.880798 -81.469894 24,000 316 415 1024
2019-01-10 01:38:57 GMT 26.875992 -81.464661 24,075 316 415 960
2019-01-10 01:38:52 GMT 26.868805 -81.456886 24,000 316 413 896
2019-01-10 01:38:49 GMT 26.865646 -81.453468 23,975 316 413 896
2019-01-10 01:38:46 GMT 26.861712 -81.449203 23,925 316 413 768
2019-01-10 01:38:39 GMT 26.851181 -81.437813 23,825 316 411 640
2019-01-10 01:38:36 GMT 26.846283 -81.432480 23,800 316 411 640
2019-01-10 01:38:29 GMT 26.836166 -81.421539 23,700 316 410 768
2019-01-10 01:38:24 GMT 26.831268 -81.416260 23,675 316 409 896
2019-01-10 01:38:18 GMT 26.821426 -81.405632 23,550 316 408 1088
2019-01-10 01:38:10 GMT 26.810577 -81.393867 23,400 316 408 1088
2019-01-10 01:38:07 GMT 26.806641 -81.389618 23,350 316 408 1024
2019-01-10 01:38:02 GMT 26.801800 -81.384392 23,225 316 406 768
2019-01-10 01:37:59 GMT 26.791718 -81.373505 23,225 316 406 768
2019-01-10 01:37:56 GMT 26.791718 -81.373505 23,200 316 406 768
2019-01-10 01:37:52 GMT 26.784393 -81.365623 23,050 316 405 1280
2019-01-10 01:37:48 GMT 26.781643 -81.362633 23,050 316 405 1152
2019-01-10 01:37:45 GMT 26.776703 -81.357338 23,000 316 405 1280
2019-01-10 01:37:38 GMT 26.767351 -81.347214 22,825 316 405 1280
2019-01-10 01:37:34 GMT 26.761810 -81.341240 22,775 316 405 1216
2019-01-10 01:37:29 GMT 26.755573 -81.334534 22,675 317 404 1024
2019-01-10 01:37:26 GMT 26.751661 -81.330360 22,625 316 405 1216
2019-01-10 01:37:23 GMT 26.747192 -81.325554 22,550 316 405 1152
2019-01-10 01:37:17 GMT 26.738813 -81.316521 22,450 317 404 1024
2019-01-10 01:37:12 GMT 26.732574 -81.309761 22,350 316 403 1024
2019-01-10 01:37:09 GMT 26.728409 -81.305305 22,300 317 403 1024
2019-01-10 01:37:04 GMT 26.723145 -81.299660 22,275 317 403 960
2019-01-10 01:36:59 GMT 26.714951 -81.290794 22,150 317 401 896
2019-01-10 01:36:56 GMT 26.710281 -81.285767 22,100 316 400 896
2019-01-10 01:36:50 GMT 26.695724 -81.270065 22,000 316 399 960
2019-01-10 01:36:45 GMT 26.695724 -81.270065 21,925 316 399 1088
2019-01-10 01:36:39 GMT 26.689499 -81.263329 21,675 316 398 1344
2019-01-10 01:36:33 GMT 26.681534 -81.254730 21,625 316 398 1344
2019-01-10 01:36:27 GMT 26.672569 -81.245110 21,550 316 398 1344
2019-01-10 01:36:22 GMT 26.666794 -81.238869 21,475 317 398 1472
2019-01-10 01:36:18 GMT 26.660019 -81.231613 21,325 317 398 1536
2019-01-10 01:36:14 GMT 26.655020 -81.226257 21,100 317 398 1408
2019-01-10 01:36:11 GMT 26.652321 -81.223404 21,100 317 398 1408
2019-01-10 01:36:07 GMT 26.645874 -81.216431 21,075 317 398 1344
2019-01-10 01:36:03 GMT 26.640356 -81.210518 21,000 317 398 1088
2019-01-10 01:35:55 GMT 26.631088 -81.200577 20,875 317 397 960
2019-01-10 01:35:52 GMT 26.625687 -81.194717 20,650 317 396 1408
2019-01-10 01:35:44 GMT 26.615387 -81.183678 20,650 317 396 1280
2019-01-10 01:35:34 GMT 26.603161 -81.170532 20,375 317 396 1536
2019-01-10 01:35:31 GMT 26.597809 -81.164818 20,325 317 396 1536
2019-01-10 01:35:23 GMT 26.587372 -81.153625 20,150 317 396 1280
2019-01-10 01:35:20 GMT 26.583115 -81.149063 20,025 317 395 1216
2019-01-10 01:35:13 GMT 26.574142 -81.139473 19,925 317 394 1280
2019-01-10 01:35:09 GMT 26.568878 -81.133827 19,800 317 393 1216
2019-01-10 01:35:01 GMT 26.560089 -81.124344 19,700 317 393 1152
2019-01-10 01:34:57 GMT 26.552931 -81.116707 19,650 317 392 1088
2019-01-10 01:34:51 GMT 26.546448 -81.109726 19,525 317 390 1024
2019-01-10 01:34:47 GMT 26.540407 -81.103241 19,450 316 389 1152
2019-01-10 01:34:41 GMT 26.532257 -81.094543 19,325 316 388 1280
2019-01-10 01:34:36 GMT 26.525528 -81.087288 19,200 316 388 1344
2019-01-10 01:34:30 GMT 26.517654 -81.078842 19,075 316 386 1280
2019-01-10 01:34:27 GMT 26.514954 -81.075890 19,025 316 386 1344
2019-01-10 01:34:24 GMT 26.511780 -81.072502 18,975 316 386 1344
2019-01-10 01:34:17 GMT 26.501492 -81.061462 18,750 316 385 1536
2019-01-10 01:34:14 GMT 26.498138 -81.057869 18,700 316 385 1536
2019-01-10 01:34:06 GMT 26.488037 -81.047028 18,475 316 385 1472
2019-01-10 01:34:03 GMT 26.484192 -81.042877 18,425 316 384 1280
2019-01-10 01:33:58 GMT 26.476639 -81.034691 18,300 316 383 1344
2019-01-10 01:33:55 GMT 26.473885 -81.031723 18,250 316 383 1408
2019-01-10 01:33:52 GMT 26.470207 -81.027710 18,175 316 383 1408
2019-01-10 01:33:45 GMT 26.459930 -81.016655 18,000 316 381 1408
2019-01-10 01:33:41 GMT 26.456196 -81.012550 17,925 316 381 1408
2019-01-10 01:33:35 GMT 26.448748 -81.004471 17,800 316 381 1536
2019-01-10 01:33:31 GMT 26.442307 -80.997536 17,650 316 381 1472
2019-01-10 01:33:24 GMT 26.433477 -80.988045 17,450 317 379 1216
2019-01-10 01:33:20 GMT 26.428024 -80.982346 17,400 318 379 1216
2019-01-10 01:33:15 GMT 26.419559 -80.973679 17,300 318 378 1408
2019-01-10 01:33:09 GMT 26.413834 -80.967842 17,150 318 377 1472
2019-01-10 01:33:02 GMT 26.406052 -80.959961 17,000 318 377 1728
2019-01-10 01:32:57 GMT 26.399029 -80.952812 16,825 318 377 1728
2019-01-10 01:32:53 GMT 26.394886 -80.948639 16,750 318 377 1536
2019-01-10 01:32:46 GMT 26.384125 -80.937675 16,550 318 375 1472
2019-01-10 01:32:41 GMT 26.378082 -80.931511 16,425 318 375 1472
2019-01-10 01:32:36 GMT 26.371307 -80.924622 16,300 318 374 1600
2019-01-10 01:32:33 GMT 26.367514 -80.920799 16,200 318 374 1664
2019-01-10 01:32:30 GMT 26.364624 -80.917885 16,200 318 374 1664
2019-01-10 01:32:26 GMT 26.360855 -80.914040 16,075 318 373 1472
2019-01-10 01:32:21 GMT 26.353687 -80.906754 15,950 318 373 1472
2019-01-10 01:32:18 GMT 26.350336 -80.903374 15,875 318 372 1472
2019-01-10 01:32:12 GMT 26.341166 -80.894073 15,675 318 372 1536
2019-01-10 01:32:09 GMT 26.337021 -80.889900 15,600 318 371 1536
2019-01-10 01:32:06 GMT 26.333725 -80.886528 15,550 318 370 1344
2019-01-10 01:32:01 GMT 26.327200 -80.879868 15,400 318 370 1280
2019-01-10 01:31:58 GMT 26.323009 -80.875641 15,375 318 368 1216
2019-01-10 01:31:50 GMT 26.313217 -80.865746 15,225 318 367 1024
2019-01-10 01:31:46 GMT 26.309830 -80.862274 15,175 318 365 1024
2019-01-10 01:31:39 GMT 26.299347 -80.851654 14,975 318 363 1728
2019-01-10 01:31:36 GMT 26.296801 -80.849075 14,925 318 363 2112
2019-01-10 01:31:29 GMT 26.288839 -80.841049 14,675 318 364 2432
2019-01-10 01:31:26 GMT 26.282696 -80.834869 14,475 318 366 2112
2019-01-10 01:31:22 GMT 26.279436 -80.831535 14,400 318 366 1856
2019-01-10 01:31:18 GMT 26.272734 -80.824829 14,225 318 366 1728
2019-01-10 01:31:15 GMT 26.270050 -80.822113 14,175 318 365 1472
2019-01-10 01:31:10 GMT 26.264074 -80.816116 14,050 318 363 1344
2019-01-10 01:31:06 GMT 26.257782 -80.809784 13,950 318 363 1408
2019-01-10 01:31:02 GMT 26.252838 -80.804756 13,850 318 362 1536
2019-01-10 01:30:58 GMT 26.249359 -80.801231 13,775 318 361 1600
2019-01-10 01:30:54 GMT 26.242950 -80.794647 13,625 318 360 1664
2019-01-10 01:30:47 GMT 26.235626 -80.787086 13,425 318 360 1728
2019-01-10 01:30:44 GMT 26.229263 -80.780556 13,275 318 358 1792
2019-01-10 01:30:38 GMT 26.223434 -80.774605 13,150 318 358 1856
2019-01-10 01:30:35 GMT 26.220337 -80.771378 13,050 318 358 1920
2019-01-10 01:30:22 GMT 26.203743 -80.754265 12,625 318 358 1920
2019-01-10 01:30:13 GMT 26.194427 -80.744690 12,275 318 356 1664
2019-01-10 01:30:10 GMT 26.189575 -80.739662 12,275 318 356 1664
2019-01-10 01:30:05 GMT 26.184563 -80.734512 12,150 318 355 1664
2019-01-10 01:30:02 GMT 26.180792 -80.730652 12,075 318 355 1728
2019-01-10 01:29:55 GMT 26.173096 -80.722771 11,875 318 353 1920
2019-01-10 01:29:51 GMT 26.167524 -80.717026 11,725 318 353 1920
2019-01-10 01:29:45 GMT 26.160095 -80.709450 11,550 318 352 1600
2019-01-10 01:29:42 GMT 26.152208 -80.701393 11,350 318 351 1280
2019-01-10 01:29:34 GMT 26.147644 -80.696754 11,350 318 347 896
2019-01-10 01:29:29 GMT 26.141602 -80.690590 11,300 318 344 768
2019-01-10 01:29:23 GMT 26.135078 -80.683960 11,200 318 339 768
2019-01-10 01:29:19 GMT 26.130005 -80.678734 11,150 318 336 768
2019-01-10 01:29:14 GMT 26.123199 -80.671776 11,075 318 332 832
2019-01-10 01:29:09 GMT 26.117798 -80.666229 11,000 317 328 896
2019-01-10 01:29:03 GMT 26.111290 -80.659508 10,900 317 324 960
2019-01-10 01:28:58 GMT 26.099838 -80.647675 10,800 324 311 640
2019-01-10 01:28:52 GMT 26.099838 -80.647675 10,750 318 317 960
2019-01-10 01:28:46 GMT 26.093353 -80.641205 10,400 324 311 640
2019-01-10 01:28:41 GMT 26.087362 -80.636108 10,600 326 310 640
2019-01-10 01:28:36 GMT 26.080536 -80.631561 10,575 333 305 640
2019-01-10 01:28:31 GMT 26.075630 -80.628929 10,500 338 302 768
2019-01-10 01:28:24 GMT 26.066320 -80.624809 10,375 339 292 896
2019-01-10 01:28:21 GMT 26.061859 -80.622910 10,350 339 292 960
2019-01-10 01:28:14 GMT 26.052521 -80.618919 10,225 339 286 896
2019-01-10 01:28:10 GMT 26.048723 -80.617310 10,200 339 283 832
2019-01-10 01:28:03 GMT 26.039383 -80.613274 10,050 339 277 1024
2019-01-10 01:27:59 GMT 26.035172 -80.611458 10,000 339 276 1216
2019-01-10 01:27:54 GMT 26.029545 -80.609016 9,900 339 271 1088
2019-01-10 01:27:50 GMT 26.023270 -80.606323 9,775 339 269 2048
2019-01-10 01:27:44 GMT 26.017365 -80.603737 9,575 339 268 2048
2019-01-10 01:27:39 GMT 26.011250 -80.601089 9,400 339 268 1984
2019-01-10 01:27:31 GMT 26.001427 -80.596809 9,125 339 267 2112
2019-01-10 01:27:23 GMT 25.992783 -80.593063 8,825 339 268 2624
2019-01-10 01:27:20 GMT 25.988670 -80.591316 8,650 339 269 2752
2019-01-10 01:27:15 GMT 25.983948 -80.589333 7,050 339 268 1728
2019-01-10 01:27:12 GMT 25.980059 -80.587677 8,300 340 271 2688
2019-01-10 01:27:09 GMT 25.975983 -80.585907 8,175 339 272 2176
2019-01-10 01:27:01 GMT 25.967514 -80.582283 7,925 339 271 1984
2019-01-10 01:26:57 GMT 25.963074 -80.580315 7,800 339 269 1792
2019-01-10 01:26:50 GMT 25.955248 -80.576897 7,625 339 267 1792
2019-01-10 01:26:43 GMT 25.946634 -80.573097 7,400 339 265 1856
2019-01-10 01:26:40 GMT 25.942863 -80.571457 7,275 339 264 1920
2019-01-10 01:26:35 GMT 25.930527 -80.566162 7,050 339 260 1472
2019-01-10 01:26:29 GMT 25.930527 -80.566162 7,000 339 260 1344
2019-01-10 01:26:26 GMT 25.925903 -80.564194 6,925 340 261 768
2019-01-10 01:26:18 GMT 25.918762 -80.561188 6,875 339 261 128
2019-01-10 01:26:15 GMT 25.906366 -80.555824 6,900 339 263 -64
2019-01-10 01:26:07 GMT 25.906366 -80.555824 6,900 339 263 -64
2019-01-10 01:26:03 GMT 25.899948 -80.553001 6,600 340 264 768
2019-01-10 01:25:57 GMT 25.894135 -80.550362 6,900 338 263 128
2019-01-10 01:25:52 GMT 25.887838 -80.547531 6,875 338 264 192
2019-01-10 01:25:46 GMT 25.881866 -80.544914 6,875 339 263 192
2019-01-10 01:25:41 GMT 25.876419 -80.542534 6,850 339 264 192
2019-01-10 01:25:35 GMT 25.869963 -80.539719 6,850 339 263 384
2019-01-10 01:25:30 GMT 25.863354 -80.536865 6,800 339 263 320
2019-01-10 01:25:25 GMT 25.857880 -80.534500 6,775 339 263 256
2019-01-10 01:25:14 GMT 25.845848 -80.529259 6,725 339 263 320
2019-01-10 01:25:08 GMT 25.839052 -80.526245 6,700 339 264 320
2019-01-10 01:25:03 GMT 25.832861 -80.523605 6,675 339 264 640
2019-01-10 01:24:57 GMT 25.825928 -80.520683 6,600 340 265 768
2019-01-10 01:24:53 GMT 25.821131 -80.518745 6,525 341 264 896
2019-01-10 01:24:48 GMT 25.814287 -80.516106 6,450 342 264 832
2019-01-10 01:24:43 GMT 25.808187 -80.513878 6,375 342 264 1088
2019-01-10 01:24:39 GMT 25.804697 -80.512634 6,300 342 264 1216
2019-01-10 01:24:32 GMT 25.795666 -80.509163 6,150 339 262 1152
2019-01-10 01:24:26 GMT 25.788729 -80.505898 6,000 331 258 1600
2019-01-10 01:24:19 GMT 25.782909 -80.501961 5,800 324 256 2432
2019-01-10 01:24:13 GMT 25.777725 -80.496880 5,550 308 255 2432
2019-01-10 01:24:09 GMT 25.774763 -80.492889 5,400 303 255 2368
2019-01-10 01:24:05 GMT 25.771637 -80.487061 5,200 299 256 2368
2019-01-10 01:24:01 GMT 25.769943 -80.482994 5,075 291 256 2368
2019-01-10 01:23:58 GMT 25.769085 -80.480034 4,975 285 257 2496
2019-01-10 01:23:54 GMT 25.767929 -80.474754 4,775 280 258 2688
2019-01-10 01:23:51 GMT 25.767408 -80.470863 4,650 273 259 2496
2019-01-10 01:23:47 GMT 25.767288 -80.463921 4,225 265 259 2432
2019-01-10 01:23:38 GMT 25.768478 -80.452362 4,075 262 259 2624
2019-01-10 01:23:31 GMT 25.769485 -80.444641 3,850 262 258 2048
2019-01-10 01:23:28 GMT 25.770035 -80.440727 3,725 262 258 2112
2019-01-10 01:23:22 GMT 25.771088 -80.433098 3,625 262 257 2176
2019-01-10 01:23:17 GMT 25.771957 -80.426582 3,325 262 255 2432
2019-01-10 01:23:13 GMT 25.772856 -80.420029 3,125 262 255 2624
2019-01-10 01:23:06 GMT 25.774246 -80.409752 2,800 262 255 2304
2019-01-10 01:22:55 GMT 25.776068 -80.395615 2,475 262 249 1216
2019-01-10 01:22:46 GMT 25.777496 -80.385033 2,375 262 236 448
2019-01-10 01:22:43 GMT 25.777790 -80.382919 2,375 262 233 384
2019-01-10 01:22:36 GMT 25.778961 -80.374352 2,350 262 217 -192
2019-01-10 01:22:33 GMT 25.779465 -80.370796 2,350 261 214 192
2019-01-10 01:22:23 GMT 25.781113 -80.359245 2,250 261 202 896
2019-01-10 01:22:15 GMT 25.782166 -80.352020 2,125 262 195 896
2019-01-10 01:22:12 GMT 25.782761 -80.347847 2,050 262 191 896
2019-01-10 01:22:04 GMT 25.783630 -80.341286 1,925 263 187 1280
2019-01-10 01:22:00 GMT 25.784121 -80.337372 1,825 263 185 1216
2019-01-10 01:21:53 GMT 25.784819 -80.331459 1,650 264 181 1984
2019-01-10 01:21:50 GMT 25.785141 -80.328270 1,525 264 181 2240

Making use of Plane Finder data

You are free to use the raw flight data, aircraft information and images provided in this report for your own purposes provided the data is correctly attributed to Plane Finder. We ask that you please credit Plane Finder and link to planefinder.net in close proximity to the content.

Optionally one of the following logos (no smaller then 150x24px) can be used and must link to planefinder.net

Embedding the Plane Finder map

You are welcome to embed the Plane Finder playback map on your website to offer visitors a more interactive experience. We suggest using the following HTML code:

<iframe src="//planefinder.net/data/report/AA305-N139AN-7700-squawk-2019-01-10/map" width="800" height="600" seamless="seamless"></iframe>

Where our data comes from

Plane Finder has a global network of data feeds and antenna radars that receive data broadcast directly from aircraft. The primary technologies used are ADS-B and MLAT. We also show feeds from the FAA and a FLARM glider feed.

Click here to find out more about the Plane Finder network.

How we collect our data